<?xml version="1.0" encoding="UTF-8" standalone="no" ?>
<gpx xmlns="http://www.topografix.com/GPX/1/1" xmlns:xsi="http://www.w3.org/2001/XMLSchema-instance" xsi:schemaLocation="http://www.topografix.com/GPX/1/1 http://www.topografix.com/GPX/1/1/gpx.xsd" version="1.1" creator="VisuGPX - https://www.visugpx.com">
  <metadata>
    <name>Route au départ de Colombier 2</name>
  </metadata>
  <trk>
    <name><![CDATA[Route au départ de Colombier 2_1]]></name>
    <extensions>
      <line xmlns="http://www.topografix.com/GPX/gpx_style/0/2">
        <color>0000FF</color>
        <width>4</width>
      </line>
    </extensions>
    <trkseg>
      <trkpt lat="45.33772" lon="4.6">
        <ele>808</ele>
        <time>1989-12-31T00:00:00Z</time>
      </trkpt>
      <trkpt lat="45.33772" lon="4.6">
        <ele>808</ele>
        <time>1989-12-31T00:00:00Z</time>
      </trkpt>
      <trkpt lat="45.33786" lon="4.59988">
        <ele>811.6</ele>
        <time>1989-12-31T00:00:03Z</time>
      </trkpt>
      <trkpt lat="45.3379" lon="4.59986">
        <ele>812.6</ele>
        <time>1989-12-31T00:00:04Z</time>
      </trkpt>
      <trkpt lat="45.33794" lon="4.59983">
        <ele>813.8</ele>
        <time>1989-12-31T00:00:05Z</time>
      </trkpt>
      <trkpt lat="45.33794" lon="4.59993">
        <ele>813.4</ele>
        <time>1989-12-31T00:00:06Z</time>
      </trkpt>
      <trkpt lat="45.338" lon="4.60053">
        <ele>809.6</ele>
        <time>1989-12-31T00:00:15Z</time>
      </trkpt>
      <trkpt lat="45.33806" lon="4.60107">
        <ele>807.4</ele>
        <time>1989-12-31T00:00:23Z</time>
      </trkpt>
      <trkpt lat="45.33814" lon="4.60115">
        <ele>807.8</ele>
        <time>1989-12-31T00:00:25Z</time>
      </trkpt>
      <trkpt lat="45.33822" lon="4.6013">
        <ele>807.8</ele>
        <time>1989-12-31T00:00:28Z</time>
      </trkpt>
      <trkpt lat="45.33837" lon="4.60149">
        <ele>807.8</ele>
        <time>1989-12-31T00:00:32Z</time>
      </trkpt>
      <trkpt lat="45.33856" lon="4.6016">
        <ele>807.6</ele>
        <time>1989-12-31T00:00:36Z</time>
      </trkpt>
      <trkpt lat="45.33871" lon="4.60165">
        <ele>807.2</ele>
        <time>1989-12-31T00:00:39Z</time>
      </trkpt>
      <trkpt lat="45.33878" lon="4.60161">
        <ele>807.6</ele>
        <time>1989-12-31T00:00:41Z</time>
      </trkpt>
      <trkpt lat="45.33909" lon="4.60141">
        <ele>806.6</ele>
        <time>1989-12-31T00:00:48Z</time>
      </trkpt>
      <trkpt lat="45.33979" lon="4.60039">
        <ele>807.6</ele>
        <time>1989-12-31T00:01:09Z</time>
      </trkpt>
      <trkpt lat="45.34007" lon="4.59975">
        <ele>808</ele>
        <time>1989-12-31T00:01:20Z</time>
      </trkpt>
      <trkpt lat="45.34043" lon="4.59868">
        <ele>807.6</ele>
        <time>1989-12-31T00:01:37Z</time>
      </trkpt>
      <trkpt lat="45.34051" lon="4.59835">
        <ele>808</ele>
        <time>1989-12-31T00:01:42Z</time>
      </trkpt>
      <trkpt lat="45.34049" lon="4.59761">
        <ele>808.4</ele>
        <time>1989-12-31T00:01:53Z</time>
      </trkpt>
      <trkpt lat="45.34052" lon="4.59734">
        <ele>809.6</ele>
        <time>1989-12-31T00:01:57Z</time>
      </trkpt>
      <trkpt lat="45.34083" lon="4.59634">
        <ele>809.4</ele>
        <time>1989-12-31T00:02:13Z</time>
      </trkpt>
      <trkpt lat="45.34093" lon="4.59615">
        <ele>809.6</ele>
        <time>1989-12-31T00:02:16Z</time>
      </trkpt>
      <trkpt lat="45.34111" lon="4.59601">
        <ele>809.2</ele>
        <time>1989-12-31T00:02:21Z</time>
      </trkpt>
      <trkpt lat="45.34135" lon="4.59597">
        <ele>810</ele>
        <time>1989-12-31T00:02:26Z</time>
      </trkpt>
      <trkpt lat="45.34149" lon="4.59615">
        <ele>811.6</ele>
        <time>1989-12-31T00:02:30Z</time>
      </trkpt>
      <trkpt lat="45.34157" lon="4.59644">
        <ele>811.4</ele>
        <time>1989-12-31T00:02:34Z</time>
      </trkpt>
      <trkpt lat="45.34165" lon="4.59717">
        <ele>812.6</ele>
        <time>1989-12-31T00:02:45Z</time>
      </trkpt>
      <trkpt lat="45.34172" lon="4.59741">
        <ele>813.8</ele>
        <time>1989-12-31T00:02:49Z</time>
      </trkpt>
      <trkpt lat="45.34213" lon="4.59792">
        <ele>816.8</ele>
        <time>1989-12-31T00:03:00Z</time>
      </trkpt>
      <trkpt lat="45.34227" lon="4.59825">
        <ele>817.2</ele>
        <time>1989-12-31T00:03:06Z</time>
      </trkpt>
      <trkpt lat="45.34255" lon="4.59939">
        <ele>820.6</ele>
        <time>1989-12-31T00:03:23Z</time>
      </trkpt>
      <trkpt lat="45.34274" lon="4.59975">
        <ele>820.8</ele>
        <time>1989-12-31T00:03:30Z</time>
      </trkpt>
      <trkpt lat="45.3429" lon="4.59987">
        <ele>821.4</ele>
        <time>1989-12-31T00:03:34Z</time>
      </trkpt>
      <trkpt lat="45.34348" lon="4.60025">
        <ele>821.4</ele>
        <time>1989-12-31T00:03:47Z</time>
      </trkpt>
      <trkpt lat="45.3437" lon="4.60042">
        <ele>823.2</ele>
        <time>1989-12-31T00:03:52Z</time>
      </trkpt>
      <trkpt lat="45.34386" lon="4.6006">
        <ele>825</ele>
        <time>1989-12-31T00:03:56Z</time>
      </trkpt>
      <trkpt lat="45.34406" lon="4.60134">
        <ele>825.8</ele>
        <time>1989-12-31T00:04:08Z</time>
      </trkpt>
      <trkpt lat="45.34415" lon="4.60191">
        <ele>828.4</ele>
        <time>1989-12-31T00:04:16Z</time>
      </trkpt>
      <trkpt lat="45.34415" lon="4.60218">
        <ele>829.4</ele>
        <time>1989-12-31T00:04:20Z</time>
      </trkpt>
      <trkpt lat="45.34406" lon="4.60281">
        <ele>829.2</ele>
        <time>1989-12-31T00:04:30Z</time>
      </trkpt>
      <trkpt lat="45.34402" lon="4.60314">
        <ele>829.6</ele>
        <time>1989-12-31T00:04:35Z</time>
      </trkpt>
      <trkpt lat="45.34402" lon="4.60334">
        <ele>829.8</ele>
        <time>1989-12-31T00:04:37Z</time>
      </trkpt>
      <trkpt lat="45.34405" lon="4.60344">
        <ele>830.4</ele>
        <time>1989-12-31T00:04:39Z</time>
      </trkpt>
      <trkpt lat="45.3441" lon="4.60354">
        <ele>831.2</ele>
        <time>1989-12-31T00:04:41Z</time>
      </trkpt>
      <trkpt lat="45.34445" lon="4.60395">
        <ele>832.8</ele>
        <time>1989-12-31T00:04:50Z</time>
      </trkpt>
      <trkpt lat="45.34461" lon="4.60413">
        <ele>832.8</ele>
        <time>1989-12-31T00:04:54Z</time>
      </trkpt>
      <trkpt lat="45.34506" lon="4.60452">
        <ele>834.4</ele>
        <time>1989-12-31T00:05:05Z</time>
      </trkpt>
      <trkpt lat="45.34528" lon="4.60463">
        <ele>837.4</ele>
        <time>1989-12-31T00:05:10Z</time>
      </trkpt>
      <trkpt lat="45.34553" lon="4.60467">
        <ele>838.4</ele>
        <time>1989-12-31T00:05:15Z</time>
      </trkpt>
      <trkpt lat="45.34559" lon="4.60492">
        <ele>836.6</ele>
        <time>1989-12-31T00:05:19Z</time>
      </trkpt>
      <trkpt lat="45.34566" lon="4.605">
        <ele>836</ele>
        <time>1989-12-31T00:05:21Z</time>
      </trkpt>
      <trkpt lat="45.34594" lon="4.60512">
        <ele>833.8</ele>
        <time>1989-12-31T00:05:27Z</time>
      </trkpt>
      <trkpt lat="45.34627" lon="4.60508">
        <ele>832.2</ele>
        <time>1989-12-31T00:05:34Z</time>
      </trkpt>
      <trkpt lat="45.34641" lon="4.60496">
        <ele>833</ele>
        <time>1989-12-31T00:05:38Z</time>
      </trkpt>
      <trkpt lat="45.34672" lon="4.60453">
        <ele>831.2</ele>
        <time>1989-12-31T00:05:46Z</time>
      </trkpt>
      <trkpt lat="45.3469" lon="4.60435">
        <ele>830.2</ele>
        <time>1989-12-31T00:05:51Z</time>
      </trkpt>
      <trkpt lat="45.3471" lon="4.60425">
        <ele>829.4</ele>
        <time>1989-12-31T00:05:55Z</time>
      </trkpt>
      <trkpt lat="45.34722" lon="4.60422">
        <ele>829</ele>
        <time>1989-12-31T00:05:58Z</time>
      </trkpt>
      <trkpt lat="45.34749" lon="4.60426">
        <ele>828</ele>
        <time>1989-12-31T00:06:04Z</time>
      </trkpt>
      <trkpt lat="45.34803" lon="4.60457">
        <ele>828</ele>
        <time>1989-12-31T00:06:16Z</time>
      </trkpt>
      <trkpt lat="45.34817" lon="4.60471">
        <ele>828.2</ele>
        <time>1989-12-31T00:06:19Z</time>
      </trkpt>
      <trkpt lat="45.34828" lon="4.60492">
        <ele>827.8</ele>
        <time>1989-12-31T00:06:23Z</time>
      </trkpt>
      <trkpt lat="45.34849" lon="4.60543">
        <ele>826.2</ele>
        <time>1989-12-31T00:06:32Z</time>
      </trkpt>
      <trkpt lat="45.3487" lon="4.60562">
        <ele>827.8</ele>
        <time>1989-12-31T00:06:37Z</time>
      </trkpt>
      <trkpt lat="45.34882" lon="4.60571">
        <ele>828</ele>
        <time>1989-12-31T00:06:40Z</time>
      </trkpt>
      <trkpt lat="45.34913" lon="4.60595">
        <ele>827.2</ele>
        <time>1989-12-31T00:06:47Z</time>
      </trkpt>
      <trkpt lat="45.34942" lon="4.60611">
        <ele>824.2</ele>
        <time>1989-12-31T00:06:53Z</time>
      </trkpt>
      <trkpt lat="45.34961" lon="4.60614">
        <ele>823</ele>
        <time>1989-12-31T00:06:57Z</time>
      </trkpt>
      <trkpt lat="45.34984" lon="4.60607">
        <ele>823</ele>
        <time>1989-12-31T00:07:02Z</time>
      </trkpt>
      <trkpt lat="45.35005" lon="4.60612">
        <ele>822.4</ele>
        <time>1989-12-31T00:07:07Z</time>
      </trkpt>
      <trkpt lat="45.35014" lon="4.60619">
        <ele>821.8</ele>
        <time>1989-12-31T00:07:09Z</time>
      </trkpt>
      <trkpt lat="45.35033" lon="4.60647">
        <ele>821.4</ele>
        <time>1989-12-31T00:07:14Z</time>
      </trkpt>
      <trkpt lat="45.35049" lon="4.60663">
        <ele>820</ele>
        <time>1989-12-31T00:07:19Z</time>
      </trkpt>
      <trkpt lat="45.35164" lon="4.60706">
        <ele>813.8</ele>
        <time>1989-12-31T00:07:43Z</time>
      </trkpt>
      <trkpt lat="45.35168" lon="4.60708">
        <ele>813.8</ele>
        <time>1989-12-31T00:07:44Z</time>
      </trkpt>
      <trkpt lat="45.35175" lon="4.60713">
        <ele>813.6</ele>
        <time>1989-12-31T00:07:46Z</time>
      </trkpt>
      <trkpt lat="45.35184" lon="4.60722">
        <ele>813</ele>
        <time>1989-12-31T00:07:48Z</time>
      </trkpt>
      <trkpt lat="45.3519" lon="4.60734">
        <ele>813.2</ele>
        <time>1989-12-31T00:07:50Z</time>
      </trkpt>
      <trkpt lat="45.3519" lon="4.60744">
        <ele>813</ele>
        <time>1989-12-31T00:07:52Z</time>
      </trkpt>
      <trkpt lat="45.35186" lon="4.60757">
        <ele>813.8</ele>
        <time>1989-12-31T00:07:54Z</time>
      </trkpt>
      <trkpt lat="45.35182" lon="4.60766">
        <ele>814.8</ele>
        <time>1989-12-31T00:07:55Z</time>
      </trkpt>
      <trkpt lat="45.35173" lon="4.60772">
        <ele>814.4</ele>
        <time>1989-12-31T00:07:57Z</time>
      </trkpt>
      <trkpt lat="45.35094" lon="4.60806">
        <ele>817.4</ele>
        <time>1989-12-31T00:08:15Z</time>
      </trkpt>
      <trkpt lat="45.35085" lon="4.60814">
        <ele>818.2</ele>
        <time>1989-12-31T00:08:17Z</time>
      </trkpt>
      <trkpt lat="45.35076" lon="4.60825">
        <ele>818.4</ele>
        <time>1989-12-31T00:08:19Z</time>
      </trkpt>
      <trkpt lat="45.35057" lon="4.60858">
        <ele>820</ele>
        <time>1989-12-31T00:08:25Z</time>
      </trkpt>
      <trkpt lat="45.35046" lon="4.60884">
        <ele>821.4</ele>
        <time>1989-12-31T00:08:30Z</time>
      </trkpt>
      <trkpt lat="45.35012" lon="4.60975">
        <ele>826.6</ele>
        <time>1989-12-31T00:08:45Z</time>
      </trkpt>
      <trkpt lat="45.35004" lon="4.60994">
        <ele>827.4</ele>
        <time>1989-12-31T00:08:48Z</time>
      </trkpt>
      <trkpt lat="45.34972" lon="4.61064">
        <ele>830.2</ele>
        <time>1989-12-31T00:09:00Z</time>
      </trkpt>
      <trkpt lat="45.3496" lon="4.61097">
        <ele>831.4</ele>
        <time>1989-12-31T00:09:06Z</time>
      </trkpt>
      <trkpt lat="45.34951" lon="4.61135">
        <ele>832.4</ele>
        <time>1989-12-31T00:09:12Z</time>
      </trkpt>
      <trkpt lat="45.34938" lon="4.61203">
        <ele>829.8</ele>
        <time>1989-12-31T00:09:22Z</time>
      </trkpt>
      <trkpt lat="45.34936" lon="4.61219">
        <ele>829</ele>
        <time>1989-12-31T00:09:24Z</time>
      </trkpt>
      <trkpt lat="45.34934" lon="4.61242">
        <ele>828.4</ele>
        <time>1989-12-31T00:09:28Z</time>
      </trkpt>
      <trkpt lat="45.34935" lon="4.61263">
        <ele>827.8</ele>
        <time>1989-12-31T00:09:31Z</time>
      </trkpt>
      <trkpt lat="45.3494" lon="4.61279">
        <ele>828</ele>
        <time>1989-12-31T00:09:33Z</time>
      </trkpt>
      <trkpt lat="45.34956" lon="4.61316">
        <ele>829.2</ele>
        <time>1989-12-31T00:09:40Z</time>
      </trkpt>
      <trkpt lat="45.34977" lon="4.61363">
        <ele>829.8</ele>
        <time>1989-12-31T00:09:48Z</time>
      </trkpt>
      <trkpt lat="45.34971" lon="4.61381">
        <ele>828.2</ele>
        <time>1989-12-31T00:09:51Z</time>
      </trkpt>
      <trkpt lat="45.34966" lon="4.61413">
        <ele>828</ele>
        <time>1989-12-31T00:09:55Z</time>
      </trkpt>
      <trkpt lat="45.34915" lon="4.61632">
        <ele>828.8</ele>
        <time>1989-12-31T00:10:29Z</time>
      </trkpt>
      <trkpt lat="45.34903" lon="4.61682">
        <ele>829.8</ele>
        <time>1989-12-31T00:10:37Z</time>
      </trkpt>
      <trkpt lat="45.34893" lon="4.61718">
        <ele>830.2</ele>
        <time>1989-12-31T00:10:42Z</time>
      </trkpt>
      <trkpt lat="45.34861" lon="4.61861">
        <ele>829</ele>
        <time>1989-12-31T00:11:04Z</time>
      </trkpt>
      <trkpt lat="45.34836" lon="4.61941">
        <ele>827.2</ele>
        <time>1989-12-31T00:11:17Z</time>
      </trkpt>
      <trkpt lat="45.34758" lon="4.62119">
        <ele>821.6</ele>
        <time>1989-12-31T00:11:48Z</time>
      </trkpt>
      <trkpt lat="45.34741" lon="4.62169">
        <ele>820.2</ele>
        <time>1989-12-31T00:11:56Z</time>
      </trkpt>
      <trkpt lat="45.34742" lon="4.62203">
        <ele>817.6</ele>
        <time>1989-12-31T00:12:01Z</time>
      </trkpt>
      <trkpt lat="45.34744" lon="4.62209">
        <ele>817.2</ele>
        <time>1989-12-31T00:12:02Z</time>
      </trkpt>
      <trkpt lat="45.34753" lon="4.62228">
        <ele>815.8</ele>
        <time>1989-12-31T00:12:05Z</time>
      </trkpt>
      <trkpt lat="45.34769" lon="4.62274">
        <ele>814</ele>
        <time>1989-12-31T00:12:12Z</time>
      </trkpt>
      <trkpt lat="45.34771" lon="4.62296">
        <ele>813</ele>
        <time>1989-12-31T00:12:16Z</time>
      </trkpt>
      <trkpt lat="45.3477" lon="4.62311">
        <ele>812</ele>
        <time>1989-12-31T00:12:18Z</time>
      </trkpt>
      <trkpt lat="45.34731" lon="4.62526">
        <ele>805.8</ele>
        <time>1989-12-31T00:12:50Z</time>
      </trkpt>
      <trkpt lat="45.34713" lon="4.62623">
        <ele>805.4</ele>
        <time>1989-12-31T00:13:05Z</time>
      </trkpt>
      <trkpt lat="45.34713" lon="4.62628">
        <ele>805.6</ele>
        <time>1989-12-31T00:13:06Z</time>
      </trkpt>
      <trkpt lat="45.34709" lon="4.62669">
        <ele>805.8</ele>
        <time>1989-12-31T00:13:12Z</time>
      </trkpt>
      <trkpt lat="45.34705" lon="4.62714">
        <ele>806</ele>
        <time>1989-12-31T00:13:18Z</time>
      </trkpt>
      <trkpt lat="45.34705" lon="4.62733">
        <ele>806</ele>
        <time>1989-12-31T00:13:21Z</time>
      </trkpt>
      <trkpt lat="45.34714" lon="4.62814">
        <ele>803</ele>
        <time>1989-12-31T00:13:33Z</time>
      </trkpt>
      <trkpt lat="45.3472" lon="4.62841">
        <ele>801.8</ele>
        <time>1989-12-31T00:13:37Z</time>
      </trkpt>
      <trkpt lat="45.3474" lon="4.629">
        <ele>798</ele>
        <time>1989-12-31T00:13:47Z</time>
      </trkpt>
      <trkpt lat="45.34782" lon="4.62952">
        <ele>796</ele>
        <time>1989-12-31T00:13:58Z</time>
      </trkpt>
      <trkpt lat="45.34792" lon="4.62969">
        <ele>795.6</ele>
        <time>1989-12-31T00:14:01Z</time>
      </trkpt>
      <trkpt lat="45.34802" lon="4.62988">
        <ele>794.2</ele>
        <time>1989-12-31T00:14:05Z</time>
      </trkpt>
      <trkpt lat="45.34842" lon="4.63085">
        <ele>789</ele>
        <time>1989-12-31T00:14:21Z</time>
      </trkpt>
      <trkpt lat="45.34853" lon="4.63107">
        <ele>787.2</ele>
        <time>1989-12-31T00:14:25Z</time>
      </trkpt>
      <trkpt lat="45.34869" lon="4.63129">
        <ele>785.2</ele>
        <time>1989-12-31T00:14:30Z</time>
      </trkpt>
      <trkpt lat="45.34908" lon="4.6316">
        <ele>783.6</ele>
        <time>1989-12-31T00:14:39Z</time>
      </trkpt>
      <trkpt lat="45.3495" lon="4.63199">
        <ele>780.8</ele>
        <time>1989-12-31T00:14:50Z</time>
      </trkpt>
      <trkpt lat="45.34987" lon="4.63245">
        <ele>776</ele>
        <time>1989-12-31T00:15:00Z</time>
      </trkpt>
      <trkpt lat="45.35021" lon="4.63291">
        <ele>774.6</ele>
        <time>1989-12-31T00:15:10Z</time>
      </trkpt>
      <trkpt lat="45.35067" lon="4.63362">
        <ele>768.8</ele>
        <time>1989-12-31T00:15:24Z</time>
      </trkpt>
      <trkpt lat="45.35103" lon="4.63429">
        <ele>763.6</ele>
        <time>1989-12-31T00:15:36Z</time>
      </trkpt>
      <trkpt lat="45.35116" lon="4.63449">
        <ele>762.8</ele>
        <time>1989-12-31T00:15:40Z</time>
      </trkpt>
      <trkpt lat="45.35133" lon="4.63472">
        <ele>761.6</ele>
        <time>1989-12-31T00:15:45Z</time>
      </trkpt>
      <trkpt lat="45.35157" lon="4.63501">
        <ele>761.2</ele>
        <time>1989-12-31T00:15:51Z</time>
      </trkpt>
      <trkpt lat="45.35164" lon="4.63509">
        <ele>761.8</ele>
        <time>1989-12-31T00:15:53Z</time>
      </trkpt>
      <trkpt lat="45.35166" lon="4.63518">
        <ele>761.6</ele>
        <time>1989-12-31T00:15:54Z</time>
      </trkpt>
      <trkpt lat="45.35165" lon="4.63524">
        <ele>760.8</ele>
        <time>1989-12-31T00:15:55Z</time>
      </trkpt>
      <trkpt lat="45.35162" lon="4.63528">
        <ele>759.6</ele>
        <time>1989-12-31T00:15:56Z</time>
      </trkpt>
      <trkpt lat="45.35157" lon="4.63531">
        <ele>757.4</ele>
        <time>1989-12-31T00:15:57Z</time>
      </trkpt>
      <trkpt lat="45.35151" lon="4.63526">
        <ele>756.2</ele>
        <time>1989-12-31T00:15:59Z</time>
      </trkpt>
      <trkpt lat="45.35136" lon="4.635">
        <ele>757</ele>
        <time>1989-12-31T00:16:04Z</time>
      </trkpt>
      <trkpt lat="45.35016" lon="4.63376">
        <ele>748.2</ele>
        <time>1989-12-31T00:16:34Z</time>
      </trkpt>
      <trkpt lat="45.34998" lon="4.63352">
        <ele>749.4</ele>
        <time>1989-12-31T00:16:40Z</time>
      </trkpt>
      <trkpt lat="45.34992" lon="4.63349">
        <ele>748.8</ele>
        <time>1989-12-31T00:16:41Z</time>
      </trkpt>
      <trkpt lat="45.34986" lon="4.63352">
        <ele>746.4</ele>
        <time>1989-12-31T00:16:42Z</time>
      </trkpt>
      <trkpt lat="45.34985" lon="4.63357">
        <ele>744.6</ele>
        <time>1989-12-31T00:16:43Z</time>
      </trkpt>
      <trkpt lat="45.34989" lon="4.63364">
        <ele>743.4</ele>
        <time>1989-12-31T00:16:44Z</time>
      </trkpt>
      <trkpt lat="45.35011" lon="4.63384">
        <ele>744</ele>
        <time>1989-12-31T00:16:50Z</time>
      </trkpt>
      <trkpt lat="45.35023" lon="4.63402">
        <ele>742.6</ele>
        <time>1989-12-31T00:16:53Z</time>
      </trkpt>
      <trkpt lat="45.35108" lon="4.63553">
        <ele>732.4</ele>
        <time>1989-12-31T00:17:21Z</time>
      </trkpt>
      <trkpt lat="45.35117" lon="4.63577">
        <ele>731.6</ele>
        <time>1989-12-31T00:17:25Z</time>
      </trkpt>
      <trkpt lat="45.3513" lon="4.6364">
        <ele>727.4</ele>
        <time>1989-12-31T00:17:35Z</time>
      </trkpt>
      <trkpt lat="45.35153" lon="4.63706">
        <ele>725</ele>
        <time>1989-12-31T00:17:46Z</time>
      </trkpt>
      <trkpt lat="45.35166" lon="4.63732">
        <ele>723.4</ele>
        <time>1989-12-31T00:17:50Z</time>
      </trkpt>
      <trkpt lat="45.35174" lon="4.63745">
        <ele>721.6</ele>
        <time>1989-12-31T00:17:53Z</time>
      </trkpt>
      <trkpt lat="45.3519" lon="4.63761">
        <ele>720.4</ele>
        <time>1989-12-31T00:17:57Z</time>
      </trkpt>
      <trkpt lat="45.35207" lon="4.6377">
        <ele>719.2</ele>
        <time>1989-12-31T00:18:01Z</time>
      </trkpt>
      <trkpt lat="45.35223" lon="4.63776">
        <ele>717.6</ele>
        <time>1989-12-31T00:18:04Z</time>
      </trkpt>
      <trkpt lat="45.35241" lon="4.63777">
        <ele>716.6</ele>
        <time>1989-12-31T00:18:08Z</time>
      </trkpt>
      <trkpt lat="45.3529" lon="4.63766">
        <ele>715.2</ele>
        <time>1989-12-31T00:18:18Z</time>
      </trkpt>
      <trkpt lat="45.35325" lon="4.63772">
        <ele>711.4</ele>
        <time>1989-12-31T00:18:26Z</time>
      </trkpt>
      <trkpt lat="45.35358" lon="4.63784">
        <ele>708.8</ele>
        <time>1989-12-31T00:18:33Z</time>
      </trkpt>
      <trkpt lat="45.35391" lon="4.63791">
        <ele>706.8</ele>
        <time>1989-12-31T00:18:40Z</time>
      </trkpt>
      <trkpt lat="45.35402" lon="4.63788">
        <ele>705.8</ele>
        <time>1989-12-31T00:18:42Z</time>
      </trkpt>
      <trkpt lat="45.35419" lon="4.63779">
        <ele>704.6</ele>
        <time>1989-12-31T00:18:46Z</time>
      </trkpt>
      <trkpt lat="45.35437" lon="4.63769">
        <ele>704.2</ele>
        <time>1989-12-31T00:18:50Z</time>
      </trkpt>
      <trkpt lat="45.35459" lon="4.6376">
        <ele>702.8</ele>
        <time>1989-12-31T00:18:54Z</time>
      </trkpt>
      <trkpt lat="45.35514" lon="4.63738">
        <ele>698.8</ele>
        <time>1989-12-31T00:19:06Z</time>
      </trkpt>
      <trkpt lat="45.35555" lon="4.63725">
        <ele>695.8</ele>
        <time>1989-12-31T00:19:15Z</time>
      </trkpt>
      <trkpt lat="45.35619" lon="4.63685">
        <ele>691.2</ele>
        <time>1989-12-31T00:19:30Z</time>
      </trkpt>
      <trkpt lat="45.35674" lon="4.63654">
        <ele>687.6</ele>
        <time>1989-12-31T00:19:42Z</time>
      </trkpt>
      <trkpt lat="45.35695" lon="4.63663">
        <ele>687.4</ele>
        <time>1989-12-31T00:19:46Z</time>
      </trkpt>
      <trkpt lat="45.35731" lon="4.63691">
        <ele>686.4</ele>
        <time>1989-12-31T00:19:55Z</time>
      </trkpt>
      <trkpt lat="45.35759" lon="4.63722">
        <ele>686.8</ele>
        <time>1989-12-31T00:20:02Z</time>
      </trkpt>
      <trkpt lat="45.35782" lon="4.6375">
        <ele>685.4</ele>
        <time>1989-12-31T00:20:08Z</time>
      </trkpt>
      <trkpt lat="45.35795" lon="4.63771">
        <ele>683</ele>
        <time>1989-12-31T00:20:13Z</time>
      </trkpt>
      <trkpt lat="45.35805" lon="4.6379">
        <ele>681.6</ele>
        <time>1989-12-31T00:20:16Z</time>
      </trkpt>
      <trkpt lat="45.3581" lon="4.63806">
        <ele>680.8</ele>
        <time>1989-12-31T00:20:19Z</time>
      </trkpt>
      <trkpt lat="45.35814" lon="4.63818">
        <ele>680.8</ele>
        <time>1989-12-31T00:20:21Z</time>
      </trkpt>
      <trkpt lat="45.35818" lon="4.63847">
        <ele>679.8</ele>
        <time>1989-12-31T00:20:25Z</time>
      </trkpt>
      <trkpt lat="45.35819" lon="4.63875">
        <ele>678.4</ele>
        <time>1989-12-31T00:20:29Z</time>
      </trkpt>
      <trkpt lat="45.3581" lon="4.63956">
        <ele>674.2</ele>
        <time>1989-12-31T00:20:41Z</time>
      </trkpt>
      <trkpt lat="45.35809" lon="4.63965">
        <ele>674</ele>
        <time>1989-12-31T00:20:42Z</time>
      </trkpt>
      <trkpt lat="45.35809" lon="4.64003">
        <ele>671.8</ele>
        <time>1989-12-31T00:20:48Z</time>
      </trkpt>
      <trkpt lat="45.35813" lon="4.64025">
        <ele>671.4</ele>
        <time>1989-12-31T00:20:51Z</time>
      </trkpt>
      <trkpt lat="45.35818" lon="4.64048">
        <ele>670.4</ele>
        <time>1989-12-31T00:20:55Z</time>
      </trkpt>
      <trkpt lat="45.35824" lon="4.64064">
        <ele>669.4</ele>
        <time>1989-12-31T00:20:57Z</time>
      </trkpt>
      <trkpt lat="45.35827" lon="4.64071">
        <ele>668.8</ele>
        <time>1989-12-31T00:20:58Z</time>
      </trkpt>
      <trkpt lat="45.35857" lon="4.64108">
        <ele>666.2</ele>
        <time>1989-12-31T00:21:07Z</time>
      </trkpt>
      <trkpt lat="45.35926" lon="4.64161">
        <ele>661.8</ele>
        <time>1989-12-31T00:21:23Z</time>
      </trkpt>
      <trkpt lat="45.35943" lon="4.64203">
        <ele>658.4</ele>
        <time>1989-12-31T00:21:30Z</time>
      </trkpt>
      <trkpt lat="45.35962" lon="4.64242">
        <ele>654.6</ele>
        <time>1989-12-31T00:21:37Z</time>
      </trkpt>
      <trkpt lat="45.35988" lon="4.6428">
        <ele>654.4</ele>
        <time>1989-12-31T00:21:45Z</time>
      </trkpt>
      <trkpt lat="45.36031" lon="4.6434">
        <ele>649</ele>
        <time>1989-12-31T00:21:57Z</time>
      </trkpt>
      <trkpt lat="45.3605" lon="4.64358">
        <ele>647.2</ele>
        <time>1989-12-31T00:22:02Z</time>
      </trkpt>
      <trkpt lat="45.36067" lon="4.64366">
        <ele>646</ele>
        <time>1989-12-31T00:22:06Z</time>
      </trkpt>
      <trkpt lat="45.36147" lon="4.64366">
        <ele>642.8</ele>
        <time>1989-12-31T00:22:22Z</time>
      </trkpt>
      <trkpt lat="45.36263" lon="4.64338">
        <ele>636.4</ele>
        <time>1989-12-31T00:22:47Z</time>
      </trkpt>
      <trkpt lat="45.36296" lon="4.64319">
        <ele>635.6</ele>
        <time>1989-12-31T00:22:54Z</time>
      </trkpt>
      <trkpt lat="45.36323" lon="4.643">
        <ele>633.8</ele>
        <time>1989-12-31T00:23:00Z</time>
      </trkpt>
      <trkpt lat="45.36338" lon="4.64293">
        <ele>632.4</ele>
        <time>1989-12-31T00:23:04Z</time>
      </trkpt>
      <trkpt lat="45.36351" lon="4.64289">
        <ele>631.8</ele>
        <time>1989-12-31T00:23:06Z</time>
      </trkpt>
      <trkpt lat="45.36363" lon="4.64289">
        <ele>631</ele>
        <time>1989-12-31T00:23:09Z</time>
      </trkpt>
      <trkpt lat="45.3637" lon="4.64293">
        <ele>631.2</ele>
        <time>1989-12-31T00:23:10Z</time>
      </trkpt>
      <trkpt lat="45.36378" lon="4.64301">
        <ele>631.2</ele>
        <time>1989-12-31T00:23:12Z</time>
      </trkpt>
      <trkpt lat="45.36385" lon="4.64314">
        <ele>631</ele>
        <time>1989-12-31T00:23:15Z</time>
      </trkpt>
      <trkpt lat="45.36388" lon="4.64333">
        <ele>630</ele>
        <time>1989-12-31T00:23:18Z</time>
      </trkpt>
      <trkpt lat="45.3639" lon="4.64356">
        <ele>629.4</ele>
        <time>1989-12-31T00:23:21Z</time>
      </trkpt>
      <trkpt lat="45.36385" lon="4.64435">
        <ele>625.6</ele>
        <time>1989-12-31T00:23:33Z</time>
      </trkpt>
      <trkpt lat="45.36383" lon="4.6445">
        <ele>625</ele>
        <time>1989-12-31T00:23:35Z</time>
      </trkpt>
      <trkpt lat="45.36379" lon="4.64471">
        <ele>624</ele>
        <time>1989-12-31T00:23:38Z</time>
      </trkpt>
      <trkpt lat="45.36343" lon="4.64597">
        <ele>618.8</ele>
        <time>1989-12-31T00:23:58Z</time>
      </trkpt>
      <trkpt lat="45.36336" lon="4.64631">
        <ele>617.8</ele>
        <time>1989-12-31T00:24:03Z</time>
      </trkpt>
      <trkpt lat="45.36332" lon="4.64657">
        <ele>617.2</ele>
        <time>1989-12-31T00:24:07Z</time>
      </trkpt>
      <trkpt lat="45.36331" lon="4.64683">
        <ele>616</ele>
        <time>1989-12-31T00:24:11Z</time>
      </trkpt>
      <trkpt lat="45.36337" lon="4.64728">
        <ele>613.8</ele>
        <time>1989-12-31T00:24:17Z</time>
      </trkpt>
      <trkpt lat="45.36344" lon="4.64758">
        <ele>613.2</ele>
        <time>1989-12-31T00:24:22Z</time>
      </trkpt>
      <trkpt lat="45.3638" lon="4.64871">
        <ele>609.2</ele>
        <time>1989-12-31T00:24:40Z</time>
      </trkpt>
      <trkpt lat="45.36388" lon="4.64904">
        <ele>608.6</ele>
        <time>1989-12-31T00:24:45Z</time>
      </trkpt>
      <trkpt lat="45.36395" lon="4.64945">
        <ele>606.6</ele>
        <time>1989-12-31T00:24:51Z</time>
      </trkpt>
      <trkpt lat="45.364" lon="4.64998">
        <ele>603</ele>
        <time>1989-12-31T00:24:59Z</time>
      </trkpt>
      <trkpt lat="45.36401" lon="4.65023">
        <ele>602.2</ele>
        <time>1989-12-31T00:25:03Z</time>
      </trkpt>
      <trkpt lat="45.364" lon="4.65141">
        <ele>598.8</ele>
        <time>1989-12-31T00:25:20Z</time>
      </trkpt>
      <trkpt lat="45.36405" lon="4.65162">
        <ele>597.4</ele>
        <time>1989-12-31T00:25:23Z</time>
      </trkpt>
      <trkpt lat="45.36411" lon="4.65174">
        <ele>596.6</ele>
        <time>1989-12-31T00:25:25Z</time>
      </trkpt>
      <trkpt lat="45.36418" lon="4.65181">
        <ele>596.6</ele>
        <time>1989-12-31T00:25:27Z</time>
      </trkpt>
      <trkpt lat="45.36427" lon="4.65187">
        <ele>596</ele>
        <time>1989-12-31T00:25:29Z</time>
      </trkpt>
      <trkpt lat="45.36439" lon="4.65191">
        <ele>595.6</ele>
        <time>1989-12-31T00:25:32Z</time>
      </trkpt>
      <trkpt lat="45.36678" lon="4.65251">
        <ele>582.6</ele>
        <time>1989-12-31T00:26:22Z</time>
      </trkpt>
      <trkpt lat="45.36696" lon="4.65256">
        <ele>581.4</ele>
        <time>1989-12-31T00:26:26Z</time>
      </trkpt>
      <trkpt lat="45.36699" lon="4.65258">
        <ele>581.4</ele>
        <time>1989-12-31T00:26:27Z</time>
      </trkpt>
      <trkpt lat="45.36707" lon="4.65268">
        <ele>581.2</ele>
        <time>1989-12-31T00:26:29Z</time>
      </trkpt>
      <trkpt lat="45.36711" lon="4.65279">
        <ele>581.4</ele>
        <time>1989-12-31T00:26:31Z</time>
      </trkpt>
      <trkpt lat="45.36714" lon="4.65314">
        <ele>581</ele>
        <time>1989-12-31T00:26:36Z</time>
      </trkpt>
      <trkpt lat="45.36713" lon="4.65417">
        <ele>577.4</ele>
        <time>1989-12-31T00:26:51Z</time>
      </trkpt>
      <trkpt lat="45.36713" lon="4.65424">
        <ele>576.8</ele>
        <time>1989-12-31T00:26:52Z</time>
      </trkpt>
      <trkpt lat="45.36715" lon="4.65436">
        <ele>576.2</ele>
        <time>1989-12-31T00:26:54Z</time>
      </trkpt>
      <trkpt lat="45.36718" lon="4.65444">
        <ele>575.8</ele>
        <time>1989-12-31T00:26:55Z</time>
      </trkpt>
      <trkpt lat="45.36738" lon="4.65475">
        <ele>575</ele>
        <time>1989-12-31T00:27:01Z</time>
      </trkpt>
      <trkpt lat="45.36745" lon="4.65488">
        <ele>574.4</ele>
        <time>1989-12-31T00:27:04Z</time>
      </trkpt>
      <trkpt lat="45.36749" lon="4.65504">
        <ele>573.8</ele>
        <time>1989-12-31T00:27:06Z</time>
      </trkpt>
      <trkpt lat="45.3675" lon="4.65523">
        <ele>572.4</ele>
        <time>1989-12-31T00:27:09Z</time>
      </trkpt>
      <trkpt lat="45.36749" lon="4.65572">
        <ele>570.4</ele>
        <time>1989-12-31T00:27:16Z</time>
      </trkpt>
      <trkpt lat="45.36751" lon="4.65592">
        <ele>569.8</ele>
        <time>1989-12-31T00:27:19Z</time>
      </trkpt>
      <trkpt lat="45.36755" lon="4.65613">
        <ele>569.4</ele>
        <time>1989-12-31T00:27:22Z</time>
      </trkpt>
      <trkpt lat="45.36765" lon="4.6564">
        <ele>569</ele>
        <time>1989-12-31T00:27:27Z</time>
      </trkpt>
      <trkpt lat="45.36799" lon="4.65716">
        <ele>565.8</ele>
        <time>1989-12-31T00:27:40Z</time>
      </trkpt>
      <trkpt lat="45.36814" lon="4.65759">
        <ele>565.4</ele>
        <time>1989-12-31T00:27:47Z</time>
      </trkpt>
      <trkpt lat="45.3682" lon="4.65782">
        <ele>565.6</ele>
        <time>1989-12-31T00:27:50Z</time>
      </trkpt>
      <trkpt lat="45.36823" lon="4.65804">
        <ele>565.6</ele>
        <time>1989-12-31T00:27:54Z</time>
      </trkpt>
      <trkpt lat="45.3683" lon="4.65916">
        <ele>563.8</ele>
        <time>1989-12-31T00:28:10Z</time>
      </trkpt>
      <trkpt lat="45.3683" lon="4.65926">
        <ele>563.8</ele>
        <time>1989-12-31T00:28:11Z</time>
      </trkpt>
      <trkpt lat="45.36829" lon="4.65942">
        <ele>563.6</ele>
        <time>1989-12-31T00:28:14Z</time>
      </trkpt>
      <trkpt lat="45.36824" lon="4.65964">
        <ele>563</ele>
        <time>1989-12-31T00:28:17Z</time>
      </trkpt>
      <trkpt lat="45.36821" lon="4.65997">
        <ele>563.2</ele>
        <time>1989-12-31T00:28:22Z</time>
      </trkpt>
      <trkpt lat="45.3682" lon="4.66012">
        <ele>563.2</ele>
        <time>1989-12-31T00:28:24Z</time>
      </trkpt>
      <trkpt lat="45.36817" lon="4.66031">
        <ele>562.6</ele>
        <time>1989-12-31T00:28:27Z</time>
      </trkpt>
      <trkpt lat="45.36815" lon="4.66061">
        <ele>562.4</ele>
        <time>1989-12-31T00:28:31Z</time>
      </trkpt>
      <trkpt lat="45.36811" lon="4.66061">
        <ele>562</ele>
        <time>1989-12-31T00:28:32Z</time>
      </trkpt>
      <trkpt lat="45.36807" lon="4.6607">
        <ele>562.2</ele>
        <time>1989-12-31T00:28:34Z</time>
      </trkpt>
      <trkpt lat="45.36766" lon="4.66136">
        <ele>560.6</ele>
        <time>1989-12-31T00:28:47Z</time>
      </trkpt>
      <trkpt lat="45.36762" lon="4.66144">
        <ele>560.4</ele>
        <time>1989-12-31T00:28:48Z</time>
      </trkpt>
      <trkpt lat="45.3676" lon="4.66153">
        <ele>560.2</ele>
        <time>1989-12-31T00:28:49Z</time>
      </trkpt>
      <trkpt lat="45.36758" lon="4.66159">
        <ele>560</ele>
        <time>1989-12-31T00:28:50Z</time>
      </trkpt>
      <trkpt lat="45.36758" lon="4.66188">
        <ele>561</ele>
        <time>1989-12-31T00:28:55Z</time>
      </trkpt>
      <trkpt lat="45.36759" lon="4.662">
        <ele>561.4</ele>
        <time>1989-12-31T00:28:56Z</time>
      </trkpt>
      <trkpt lat="45.36751" lon="4.66203">
        <ele>560.2</ele>
        <time>1989-12-31T00:28:58Z</time>
      </trkpt>
      <trkpt lat="45.3675" lon="4.6619">
        <ele>559.8</ele>
        <time>1989-12-31T00:29:00Z</time>
      </trkpt>
      <trkpt lat="45.36743" lon="4.66158">
        <ele>558.2</ele>
        <time>1989-12-31T00:29:05Z</time>
      </trkpt>
      <trkpt lat="45.3673" lon="4.66127">
        <ele>556.4</ele>
        <time>1989-12-31T00:29:10Z</time>
      </trkpt>
      <trkpt lat="45.36683" lon="4.66015">
        <ele>551.8</ele>
        <time>1989-12-31T00:29:29Z</time>
      </trkpt>
      <trkpt lat="45.36674" lon="4.66">
        <ele>550.8</ele>
        <time>1989-12-31T00:29:32Z</time>
      </trkpt>
      <trkpt lat="45.36627" lon="4.65951">
        <ele>547.2</ele>
        <time>1989-12-31T00:29:44Z</time>
      </trkpt>
      <trkpt lat="45.36576" lon="4.65901">
        <ele>543</ele>
        <time>1989-12-31T00:29:57Z</time>
      </trkpt>
      <trkpt lat="45.36563" lon="4.65896">
        <ele>542.4</ele>
        <time>1989-12-31T00:30:00Z</time>
      </trkpt>
      <trkpt lat="45.36548" lon="4.659">
        <ele>541</ele>
        <time>1989-12-31T00:30:03Z</time>
      </trkpt>
      <trkpt lat="45.3653" lon="4.65911">
        <ele>539.2</ele>
        <time>1989-12-31T00:30:07Z</time>
      </trkpt>
      <trkpt lat="45.36483" lon="4.65946">
        <ele>536.4</ele>
        <time>1989-12-31T00:30:18Z</time>
      </trkpt>
      <trkpt lat="45.36471" lon="4.65959">
        <ele>535.6</ele>
        <time>1989-12-31T00:30:21Z</time>
      </trkpt>
      <trkpt lat="45.36442" lon="4.66025">
        <ele>534</ele>
        <time>1989-12-31T00:30:32Z</time>
      </trkpt>
      <trkpt lat="45.3643" lon="4.66037">
        <ele>533.4</ele>
        <time>1989-12-31T00:30:36Z</time>
      </trkpt>
      <trkpt lat="45.36416" lon="4.66042">
        <ele>532.4</ele>
        <time>1989-12-31T00:30:39Z</time>
      </trkpt>
      <trkpt lat="45.36404" lon="4.66041">
        <ele>531.6</ele>
        <time>1989-12-31T00:30:41Z</time>
      </trkpt>
      <trkpt lat="45.36342" lon="4.66021">
        <ele>528</ele>
        <time>1989-12-31T00:30:54Z</time>
      </trkpt>
      <trkpt lat="45.36318" lon="4.66018">
        <ele>526.2</ele>
        <time>1989-12-31T00:30:59Z</time>
      </trkpt>
      <trkpt lat="45.36296" lon="4.66019">
        <ele>524.8</ele>
        <time>1989-12-31T00:31:04Z</time>
      </trkpt>
      <trkpt lat="45.36282" lon="4.66025">
        <ele>524.2</ele>
        <time>1989-12-31T00:31:07Z</time>
      </trkpt>
      <trkpt lat="45.36273" lon="4.66036">
        <ele>523.2</ele>
        <time>1989-12-31T00:31:09Z</time>
      </trkpt>
      <trkpt lat="45.36268" lon="4.66053">
        <ele>522</ele>
        <time>1989-12-31T00:31:12Z</time>
      </trkpt>
      <trkpt lat="45.3627" lon="4.66075">
        <ele>520.8</ele>
        <time>1989-12-31T00:31:15Z</time>
      </trkpt>
      <trkpt lat="45.36292" lon="4.66165">
        <ele>517.2</ele>
        <time>1989-12-31T00:31:29Z</time>
      </trkpt>
      <trkpt lat="45.36294" lon="4.66192">
        <ele>516</ele>
        <time>1989-12-31T00:31:33Z</time>
      </trkpt>
      <trkpt lat="45.36294" lon="4.66242">
        <ele>513.2</ele>
        <time>1989-12-31T00:31:40Z</time>
      </trkpt>
      <trkpt lat="45.36294" lon="4.6626">
        <ele>512.2</ele>
        <time>1989-12-31T00:31:43Z</time>
      </trkpt>
      <trkpt lat="45.36297" lon="4.6628">
        <ele>511.2</ele>
        <time>1989-12-31T00:31:46Z</time>
      </trkpt>
      <trkpt lat="45.36304" lon="4.66295">
        <ele>510.8</ele>
        <time>1989-12-31T00:31:49Z</time>
      </trkpt>
      <trkpt lat="45.36321" lon="4.66323">
        <ele>509.4</ele>
        <time>1989-12-31T00:31:54Z</time>
      </trkpt>
      <trkpt lat="45.36331" lon="4.66346">
        <ele>508</ele>
        <time>1989-12-31T00:31:58Z</time>
      </trkpt>
      <trkpt lat="45.36335" lon="4.66367">
        <ele>507.4</ele>
        <time>1989-12-31T00:32:01Z</time>
      </trkpt>
      <trkpt lat="45.36332" lon="4.66395">
        <ele>506.6</ele>
        <time>1989-12-31T00:32:05Z</time>
      </trkpt>
      <trkpt lat="45.36325" lon="4.66425">
        <ele>504.6</ele>
        <time>1989-12-31T00:32:10Z</time>
      </trkpt>
      <trkpt lat="45.36321" lon="4.66457">
        <ele>502.8</ele>
        <time>1989-12-31T00:32:15Z</time>
      </trkpt>
      <trkpt lat="45.36318" lon="4.66479">
        <ele>501.8</ele>
        <time>1989-12-31T00:32:18Z</time>
      </trkpt>
      <trkpt lat="45.36313" lon="4.66531">
        <ele>500</ele>
        <time>1989-12-31T00:32:26Z</time>
      </trkpt>
      <trkpt lat="45.36309" lon="4.6656">
        <ele>498.2</ele>
        <time>1989-12-31T00:32:30Z</time>
      </trkpt>
      <trkpt lat="45.363" lon="4.66577">
        <ele>496.8</ele>
        <time>1989-12-31T00:32:33Z</time>
      </trkpt>
      <trkpt lat="45.36287" lon="4.66588">
        <ele>495.6</ele>
        <time>1989-12-31T00:32:36Z</time>
      </trkpt>
      <trkpt lat="45.36277" lon="4.66592">
        <ele>494.6</ele>
        <time>1989-12-31T00:32:38Z</time>
      </trkpt>
      <trkpt lat="45.36254" lon="4.66592">
        <ele>493.2</ele>
        <time>1989-12-31T00:32:43Z</time>
      </trkpt>
      <trkpt lat="45.36241" lon="4.6659">
        <ele>492.4</ele>
        <time>1989-12-31T00:32:46Z</time>
      </trkpt>
      <trkpt lat="45.3623" lon="4.66594">
        <ele>491.8</ele>
        <time>1989-12-31T00:32:48Z</time>
      </trkpt>
      <trkpt lat="45.36221" lon="4.66605">
        <ele>491.6</ele>
        <time>1989-12-31T00:32:51Z</time>
      </trkpt>
      <trkpt lat="45.36213" lon="4.66623">
        <ele>490.6</ele>
        <time>1989-12-31T00:32:54Z</time>
      </trkpt>
      <trkpt lat="45.36211" lon="4.66644">
        <ele>489.6</ele>
        <time>1989-12-31T00:32:57Z</time>
      </trkpt>
      <trkpt lat="45.36216" lon="4.66674">
        <ele>488.2</ele>
        <time>1989-12-31T00:33:01Z</time>
      </trkpt>
      <trkpt lat="45.36227" lon="4.66707">
        <ele>487.4</ele>
        <time>1989-12-31T00:33:07Z</time>
      </trkpt>
      <trkpt lat="45.36231" lon="4.6673">
        <ele>486.8</ele>
        <time>1989-12-31T00:33:10Z</time>
      </trkpt>
      <trkpt lat="45.36232" lon="4.66759">
        <ele>484.8</ele>
        <time>1989-12-31T00:33:14Z</time>
      </trkpt>
      <trkpt lat="45.36236" lon="4.66815">
        <ele>482.6</ele>
        <time>1989-12-31T00:33:22Z</time>
      </trkpt>
      <trkpt lat="45.36237" lon="4.66825">
        <ele>482</ele>
        <time>1989-12-31T00:33:24Z</time>
      </trkpt>
      <trkpt lat="45.36238" lon="4.66842">
        <ele>481</ele>
        <time>1989-12-31T00:33:26Z</time>
      </trkpt>
      <trkpt lat="45.36262" lon="4.66884">
        <ele>479.8</ele>
        <time>1989-12-31T00:33:34Z</time>
      </trkpt>
      <trkpt lat="45.36305" lon="4.66955">
        <ele>476.2</ele>
        <time>1989-12-31T00:33:48Z</time>
      </trkpt>
      <trkpt lat="45.36327" lon="4.66988">
        <ele>475.6</ele>
        <time>1989-12-31T00:33:55Z</time>
      </trkpt>
      <trkpt lat="45.36397" lon="4.67084">
        <ele>469.2</ele>
        <time>1989-12-31T00:34:15Z</time>
      </trkpt>
      <trkpt lat="45.36424" lon="4.67121">
        <ele>467.4</ele>
        <time>1989-12-31T00:34:23Z</time>
      </trkpt>
      <trkpt lat="45.36448" lon="4.67126">
        <ele>468.2</ele>
        <time>1989-12-31T00:34:28Z</time>
      </trkpt>
      <trkpt lat="45.36457" lon="4.67123">
        <ele>469.6</ele>
        <time>1989-12-31T00:34:30Z</time>
      </trkpt>
      <trkpt lat="45.36477" lon="4.67129">
        <ele>470</ele>
        <time>1989-12-31T00:34:34Z</time>
      </trkpt>
      <trkpt lat="45.36522" lon="4.67142">
        <ele>469.6</ele>
        <time>1989-12-31T00:34:43Z</time>
      </trkpt>
      <trkpt lat="45.36545" lon="4.67135">
        <ele>469.4</ele>
        <time>1989-12-31T00:34:48Z</time>
      </trkpt>
      <trkpt lat="45.3655" lon="4.67134">
        <ele>469.2</ele>
        <time>1989-12-31T00:34:49Z</time>
      </trkpt>
      <trkpt lat="45.36593" lon="4.67128">
        <ele>469.6</ele>
        <time>1989-12-31T00:34:58Z</time>
      </trkpt>
      <trkpt lat="45.36636" lon="4.67125">
        <ele>469.2</ele>
        <time>1989-12-31T00:35:07Z</time>
      </trkpt>
      <trkpt lat="45.36647" lon="4.67126">
        <ele>469</ele>
        <time>1989-12-31T00:35:09Z</time>
      </trkpt>
      <trkpt lat="45.36663" lon="4.67135">
        <ele>468.2</ele>
        <time>1989-12-31T00:35:13Z</time>
      </trkpt>
      <trkpt lat="45.36685" lon="4.67158">
        <ele>467.6</ele>
        <time>1989-12-31T00:35:19Z</time>
      </trkpt>
      <trkpt lat="45.36704" lon="4.67185">
        <ele>466.6</ele>
        <time>1989-12-31T00:35:24Z</time>
      </trkpt>
      <trkpt lat="45.36732" lon="4.67198">
        <ele>467.8</ele>
        <time>1989-12-31T00:35:30Z</time>
      </trkpt>
      <trkpt lat="45.3678" lon="4.67214">
        <ele>470</ele>
        <time>1989-12-31T00:35:41Z</time>
      </trkpt>
      <trkpt lat="45.36794" lon="4.6723">
        <ele>471.4</ele>
        <time>1989-12-31T00:35:44Z</time>
      </trkpt>
      <trkpt lat="45.36807" lon="4.67249">
        <ele>472.4</ele>
        <time>1989-12-31T00:35:48Z</time>
      </trkpt>
      <trkpt lat="45.36815" lon="4.67262">
        <ele>472.8</ele>
        <time>1989-12-31T00:35:51Z</time>
      </trkpt>
      <trkpt lat="45.36821" lon="4.6727">
        <ele>473.4</ele>
        <time>1989-12-31T00:35:52Z</time>
      </trkpt>
      <trkpt lat="45.36841" lon="4.67297">
        <ele>474.2</ele>
        <time>1989-12-31T00:35:58Z</time>
      </trkpt>
      <trkpt lat="45.36857" lon="4.67336">
        <ele>474.8</ele>
        <time>1989-12-31T00:36:05Z</time>
      </trkpt>
      <trkpt lat="45.36875" lon="4.67399">
        <ele>472.6</ele>
        <time>1989-12-31T00:36:15Z</time>
      </trkpt>
      <trkpt lat="45.36879" lon="4.67429">
        <ele>471.2</ele>
        <time>1989-12-31T00:36:19Z</time>
      </trkpt>
      <trkpt lat="45.36881" lon="4.67452">
        <ele>469.8</ele>
        <time>1989-12-31T00:36:22Z</time>
      </trkpt>
      <trkpt lat="45.36881" lon="4.67454">
        <ele>469.6</ele>
        <time>1989-12-31T00:36:23Z</time>
      </trkpt>
      <trkpt lat="45.36887" lon="4.67473">
        <ele>468.8</ele>
        <time>1989-12-31T00:36:26Z</time>
      </trkpt>
      <trkpt lat="45.36898" lon="4.67507">
        <ele>470.4</ele>
        <time>1989-12-31T00:36:31Z</time>
      </trkpt>
      <trkpt lat="45.36903" lon="4.6753">
        <ele>470.4</ele>
        <time>1989-12-31T00:36:35Z</time>
      </trkpt>
      <trkpt lat="45.36901" lon="4.67547">
        <ele>468.4</ele>
        <time>1989-12-31T00:36:37Z</time>
      </trkpt>
      <trkpt lat="45.3689" lon="4.67579">
        <ele>465.2</ele>
        <time>1989-12-31T00:36:42Z</time>
      </trkpt>
      <trkpt lat="45.36889" lon="4.67581">
        <ele>465</ele>
        <time>1989-12-31T00:36:43Z</time>
      </trkpt>
      <trkpt lat="45.36884" lon="4.67587">
        <ele>464.4</ele>
        <time>1989-12-31T00:36:44Z</time>
      </trkpt>
      <trkpt lat="45.36746" lon="4.6772">
        <ele>449.6</ele>
        <time>1989-12-31T00:37:19Z</time>
      </trkpt>
      <trkpt lat="45.3672" lon="4.67742">
        <ele>445.4</ele>
        <time>1989-12-31T00:37:25Z</time>
      </trkpt>
      <trkpt lat="45.36664" lon="4.67851">
        <ele>438</ele>
        <time>1989-12-31T00:37:45Z</time>
      </trkpt>
      <trkpt lat="45.36651" lon="4.67875">
        <ele>435.4</ele>
        <time>1989-12-31T00:37:49Z</time>
      </trkpt>
      <trkpt lat="45.36624" lon="4.67926">
        <ele>430</ele>
        <time>1989-12-31T00:37:59Z</time>
      </trkpt>
      <trkpt lat="45.36616" lon="4.67942">
        <ele>428</ele>
        <time>1989-12-31T00:38:01Z</time>
      </trkpt>
      <trkpt lat="45.36609" lon="4.67956">
        <ele>426</ele>
        <time>1989-12-31T00:38:04Z</time>
      </trkpt>
      <trkpt lat="45.36576" lon="4.68018">
        <ele>421</ele>
        <time>1989-12-31T00:38:15Z</time>
      </trkpt>
      <trkpt lat="45.36566" lon="4.68035">
        <ele>420.4</ele>
        <time>1989-12-31T00:38:18Z</time>
      </trkpt>
      <trkpt lat="45.36553" lon="4.68058">
        <ele>420</ele>
        <time>1989-12-31T00:38:23Z</time>
      </trkpt>
      <trkpt lat="45.36541" lon="4.68078">
        <ele>418.8</ele>
        <time>1989-12-31T00:38:27Z</time>
      </trkpt>
      <trkpt lat="45.36518" lon="4.68114">
        <ele>417</ele>
        <time>1989-12-31T00:38:34Z</time>
      </trkpt>
      <trkpt lat="45.36511" lon="4.68132">
        <ele>416.2</ele>
        <time>1989-12-31T00:38:37Z</time>
      </trkpt>
      <trkpt lat="45.36505" lon="4.68158">
        <ele>414</ele>
        <time>1989-12-31T00:38:41Z</time>
      </trkpt>
      <trkpt lat="45.36497" lon="4.6818">
        <ele>412.6</ele>
        <time>1989-12-31T00:38:44Z</time>
      </trkpt>
      <trkpt lat="45.36478" lon="4.68213">
        <ele>411.6</ele>
        <time>1989-12-31T00:38:51Z</time>
      </trkpt>
      <trkpt lat="45.3647" lon="4.68228">
        <ele>410.8</ele>
        <time>1989-12-31T00:38:53Z</time>
      </trkpt>
      <trkpt lat="45.36464" lon="4.6824">
        <ele>410.4</ele>
        <time>1989-12-31T00:38:55Z</time>
      </trkpt>
      <trkpt lat="45.36465" lon="4.68244">
        <ele>410.2</ele>
        <time>1989-12-31T00:38:56Z</time>
      </trkpt>
      <trkpt lat="45.36457" lon="4.68245">
        <ele>410.2</ele>
        <time>1989-12-31T00:38:58Z</time>
      </trkpt>
      <trkpt lat="45.36447" lon="4.68249">
        <ele>410</ele>
        <time>1989-12-31T00:39:00Z</time>
      </trkpt>
      <trkpt lat="45.36423" lon="4.68264">
        <ele>409.2</ele>
        <time>1989-12-31T00:39:05Z</time>
      </trkpt>
      <trkpt lat="45.36416" lon="4.68271">
        <ele>409</ele>
        <time>1989-12-31T00:39:07Z</time>
      </trkpt>
      <trkpt lat="45.36411" lon="4.68275">
        <ele>408.8</ele>
        <time>1989-12-31T00:39:08Z</time>
      </trkpt>
      <trkpt lat="45.36405" lon="4.68282">
        <ele>408.6</ele>
        <time>1989-12-31T00:39:10Z</time>
      </trkpt>
      <trkpt lat="45.36398" lon="4.6829">
        <ele>408.2</ele>
        <time>1989-12-31T00:39:12Z</time>
      </trkpt>
      <trkpt lat="45.36369" lon="4.68328">
        <ele>407.2</ele>
        <time>1989-12-31T00:39:20Z</time>
      </trkpt>
      <trkpt lat="45.36351" lon="4.68351">
        <ele>406.8</ele>
        <time>1989-12-31T00:39:25Z</time>
      </trkpt>
      <trkpt lat="45.36335" lon="4.68374">
        <ele>406.6</ele>
        <time>1989-12-31T00:39:30Z</time>
      </trkpt>
      <trkpt lat="45.36316" lon="4.68406">
        <ele>405.8</ele>
        <time>1989-12-31T00:39:36Z</time>
      </trkpt>
      <trkpt lat="45.36307" lon="4.6842">
        <ele>406</ele>
        <time>1989-12-31T00:39:39Z</time>
      </trkpt>
      <trkpt lat="45.36301" lon="4.68431">
        <ele>406</ele>
        <time>1989-12-31T00:39:41Z</time>
      </trkpt>
      <trkpt lat="45.36289" lon="4.68447">
        <ele>406</ele>
        <time>1989-12-31T00:39:44Z</time>
      </trkpt>
      <trkpt lat="45.36286" lon="4.68456">
        <ele>405.6</ele>
        <time>1989-12-31T00:39:45Z</time>
      </trkpt>
      <trkpt lat="45.36284" lon="4.68469">
        <ele>405.2</ele>
        <time>1989-12-31T00:39:47Z</time>
      </trkpt>
      <trkpt lat="45.36282" lon="4.68483">
        <ele>404.8</ele>
        <time>1989-12-31T00:39:49Z</time>
      </trkpt>
      <trkpt lat="45.3628" lon="4.68486">
        <ele>404.6</ele>
        <time>1989-12-31T00:39:50Z</time>
      </trkpt>
      <trkpt lat="45.36249" lon="4.6852">
        <ele>404</ele>
        <time>1989-12-31T00:39:58Z</time>
      </trkpt>
      <trkpt lat="45.36245" lon="4.68524">
        <ele>403.6</ele>
        <time>1989-12-31T00:39:59Z</time>
      </trkpt>
      <trkpt lat="45.36237" lon="4.68514">
        <ele>403.2</ele>
        <time>1989-12-31T00:40:01Z</time>
      </trkpt>
      <trkpt lat="45.3623" lon="4.68508">
        <ele>403</ele>
        <time>1989-12-31T00:40:03Z</time>
      </trkpt>
      <trkpt lat="45.36225" lon="4.68503">
        <ele>403</ele>
        <time>1989-12-31T00:40:04Z</time>
      </trkpt>
      <trkpt lat="45.36221" lon="4.685">
        <ele>403</ele>
        <time>1989-12-31T00:40:05Z</time>
      </trkpt>
      <trkpt lat="45.36216" lon="4.68497">
        <ele>403</ele>
        <time>1989-12-31T00:40:07Z</time>
      </trkpt>
      <trkpt lat="45.36208" lon="4.68503">
        <ele>402.4</ele>
        <time>1989-12-31T00:40:09Z</time>
      </trkpt>
      <trkpt lat="45.36201" lon="4.68505">
        <ele>402</ele>
        <time>1989-12-31T00:40:10Z</time>
      </trkpt>
      <trkpt lat="45.36196" lon="4.68506">
        <ele>401.6</ele>
        <time>1989-12-31T00:40:11Z</time>
      </trkpt>
      <trkpt lat="45.36191" lon="4.68507">
        <ele>401.6</ele>
        <time>1989-12-31T00:40:12Z</time>
      </trkpt>
      <trkpt lat="45.36171" lon="4.68512">
        <ele>402</ele>
        <time>1989-12-31T00:40:16Z</time>
      </trkpt>
      <trkpt lat="45.36158" lon="4.68514">
        <ele>401.8</ele>
        <time>1989-12-31T00:40:19Z</time>
      </trkpt>
      <trkpt lat="45.36149" lon="4.68517">
        <ele>401.6</ele>
        <time>1989-12-31T00:40:21Z</time>
      </trkpt>
      <trkpt lat="45.36141" lon="4.68519">
        <ele>401.4</ele>
        <time>1989-12-31T00:40:23Z</time>
      </trkpt>
      <trkpt lat="45.36134" lon="4.68521">
        <ele>401.2</ele>
        <time>1989-12-31T00:40:24Z</time>
      </trkpt>
      <trkpt lat="45.36117" lon="4.68525">
        <ele>401.2</ele>
        <time>1989-12-31T00:40:28Z</time>
      </trkpt>
      <trkpt lat="45.3611" lon="4.68526">
        <ele>401.2</ele>
        <time>1989-12-31T00:40:29Z</time>
      </trkpt>
      <trkpt lat="45.36075" lon="4.68521">
        <ele>401.6</ele>
        <time>1989-12-31T00:40:37Z</time>
      </trkpt>
      <trkpt lat="45.36053" lon="4.68518">
        <ele>402.4</ele>
        <time>1989-12-31T00:40:41Z</time>
      </trkpt>
      <trkpt lat="45.36043" lon="4.68515">
        <ele>402.6</ele>
        <time>1989-12-31T00:40:43Z</time>
      </trkpt>
      <trkpt lat="45.36023" lon="4.68507">
        <ele>402.8</ele>
        <time>1989-12-31T00:40:48Z</time>
      </trkpt>
      <trkpt lat="45.35996" lon="4.68494">
        <ele>403.2</ele>
        <time>1989-12-31T00:40:54Z</time>
      </trkpt>
      <trkpt lat="45.35989" lon="4.6849">
        <ele>403.2</ele>
        <time>1989-12-31T00:40:55Z</time>
      </trkpt>
      <trkpt lat="45.35971" lon="4.68481">
        <ele>403.4</ele>
        <time>1989-12-31T00:40:59Z</time>
      </trkpt>
      <trkpt lat="45.35939" lon="4.68462">
        <ele>403.2</ele>
        <time>1989-12-31T00:41:06Z</time>
      </trkpt>
      <trkpt lat="45.35934" lon="4.6846">
        <ele>403.2</ele>
        <time>1989-12-31T00:41:07Z</time>
      </trkpt>
      <trkpt lat="45.35927" lon="4.68457">
        <ele>403.4</ele>
        <time>1989-12-31T00:41:09Z</time>
      </trkpt>
      <trkpt lat="45.3592" lon="4.68456">
        <ele>403.2</ele>
        <time>1989-12-31T00:41:10Z</time>
      </trkpt>
      <trkpt lat="45.35899" lon="4.68456">
        <ele>402.8</ele>
        <time>1989-12-31T00:41:15Z</time>
      </trkpt>
      <trkpt lat="45.35892" lon="4.68455">
        <ele>402.8</ele>
        <time>1989-12-31T00:41:16Z</time>
      </trkpt>
      <trkpt lat="45.35876" lon="4.68448">
        <ele>403</ele>
        <time>1989-12-31T00:41:20Z</time>
      </trkpt>
      <trkpt lat="45.35864" lon="4.68442">
        <ele>403.2</ele>
        <time>1989-12-31T00:41:22Z</time>
      </trkpt>
      <trkpt lat="45.35856" lon="4.68435">
        <ele>403.4</ele>
        <time>1989-12-31T00:41:24Z</time>
      </trkpt>
      <trkpt lat="45.35848" lon="4.68428">
        <ele>403.6</ele>
        <time>1989-12-31T00:41:26Z</time>
      </trkpt>
      <trkpt lat="45.35841" lon="4.6842">
        <ele>404</ele>
        <time>1989-12-31T00:41:28Z</time>
      </trkpt>
      <trkpt lat="45.35834" lon="4.68411">
        <ele>404</ele>
        <time>1989-12-31T00:41:30Z</time>
      </trkpt>
      <trkpt lat="45.35823" lon="4.68403">
        <ele>404</ele>
        <time>1989-12-31T00:41:33Z</time>
      </trkpt>
      <trkpt lat="45.35784" lon="4.68381">
        <ele>403.8</ele>
        <time>1989-12-31T00:41:41Z</time>
      </trkpt>
      <trkpt lat="45.35769" lon="4.68375">
        <ele>404</ele>
        <time>1989-12-31T00:41:45Z</time>
      </trkpt>
      <trkpt lat="45.35748" lon="4.68364">
        <ele>404</ele>
        <time>1989-12-31T00:41:49Z</time>
      </trkpt>
      <trkpt lat="45.35737" lon="4.6836">
        <ele>404</ele>
        <time>1989-12-31T00:41:52Z</time>
      </trkpt>
      <trkpt lat="45.35692" lon="4.68337">
        <ele>404</ele>
        <time>1989-12-31T00:42:01Z</time>
      </trkpt>
      <trkpt lat="45.35593" lon="4.68265">
        <ele>404.6</ele>
        <time>1989-12-31T00:42:25Z</time>
      </trkpt>
      <trkpt lat="45.35569" lon="4.68249">
        <ele>405</ele>
        <time>1989-12-31T00:42:30Z</time>
      </trkpt>
      <trkpt lat="45.3555" lon="4.68239">
        <ele>405.4</ele>
        <time>1989-12-31T00:42:34Z</time>
      </trkpt>
      <trkpt lat="45.35487" lon="4.68221">
        <ele>405.6</ele>
        <time>1989-12-31T00:42:48Z</time>
      </trkpt>
      <trkpt lat="45.35395" lon="4.68196">
        <ele>404.2</ele>
        <time>1989-12-31T00:43:07Z</time>
      </trkpt>
      <trkpt lat="45.35381" lon="4.68193">
        <ele>404</ele>
        <time>1989-12-31T00:43:10Z</time>
      </trkpt>
      <trkpt lat="45.35355" lon="4.68176">
        <ele>404</ele>
        <time>1989-12-31T00:43:16Z</time>
      </trkpt>
      <trkpt lat="45.35339" lon="4.68158">
        <ele>403.8</ele>
        <time>1989-12-31T00:43:20Z</time>
      </trkpt>
      <trkpt lat="45.3532" lon="4.68134">
        <ele>403.2</ele>
        <time>1989-12-31T00:43:25Z</time>
      </trkpt>
      <trkpt lat="45.35316" lon="4.68129">
        <ele>403.2</ele>
        <time>1989-12-31T00:43:27Z</time>
      </trkpt>
      <trkpt lat="45.35249" lon="4.68056">
        <ele>400</ele>
        <time>1989-12-31T00:43:44Z</time>
      </trkpt>
      <trkpt lat="45.35243" lon="4.68049">
        <ele>399.4</ele>
        <time>1989-12-31T00:43:46Z</time>
      </trkpt>
      <trkpt lat="45.35233" lon="4.68039">
        <ele>398.6</ele>
        <time>1989-12-31T00:43:48Z</time>
      </trkpt>
      <trkpt lat="45.35216" lon="4.68018">
        <ele>396.6</ele>
        <time>1989-12-31T00:43:53Z</time>
      </trkpt>
      <trkpt lat="45.35191" lon="4.67996">
        <ele>395</ele>
        <time>1989-12-31T00:43:59Z</time>
      </trkpt>
      <trkpt lat="45.35185" lon="4.67991">
        <ele>394</ele>
        <time>1989-12-31T00:44:00Z</time>
      </trkpt>
      <trkpt lat="45.35176" lon="4.67987">
        <ele>393.6</ele>
        <time>1989-12-31T00:44:02Z</time>
      </trkpt>
      <trkpt lat="45.35166" lon="4.67985">
        <ele>393.8</ele>
        <time>1989-12-31T00:44:05Z</time>
      </trkpt>
      <trkpt lat="45.35152" lon="4.67986">
        <ele>394.6</ele>
        <time>1989-12-31T00:44:07Z</time>
      </trkpt>
      <trkpt lat="45.35082" lon="4.68013">
        <ele>392.6</ele>
        <time>1989-12-31T00:44:22Z</time>
      </trkpt>
      <trkpt lat="45.35052" lon="4.68026">
        <ele>391</ele>
        <time>1989-12-31T00:44:29Z</time>
      </trkpt>
      <trkpt lat="45.34873" lon="4.68122">
        <ele>382.4</ele>
        <time>1989-12-31T00:45:09Z</time>
      </trkpt>
      <trkpt lat="45.34847" lon="4.68144">
        <ele>380.8</ele>
        <time>1989-12-31T00:45:15Z</time>
      </trkpt>
      <trkpt lat="45.34787" lon="4.68213">
        <ele>376.8</ele>
        <time>1989-12-31T00:45:31Z</time>
      </trkpt>
      <trkpt lat="45.34745" lon="4.68261">
        <ele>372</ele>
        <time>1989-12-31T00:45:42Z</time>
      </trkpt>
      <trkpt lat="45.34735" lon="4.68273">
        <ele>370.8</ele>
        <time>1989-12-31T00:45:45Z</time>
      </trkpt>
      <trkpt lat="45.34708" lon="4.68296">
        <ele>369.2</ele>
        <time>1989-12-31T00:45:51Z</time>
      </trkpt>
      <trkpt lat="45.34681" lon="4.68301">
        <ele>366.2</ele>
        <time>1989-12-31T00:45:57Z</time>
      </trkpt>
      <trkpt lat="45.34649" lon="4.68304">
        <ele>360.8</ele>
        <time>1989-12-31T00:46:04Z</time>
      </trkpt>
      <trkpt lat="45.34627" lon="4.68305">
        <ele>363.8</ele>
        <time>1989-12-31T00:46:08Z</time>
      </trkpt>
      <trkpt lat="45.34621" lon="4.68308">
        <ele>366</ele>
        <time>1989-12-31T00:46:10Z</time>
      </trkpt>
      <trkpt lat="45.34615" lon="4.68326">
        <ele>367.8</ele>
        <time>1989-12-31T00:46:12Z</time>
      </trkpt>
      <trkpt lat="45.34616" lon="4.68373">
        <ele>368.6</ele>
        <time>1989-12-31T00:46:19Z</time>
      </trkpt>
      <trkpt lat="45.34608" lon="4.68395">
        <ele>370.4</ele>
        <time>1989-12-31T00:46:23Z</time>
      </trkpt>
      <trkpt lat="45.34588" lon="4.68441">
        <ele>373.6</ele>
        <time>1989-12-31T00:46:31Z</time>
      </trkpt>
      <trkpt lat="45.34579" lon="4.68491">
        <ele>373.4</ele>
        <time>1989-12-31T00:46:38Z</time>
      </trkpt>
      <trkpt lat="45.3456" lon="4.68549">
        <ele>375.8</ele>
        <time>1989-12-31T00:46:48Z</time>
      </trkpt>
      <trkpt lat="45.3455" lon="4.68592">
        <ele>377.2</ele>
        <time>1989-12-31T00:46:54Z</time>
      </trkpt>
      <trkpt lat="45.3454" lon="4.68617">
        <ele>379.2</ele>
        <time>1989-12-31T00:46:59Z</time>
      </trkpt>
      <trkpt lat="45.3453" lon="4.68661">
        <ele>380.8</ele>
        <time>1989-12-31T00:47:05Z</time>
      </trkpt>
      <trkpt lat="45.34516" lon="4.68686">
        <ele>382.8</ele>
        <time>1989-12-31T00:47:10Z</time>
      </trkpt>
      <trkpt lat="45.34511" lon="4.68716">
        <ele>384</ele>
        <time>1989-12-31T00:47:15Z</time>
      </trkpt>
      <trkpt lat="45.34513" lon="4.68771">
        <ele>383.2</ele>
        <time>1989-12-31T00:47:23Z</time>
      </trkpt>
      <trkpt lat="45.34512" lon="4.68817">
        <ele>387.6</ele>
        <time>1989-12-31T00:47:29Z</time>
      </trkpt>
      <trkpt lat="45.34506" lon="4.68837">
        <ele>388</ele>
        <time>1989-12-31T00:47:32Z</time>
      </trkpt>
      <trkpt lat="45.34491" lon="4.6886">
        <ele>388.4</ele>
        <time>1989-12-31T00:47:37Z</time>
      </trkpt>
      <trkpt lat="45.34473" lon="4.68872">
        <ele>388.6</ele>
        <time>1989-12-31T00:47:41Z</time>
      </trkpt>
      <trkpt lat="45.34428" lon="4.68906">
        <ele>386.8</ele>
        <time>1989-12-31T00:47:52Z</time>
      </trkpt>
      <trkpt lat="45.34414" lon="4.68916">
        <ele>385.8</ele>
        <time>1989-12-31T00:47:55Z</time>
      </trkpt>
      <trkpt lat="45.34398" lon="4.68921">
        <ele>384.6</ele>
        <time>1989-12-31T00:47:58Z</time>
      </trkpt>
      <trkpt lat="45.34387" lon="4.68922">
        <ele>383.8</ele>
        <time>1989-12-31T00:48:01Z</time>
      </trkpt>
      <trkpt lat="45.34376" lon="4.68919">
        <ele>383</ele>
        <time>1989-12-31T00:48:03Z</time>
      </trkpt>
      <trkpt lat="45.34316" lon="4.68881">
        <ele>379.2</ele>
        <time>1989-12-31T00:48:17Z</time>
      </trkpt>
      <trkpt lat="45.34288" lon="4.68859">
        <ele>377</ele>
        <time>1989-12-31T00:48:23Z</time>
      </trkpt>
      <trkpt lat="45.34279" lon="4.68847">
        <ele>376.8</ele>
        <time>1989-12-31T00:48:26Z</time>
      </trkpt>
      <trkpt lat="45.34272" lon="4.68831">
        <ele>376.4</ele>
        <time>1989-12-31T00:48:29Z</time>
      </trkpt>
      <trkpt lat="45.34268" lon="4.68815">
        <ele>375.8</ele>
        <time>1989-12-31T00:48:31Z</time>
      </trkpt>
      <trkpt lat="45.34263" lon="4.6878">
        <ele>374.2</ele>
        <time>1989-12-31T00:48:36Z</time>
      </trkpt>
      <trkpt lat="45.34259" lon="4.68763">
        <ele>374.2</ele>
        <time>1989-12-31T00:48:39Z</time>
      </trkpt>
      <trkpt lat="45.34251" lon="4.68743">
        <ele>373.8</ele>
        <time>1989-12-31T00:48:42Z</time>
      </trkpt>
      <trkpt lat="45.34243" lon="4.6873">
        <ele>373</ele>
        <time>1989-12-31T00:48:45Z</time>
      </trkpt>
      <trkpt lat="45.34234" lon="4.68723">
        <ele>372</ele>
        <time>1989-12-31T00:48:47Z</time>
      </trkpt>
      <trkpt lat="45.34227" lon="4.6872">
        <ele>370.8</ele>
        <time>1989-12-31T00:48:48Z</time>
      </trkpt>
      <trkpt lat="45.3422" lon="4.68719">
        <ele>370</ele>
        <time>1989-12-31T00:48:50Z</time>
      </trkpt>
      <trkpt lat="45.34207" lon="4.68721">
        <ele>371.2</ele>
        <time>1989-12-31T00:48:53Z</time>
      </trkpt>
      <trkpt lat="45.342" lon="4.68724">
        <ele>371.6</ele>
        <time>1989-12-31T00:48:54Z</time>
      </trkpt>
      <trkpt lat="45.34198" lon="4.68727">
        <ele>371.6</ele>
        <time>1989-12-31T00:48:55Z</time>
      </trkpt>
      <trkpt lat="45.34195" lon="4.68736">
        <ele>372</ele>
        <time>1989-12-31T00:48:56Z</time>
      </trkpt>
      <trkpt lat="45.34194" lon="4.68748">
        <ele>372.2</ele>
        <time>1989-12-31T00:48:58Z</time>
      </trkpt>
      <trkpt lat="45.34197" lon="4.68783">
        <ele>371.2</ele>
        <time>1989-12-31T00:49:03Z</time>
      </trkpt>
      <trkpt lat="45.34198" lon="4.68839">
        <ele>370.4</ele>
        <time>1989-12-31T00:49:11Z</time>
      </trkpt>
      <trkpt lat="45.34201" lon="4.68857">
        <ele>370.6</ele>
        <time>1989-12-31T00:49:14Z</time>
      </trkpt>
      <trkpt lat="45.34209" lon="4.68888">
        <ele>371.6</ele>
        <time>1989-12-31T00:49:19Z</time>
      </trkpt>
      <trkpt lat="45.34226" lon="4.68938">
        <ele>370.6</ele>
        <time>1989-12-31T00:49:27Z</time>
      </trkpt>
      <trkpt lat="45.34255" lon="4.69009">
        <ele>368.8</ele>
        <time>1989-12-31T00:49:39Z</time>
      </trkpt>
      <trkpt lat="45.34273" lon="4.69063">
        <ele>369.2</ele>
        <time>1989-12-31T00:49:48Z</time>
      </trkpt>
      <trkpt lat="45.34288" lon="4.69114">
        <ele>369.6</ele>
        <time>1989-12-31T00:49:56Z</time>
      </trkpt>
      <trkpt lat="45.34298" lon="4.69147">
        <ele>372</ele>
        <time>1989-12-31T00:50:01Z</time>
      </trkpt>
      <trkpt lat="45.34304" lon="4.69169">
        <ele>372.4</ele>
        <time>1989-12-31T00:50:04Z</time>
      </trkpt>
      <trkpt lat="45.34308" lon="4.69197">
        <ele>372.6</ele>
        <time>1989-12-31T00:50:08Z</time>
      </trkpt>
      <trkpt lat="45.3431" lon="4.69241">
        <ele>372.4</ele>
        <time>1989-12-31T00:50:15Z</time>
      </trkpt>
      <trkpt lat="45.34307" lon="4.69342">
        <ele>373.8</ele>
        <time>1989-12-31T00:50:30Z</time>
      </trkpt>
      <trkpt lat="45.34309" lon="4.69442">
        <ele>373.8</ele>
        <time>1989-12-31T00:50:44Z</time>
      </trkpt>
      <trkpt lat="45.34306" lon="4.69492">
        <ele>374</ele>
        <time>1989-12-31T00:50:52Z</time>
      </trkpt>
      <trkpt lat="45.34306" lon="4.69508">
        <ele>374.6</ele>
        <time>1989-12-31T00:50:54Z</time>
      </trkpt>
      <trkpt lat="45.34312" lon="4.69569">
        <ele>375.2</ele>
        <time>1989-12-31T00:51:03Z</time>
      </trkpt>
      <trkpt lat="45.34309" lon="4.69598">
        <ele>375.8</ele>
        <time>1989-12-31T00:51:07Z</time>
      </trkpt>
      <trkpt lat="45.34304" lon="4.69613">
        <ele>376.4</ele>
        <time>1989-12-31T00:51:10Z</time>
      </trkpt>
      <trkpt lat="45.34297" lon="4.69675">
        <ele>378</ele>
        <time>1989-12-31T00:51:19Z</time>
      </trkpt>
      <trkpt lat="45.34296" lon="4.6979">
        <ele>380.2</ele>
        <time>1989-12-31T00:51:36Z</time>
      </trkpt>
      <trkpt lat="45.34298" lon="4.69801">
        <ele>380.4</ele>
        <time>1989-12-31T00:51:37Z</time>
      </trkpt>
      <trkpt lat="45.34302" lon="4.69813">
        <ele>380.2</ele>
        <time>1989-12-31T00:51:39Z</time>
      </trkpt>
      <trkpt lat="45.34337" lon="4.69895">
        <ele>382</ele>
        <time>1989-12-31T00:51:53Z</time>
      </trkpt>
      <trkpt lat="45.34341" lon="4.69909">
        <ele>382.4</ele>
        <time>1989-12-31T00:51:55Z</time>
      </trkpt>
      <trkpt lat="45.34342" lon="4.69946">
        <ele>383</ele>
        <time>1989-12-31T00:52:01Z</time>
      </trkpt>
      <trkpt lat="45.34345" lon="4.69963">
        <ele>383.8</ele>
        <time>1989-12-31T00:52:03Z</time>
      </trkpt>
      <trkpt lat="45.34354" lon="4.69992">
        <ele>384.4</ele>
        <time>1989-12-31T00:52:08Z</time>
      </trkpt>
      <trkpt lat="45.34357" lon="4.70005">
        <ele>384.8</ele>
        <time>1989-12-31T00:52:10Z</time>
      </trkpt>
      <trkpt lat="45.3436" lon="4.70053">
        <ele>385.2</ele>
        <time>1989-12-31T00:52:17Z</time>
      </trkpt>
      <trkpt lat="45.34361" lon="4.70068">
        <ele>385</ele>
        <time>1989-12-31T00:52:19Z</time>
      </trkpt>
      <trkpt lat="45.34365" lon="4.70082">
        <ele>384.4</ele>
        <time>1989-12-31T00:52:21Z</time>
      </trkpt>
      <trkpt lat="45.34376" lon="4.70102">
        <ele>384.6</ele>
        <time>1989-12-31T00:52:25Z</time>
      </trkpt>
      <trkpt lat="45.34403" lon="4.70133">
        <ele>388</ele>
        <time>1989-12-31T00:52:32Z</time>
      </trkpt>
      <trkpt lat="45.34408" lon="4.70146">
        <ele>388.6</ele>
        <time>1989-12-31T00:52:34Z</time>
      </trkpt>
      <trkpt lat="45.34415" lon="4.70167">
        <ele>388.2</ele>
        <time>1989-12-31T00:52:38Z</time>
      </trkpt>
      <trkpt lat="45.34418" lon="4.70188">
        <ele>388.8</ele>
        <time>1989-12-31T00:52:41Z</time>
      </trkpt>
      <trkpt lat="45.3442" lon="4.70203">
        <ele>388.8</ele>
        <time>1989-12-31T00:52:43Z</time>
      </trkpt>
      <trkpt lat="45.34421" lon="4.70208">
        <ele>388.8</ele>
        <time>1989-12-31T00:52:44Z</time>
      </trkpt>
      <trkpt lat="45.3443" lon="4.70282">
        <ele>388.6</ele>
        <time>1989-12-31T00:52:55Z</time>
      </trkpt>
      <trkpt lat="45.34442" lon="4.7035">
        <ele>390.8</ele>
        <time>1989-12-31T00:53:05Z</time>
      </trkpt>
      <trkpt lat="45.34448" lon="4.70366">
        <ele>391</ele>
        <time>1989-12-31T00:53:08Z</time>
      </trkpt>
      <trkpt lat="45.34455" lon="4.70383">
        <ele>391.8</ele>
        <time>1989-12-31T00:53:11Z</time>
      </trkpt>
      <trkpt lat="45.34479" lon="4.70424">
        <ele>392</ele>
        <time>1989-12-31T00:53:18Z</time>
      </trkpt>
      <trkpt lat="45.34491" lon="4.70457">
        <ele>392.2</ele>
        <time>1989-12-31T00:53:24Z</time>
      </trkpt>
      <trkpt lat="45.34508" lon="4.70556">
        <ele>393.6</ele>
        <time>1989-12-31T00:53:39Z</time>
      </trkpt>
      <trkpt lat="45.34515" lon="4.7061">
        <ele>394.8</ele>
        <time>1989-12-31T00:53:47Z</time>
      </trkpt>
      <trkpt lat="45.34521" lon="4.70684">
        <ele>396.2</ele>
        <time>1989-12-31T00:53:58Z</time>
      </trkpt>
      <trkpt lat="45.3452" lon="4.70743">
        <ele>397</ele>
        <time>1989-12-31T00:54:06Z</time>
      </trkpt>
      <trkpt lat="45.34523" lon="4.70761">
        <ele>397</ele>
        <time>1989-12-31T00:54:09Z</time>
      </trkpt>
      <trkpt lat="45.34526" lon="4.7078">
        <ele>397.2</ele>
        <time>1989-12-31T00:54:12Z</time>
      </trkpt>
      <trkpt lat="45.34539" lon="4.70833">
        <ele>396.4</ele>
        <time>1989-12-31T00:54:20Z</time>
      </trkpt>
      <trkpt lat="45.34556" lon="4.70869">
        <ele>395.2</ele>
        <time>1989-12-31T00:54:26Z</time>
      </trkpt>
      <trkpt lat="45.34574" lon="4.70901">
        <ele>395.4</ele>
        <time>1989-12-31T00:54:32Z</time>
      </trkpt>
      <trkpt lat="45.34593" lon="4.7095">
        <ele>395</ele>
        <time>1989-12-31T00:54:40Z</time>
      </trkpt>
      <trkpt lat="45.346" lon="4.70973">
        <ele>395.2</ele>
        <time>1989-12-31T00:54:44Z</time>
      </trkpt>
      <trkpt lat="45.34605" lon="4.70995">
        <ele>394.4</ele>
        <time>1989-12-31T00:54:47Z</time>
      </trkpt>
      <trkpt lat="45.34587" lon="4.71014">
        <ele>394.8</ele>
        <time>1989-12-31T00:54:52Z</time>
      </trkpt>
      <trkpt lat="45.34551" lon="4.71051">
        <ele>397.2</ele>
        <time>1989-12-31T00:55:01Z</time>
      </trkpt>
      <trkpt lat="45.34524" lon="4.71075">
        <ele>399.8</ele>
        <time>1989-12-31T00:55:08Z</time>
      </trkpt>
      <trkpt lat="45.34518" lon="4.71083">
        <ele>399.8</ele>
        <time>1989-12-31T00:55:10Z</time>
      </trkpt>
      <trkpt lat="45.34508" lon="4.711">
        <ele>400.4</ele>
        <time>1989-12-31T00:55:13Z</time>
      </trkpt>
      <trkpt lat="45.34501" lon="4.71115">
        <ele>400.8</ele>
        <time>1989-12-31T00:55:15Z</time>
      </trkpt>
      <trkpt lat="45.34485" lon="4.71132">
        <ele>402.2</ele>
        <time>1989-12-31T00:55:19Z</time>
      </trkpt>
      <trkpt lat="45.34453" lon="4.71159">
        <ele>404.6</ele>
        <time>1989-12-31T00:55:27Z</time>
      </trkpt>
      <trkpt lat="45.34394" lon="4.71202">
        <ele>405.2</ele>
        <time>1989-12-31T00:55:41Z</time>
      </trkpt>
      <trkpt lat="45.3438" lon="4.7121">
        <ele>404.8</ele>
        <time>1989-12-31T00:55:44Z</time>
      </trkpt>
      <trkpt lat="45.34343" lon="4.71228">
        <ele>404.2</ele>
        <time>1989-12-31T00:55:52Z</time>
      </trkpt>
      <trkpt lat="45.34307" lon="4.71247">
        <ele>404.2</ele>
        <time>1989-12-31T00:56:00Z</time>
      </trkpt>
      <trkpt lat="45.34293" lon="4.71251">
        <ele>404</ele>
        <time>1989-12-31T00:56:03Z</time>
      </trkpt>
      <trkpt lat="45.34255" lon="4.71262">
        <ele>404</ele>
        <time>1989-12-31T00:56:11Z</time>
      </trkpt>
      <trkpt lat="45.34242" lon="4.71265">
        <ele>404</ele>
        <time>1989-12-31T00:56:14Z</time>
      </trkpt>
      <trkpt lat="45.34216" lon="4.71266">
        <ele>403.8</ele>
        <time>1989-12-31T00:56:19Z</time>
      </trkpt>
      <trkpt lat="45.34187" lon="4.71262">
        <ele>404.2</ele>
        <time>1989-12-31T00:56:25Z</time>
      </trkpt>
      <trkpt lat="45.34102" lon="4.71246">
        <ele>404.2</ele>
        <time>1989-12-31T00:56:43Z</time>
      </trkpt>
      <trkpt lat="45.34041" lon="4.71246">
        <ele>403.8</ele>
        <time>1989-12-31T00:56:56Z</time>
      </trkpt>
      <trkpt lat="45.34032" lon="4.71245">
        <ele>403.6</ele>
        <time>1989-12-31T00:56:58Z</time>
      </trkpt>
      <trkpt lat="45.33992" lon="4.71237">
        <ele>403.8</ele>
        <time>1989-12-31T00:57:06Z</time>
      </trkpt>
      <trkpt lat="45.33968" lon="4.71231">
        <ele>403.6</ele>
        <time>1989-12-31T00:57:11Z</time>
      </trkpt>
      <trkpt lat="45.33953" lon="4.71225">
        <ele>403.2</ele>
        <time>1989-12-31T00:57:14Z</time>
      </trkpt>
      <trkpt lat="45.33932" lon="4.71217">
        <ele>402.8</ele>
        <time>1989-12-31T00:57:19Z</time>
      </trkpt>
      <trkpt lat="45.3392" lon="4.71209">
        <ele>402.8</ele>
        <time>1989-12-31T00:57:22Z</time>
      </trkpt>
      <trkpt lat="45.33909" lon="4.71199">
        <ele>402</ele>
        <time>1989-12-31T00:57:24Z</time>
      </trkpt>
      <trkpt lat="45.33885" lon="4.71167">
        <ele>401.8</ele>
        <time>1989-12-31T00:57:31Z</time>
      </trkpt>
      <trkpt lat="45.3387" lon="4.71154">
        <ele>401.8</ele>
        <time>1989-12-31T00:57:35Z</time>
      </trkpt>
      <trkpt lat="45.33806" lon="4.71119">
        <ele>401.4</ele>
        <time>1989-12-31T00:57:49Z</time>
      </trkpt>
      <trkpt lat="45.33797" lon="4.71113">
        <ele>401.6</ele>
        <time>1989-12-31T00:57:51Z</time>
      </trkpt>
      <trkpt lat="45.33772" lon="4.71098">
        <ele>402.2</ele>
        <time>1989-12-31T00:57:57Z</time>
      </trkpt>
      <trkpt lat="45.33731" lon="4.71075">
        <ele>402.6</ele>
        <time>1989-12-31T00:58:06Z</time>
      </trkpt>
      <trkpt lat="45.33716" lon="4.7107">
        <ele>403</ele>
        <time>1989-12-31T00:58:09Z</time>
      </trkpt>
      <trkpt lat="45.33702" lon="4.71068">
        <ele>403.2</ele>
        <time>1989-12-31T00:58:12Z</time>
      </trkpt>
      <trkpt lat="45.3369" lon="4.71068">
        <ele>403.4</ele>
        <time>1989-12-31T00:58:14Z</time>
      </trkpt>
      <trkpt lat="45.33671" lon="4.7107">
        <ele>403.8</ele>
        <time>1989-12-31T00:58:19Z</time>
      </trkpt>
      <trkpt lat="45.3365" lon="4.71073">
        <ele>403.8</ele>
        <time>1989-12-31T00:58:23Z</time>
      </trkpt>
      <trkpt lat="45.33633" lon="4.71072">
        <ele>404</ele>
        <time>1989-12-31T00:58:26Z</time>
      </trkpt>
      <trkpt lat="45.33617" lon="4.71072">
        <ele>404.6</ele>
        <time>1989-12-31T00:58:30Z</time>
      </trkpt>
      <trkpt lat="45.33595" lon="4.7107">
        <ele>405.2</ele>
        <time>1989-12-31T00:58:34Z</time>
      </trkpt>
      <trkpt lat="45.3356" lon="4.71061">
        <ele>406.4</ele>
        <time>1989-12-31T00:58:42Z</time>
      </trkpt>
      <trkpt lat="45.33528" lon="4.71048">
        <ele>407.6</ele>
        <time>1989-12-31T00:58:49Z</time>
      </trkpt>
      <trkpt lat="45.33521" lon="4.71045">
        <ele>407.6</ele>
        <time>1989-12-31T00:58:50Z</time>
      </trkpt>
      <trkpt lat="45.3351" lon="4.7104">
        <ele>407.8</ele>
        <time>1989-12-31T00:58:53Z</time>
      </trkpt>
      <trkpt lat="45.33489" lon="4.71026">
        <ele>408.4</ele>
        <time>1989-12-31T00:58:57Z</time>
      </trkpt>
      <trkpt lat="45.3348" lon="4.71015">
        <ele>408.8</ele>
        <time>1989-12-31T00:59:00Z</time>
      </trkpt>
      <trkpt lat="45.33465" lon="4.70993">
        <ele>410.2</ele>
        <time>1989-12-31T00:59:04Z</time>
      </trkpt>
      <trkpt lat="45.33438" lon="4.70945">
        <ele>412.6</ele>
        <time>1989-12-31T00:59:13Z</time>
      </trkpt>
      <trkpt lat="45.3343" lon="4.70928">
        <ele>413.2</ele>
        <time>1989-12-31T00:59:16Z</time>
      </trkpt>
      <trkpt lat="45.33422" lon="4.70904">
        <ele>414.6</ele>
        <time>1989-12-31T00:59:20Z</time>
      </trkpt>
      <trkpt lat="45.33419" lon="4.70899">
        <ele>414.6</ele>
        <time>1989-12-31T00:59:21Z</time>
      </trkpt>
      <trkpt lat="45.33411" lon="4.7089">
        <ele>414.6</ele>
        <time>1989-12-31T00:59:23Z</time>
      </trkpt>
      <trkpt lat="45.33398" lon="4.70878">
        <ele>414.6</ele>
        <time>1989-12-31T00:59:26Z</time>
      </trkpt>
      <trkpt lat="45.33374" lon="4.70858">
        <ele>414.2</ele>
        <time>1989-12-31T00:59:32Z</time>
      </trkpt>
      <trkpt lat="45.33366" lon="4.70851">
        <ele>414.2</ele>
        <time>1989-12-31T00:59:34Z</time>
      </trkpt>
      <trkpt lat="45.33347" lon="4.70832">
        <ele>414.2</ele>
        <time>1989-12-31T00:59:39Z</time>
      </trkpt>
      <trkpt lat="45.33342" lon="4.70826">
        <ele>414.2</ele>
        <time>1989-12-31T00:59:40Z</time>
      </trkpt>
      <trkpt lat="45.33324" lon="4.70814">
        <ele>414.2</ele>
        <time>1989-12-31T00:59:44Z</time>
      </trkpt>
      <trkpt lat="45.33303" lon="4.70798">
        <ele>414.6</ele>
        <time>1989-12-31T00:59:49Z</time>
      </trkpt>
      <trkpt lat="45.33286" lon="4.70783">
        <ele>415</ele>
        <time>1989-12-31T00:59:53Z</time>
      </trkpt>
      <trkpt lat="45.33261" lon="4.70761">
        <ele>415.8</ele>
        <time>1989-12-31T01:00:00Z</time>
      </trkpt>
      <trkpt lat="45.33257" lon="4.70758">
        <ele>416</ele>
        <time>1989-12-31T01:00:01Z</time>
      </trkpt>
      <trkpt lat="45.33249" lon="4.70751">
        <ele>417</ele>
        <time>1989-12-31T01:00:02Z</time>
      </trkpt>
      <trkpt lat="45.33246" lon="4.70749">
        <ele>417</ele>
        <time>1989-12-31T01:00:03Z</time>
      </trkpt>
      <trkpt lat="45.33241" lon="4.70749">
        <ele>416.8</ele>
        <time>1989-12-31T01:00:04Z</time>
      </trkpt>
      <trkpt lat="45.33237" lon="4.70749">
        <ele>416.6</ele>
        <time>1989-12-31T01:00:05Z</time>
      </trkpt>
      <trkpt lat="45.33218" lon="4.70751">
        <ele>415.8</ele>
        <time>1989-12-31T01:00:09Z</time>
      </trkpt>
      <trkpt lat="45.33158" lon="4.70738">
        <ele>415.4</ele>
        <time>1989-12-31T01:00:22Z</time>
      </trkpt>
      <trkpt lat="45.33131" lon="4.70736">
        <ele>416</ele>
        <time>1989-12-31T01:00:27Z</time>
      </trkpt>
      <trkpt lat="45.3311" lon="4.70725">
        <ele>417.6</ele>
        <time>1989-12-31T01:00:32Z</time>
      </trkpt>
      <trkpt lat="45.33086" lon="4.70718">
        <ele>417.8</ele>
        <time>1989-12-31T01:00:37Z</time>
      </trkpt>
      <trkpt lat="45.33023" lon="4.70707">
        <ele>421.8</ele>
        <time>1989-12-31T01:00:50Z</time>
      </trkpt>
      <trkpt lat="45.33017" lon="4.70705">
        <ele>422.2</ele>
        <time>1989-12-31T01:00:51Z</time>
      </trkpt>
      <trkpt lat="45.32999" lon="4.70699">
        <ele>423.2</ele>
        <time>1989-12-31T01:00:55Z</time>
      </trkpt>
      <trkpt lat="45.32995" lon="4.70697">
        <ele>423.2</ele>
        <time>1989-12-31T01:00:56Z</time>
      </trkpt>
      <trkpt lat="45.32984" lon="4.7069">
        <ele>423.8</ele>
        <time>1989-12-31T01:00:59Z</time>
      </trkpt>
      <trkpt lat="45.32974" lon="4.70684">
        <ele>424</ele>
        <time>1989-12-31T01:01:01Z</time>
      </trkpt>
      <trkpt lat="45.32911" lon="4.7064">
        <ele>426.8</ele>
        <time>1989-12-31T01:01:15Z</time>
      </trkpt>
      <trkpt lat="45.32902" lon="4.70645">
        <ele>425.8</ele>
        <time>1989-12-31T01:01:17Z</time>
      </trkpt>
      <trkpt lat="45.32882" lon="4.70643">
        <ele>424.8</ele>
        <time>1989-12-31T01:01:22Z</time>
      </trkpt>
      <trkpt lat="45.32871" lon="4.70642">
        <ele>423.8</ele>
        <time>1989-12-31T01:01:24Z</time>
      </trkpt>
      <trkpt lat="45.3282" lon="4.70637">
        <ele>419.2</ele>
        <time>1989-12-31T01:01:34Z</time>
      </trkpt>
      <trkpt lat="45.32801" lon="4.70641">
        <ele>417.4</ele>
        <time>1989-12-31T01:01:39Z</time>
      </trkpt>
      <trkpt lat="45.32794" lon="4.70659">
        <ele>415.6</ele>
        <time>1989-12-31T01:01:42Z</time>
      </trkpt>
      <trkpt lat="45.32784" lon="4.70667">
        <ele>414.4</ele>
        <time>1989-12-31T01:01:44Z</time>
      </trkpt>
      <trkpt lat="45.32768" lon="4.70663">
        <ele>413.2</ele>
        <time>1989-12-31T01:01:47Z</time>
      </trkpt>
      <trkpt lat="45.32745" lon="4.70651">
        <ele>411.8</ele>
        <time>1989-12-31T01:01:52Z</time>
      </trkpt>
      <trkpt lat="45.32727" lon="4.70647">
        <ele>410.2</ele>
        <time>1989-12-31T01:01:56Z</time>
      </trkpt>
      <trkpt lat="45.32715" lon="4.70654">
        <ele>408.6</ele>
        <time>1989-12-31T01:01:59Z</time>
      </trkpt>
      <trkpt lat="45.32706" lon="4.7067">
        <ele>406.6</ele>
        <time>1989-12-31T01:02:02Z</time>
      </trkpt>
      <trkpt lat="45.32704" lon="4.70686">
        <ele>405.4</ele>
        <time>1989-12-31T01:02:04Z</time>
      </trkpt>
      <trkpt lat="45.32705" lon="4.70705">
        <ele>404.6</ele>
        <time>1989-12-31T01:02:07Z</time>
      </trkpt>
      <trkpt lat="45.32705" lon="4.70735">
        <ele>403</ele>
        <time>1989-12-31T01:02:11Z</time>
      </trkpt>
      <trkpt lat="45.32705" lon="4.7075">
        <ele>402.2</ele>
        <time>1989-12-31T01:02:14Z</time>
      </trkpt>
      <trkpt lat="45.32668" lon="4.70896">
        <ele>394.6</ele>
        <time>1989-12-31T01:02:36Z</time>
      </trkpt>
      <trkpt lat="45.32657" lon="4.70936">
        <ele>392.4</ele>
        <time>1989-12-31T01:02:43Z</time>
      </trkpt>
      <trkpt lat="45.3264" lon="4.70977">
        <ele>389.8</ele>
        <time>1989-12-31T01:02:49Z</time>
      </trkpt>
      <trkpt lat="45.32629" lon="4.7099">
        <ele>389.2</ele>
        <time>1989-12-31T01:02:52Z</time>
      </trkpt>
      <trkpt lat="45.32613" lon="4.71005">
        <ele>387.8</ele>
        <time>1989-12-31T01:02:56Z</time>
      </trkpt>
      <trkpt lat="45.32594" lon="4.71014">
        <ele>386.2</ele>
        <time>1989-12-31T01:03:00Z</time>
      </trkpt>
      <trkpt lat="45.32576" lon="4.71027">
        <ele>383.6</ele>
        <time>1989-12-31T01:03:05Z</time>
      </trkpt>
      <trkpt lat="45.32565" lon="4.71044">
        <ele>381</ele>
        <time>1989-12-31T01:03:08Z</time>
      </trkpt>
      <trkpt lat="45.32551" lon="4.71071">
        <ele>381.2</ele>
        <time>1989-12-31T01:03:13Z</time>
      </trkpt>
      <trkpt lat="45.32544" lon="4.71092">
        <ele>383.6</ele>
        <time>1989-12-31T01:03:16Z</time>
      </trkpt>
      <trkpt lat="45.32545" lon="4.71109">
        <ele>385.6</ele>
        <time>1989-12-31T01:03:19Z</time>
      </trkpt>
      <trkpt lat="45.32556" lon="4.71141">
        <ele>388.2</ele>
        <time>1989-12-31T01:03:24Z</time>
      </trkpt>
      <trkpt lat="45.3256" lon="4.71166">
        <ele>389.6</ele>
        <time>1989-12-31T01:03:28Z</time>
      </trkpt>
      <trkpt lat="45.3256" lon="4.71173">
        <ele>389.6</ele>
        <time>1989-12-31T01:03:29Z</time>
      </trkpt>
      <trkpt lat="45.32552" lon="4.712">
        <ele>390.4</ele>
        <time>1989-12-31T01:03:33Z</time>
      </trkpt>
      <trkpt lat="45.32547" lon="4.71206">
        <ele>390.8</ele>
        <time>1989-12-31T01:03:34Z</time>
      </trkpt>
      <trkpt lat="45.32543" lon="4.71209">
        <ele>391.2</ele>
        <time>1989-12-31T01:03:35Z</time>
      </trkpt>
      <trkpt lat="45.32401" lon="4.71262">
        <ele>401.6</ele>
        <time>1989-12-31T01:04:06Z</time>
      </trkpt>
      <trkpt lat="45.32372" lon="4.71268">
        <ele>403.6</ele>
        <time>1989-12-31T01:04:12Z</time>
      </trkpt>
      <trkpt lat="45.32322" lon="4.71276">
        <ele>406.6</ele>
        <time>1989-12-31T01:04:22Z</time>
      </trkpt>
      <trkpt lat="45.32272" lon="4.71293">
        <ele>409</ele>
        <time>1989-12-31T01:04:33Z</time>
      </trkpt>
      <trkpt lat="45.3226" lon="4.71303">
        <ele>410</ele>
        <time>1989-12-31T01:04:36Z</time>
      </trkpt>
      <trkpt lat="45.32248" lon="4.7132">
        <ele>411.2</ele>
        <time>1989-12-31T01:04:39Z</time>
      </trkpt>
      <trkpt lat="45.32237" lon="4.71343">
        <ele>412.4</ele>
        <time>1989-12-31T01:04:44Z</time>
      </trkpt>
      <trkpt lat="45.32231" lon="4.71364">
        <ele>413.6</ele>
        <time>1989-12-31T01:04:47Z</time>
      </trkpt>
      <trkpt lat="45.32227" lon="4.71394">
        <ele>415.8</ele>
        <time>1989-12-31T01:04:51Z</time>
      </trkpt>
      <trkpt lat="45.32221" lon="4.71407">
        <ele>416.8</ele>
        <time>1989-12-31T01:04:54Z</time>
      </trkpt>
      <trkpt lat="45.32215" lon="4.71415">
        <ele>417.6</ele>
        <time>1989-12-31T01:04:55Z</time>
      </trkpt>
      <trkpt lat="45.32192" lon="4.71436">
        <ele>419.2</ele>
        <time>1989-12-31T01:05:01Z</time>
      </trkpt>
      <trkpt lat="45.32184" lon="4.71443">
        <ele>419.8</ele>
        <time>1989-12-31T01:05:03Z</time>
      </trkpt>
      <trkpt lat="45.32042" lon="4.71551">
        <ele>424.4</ele>
        <time>1989-12-31T01:05:36Z</time>
      </trkpt>
      <trkpt lat="45.31984" lon="4.71585">
        <ele>425.6</ele>
        <time>1989-12-31T01:05:49Z</time>
      </trkpt>
      <trkpt lat="45.31978" lon="4.71595">
        <ele>425.6</ele>
        <time>1989-12-31T01:05:51Z</time>
      </trkpt>
      <trkpt lat="45.31975" lon="4.71605">
        <ele>425.6</ele>
        <time>1989-12-31T01:05:53Z</time>
      </trkpt>
      <trkpt lat="45.31975" lon="4.71625">
        <ele>426</ele>
        <time>1989-12-31T01:05:56Z</time>
      </trkpt>
      <trkpt lat="45.31983" lon="4.71694">
        <ele>429.8</ele>
        <time>1989-12-31T01:06:06Z</time>
      </trkpt>
      <trkpt lat="45.31982" lon="4.71715">
        <ele>431</ele>
        <time>1989-12-31T01:06:09Z</time>
      </trkpt>
      <trkpt lat="45.31971" lon="4.7175">
        <ele>432.2</ele>
        <time>1989-12-31T01:06:15Z</time>
      </trkpt>
      <trkpt lat="45.31918" lon="4.71839">
        <ele>431.4</ele>
        <time>1989-12-31T01:06:32Z</time>
      </trkpt>
      <trkpt lat="45.31909" lon="4.71859">
        <ele>431.2</ele>
        <time>1989-12-31T01:06:35Z</time>
      </trkpt>
      <trkpt lat="45.31901" lon="4.71885">
        <ele>431</ele>
        <time>1989-12-31T01:06:39Z</time>
      </trkpt>
      <trkpt lat="45.31894" lon="4.71918">
        <ele>432.2</ele>
        <time>1989-12-31T01:06:44Z</time>
      </trkpt>
      <trkpt lat="45.31888" lon="4.71954">
        <ele>433.2</ele>
        <time>1989-12-31T01:06:50Z</time>
      </trkpt>
      <trkpt lat="45.31887" lon="4.71964">
        <ele>433.2</ele>
        <time>1989-12-31T01:06:51Z</time>
      </trkpt>
      <trkpt lat="45.31875" lon="4.72027">
        <ele>433</ele>
        <time>1989-12-31T01:07:01Z</time>
      </trkpt>
      <trkpt lat="45.31873" lon="4.72034">
        <ele>433</ele>
        <time>1989-12-31T01:07:02Z</time>
      </trkpt>
      <trkpt lat="45.31869" lon="4.72047">
        <ele>432.8</ele>
        <time>1989-12-31T01:07:04Z</time>
      </trkpt>
      <trkpt lat="45.31857" lon="4.72069">
        <ele>432.8</ele>
        <time>1989-12-31T01:07:08Z</time>
      </trkpt>
      <trkpt lat="45.31847" lon="4.72081">
        <ele>432.6</ele>
        <time>1989-12-31T01:07:11Z</time>
      </trkpt>
      <trkpt lat="45.31844" lon="4.72089">
        <ele>431.8</ele>
        <time>1989-12-31T01:07:12Z</time>
      </trkpt>
      <trkpt lat="45.31828" lon="4.721">
        <ele>431.4</ele>
        <time>1989-12-31T01:07:16Z</time>
      </trkpt>
      <trkpt lat="45.31808" lon="4.72114">
        <ele>429.8</ele>
        <time>1989-12-31T01:07:20Z</time>
      </trkpt>
      <trkpt lat="45.31795" lon="4.72124">
        <ele>429.8</ele>
        <time>1989-12-31T01:07:23Z</time>
      </trkpt>
      <trkpt lat="45.31787" lon="4.72136">
        <ele>429</ele>
        <time>1989-12-31T01:07:26Z</time>
      </trkpt>
      <trkpt lat="45.3178" lon="4.72149">
        <ele>428.2</ele>
        <time>1989-12-31T01:07:28Z</time>
      </trkpt>
      <trkpt lat="45.31777" lon="4.72163">
        <ele>427.4</ele>
        <time>1989-12-31T01:07:30Z</time>
      </trkpt>
      <trkpt lat="45.31744" lon="4.72352">
        <ele>420.8</ele>
        <time>1989-12-31T01:07:59Z</time>
      </trkpt>
      <trkpt lat="45.3174" lon="4.72376">
        <ele>420.2</ele>
        <time>1989-12-31T01:08:02Z</time>
      </trkpt>
      <trkpt lat="45.31733" lon="4.72457">
        <ele>417.2</ele>
        <time>1989-12-31T01:08:14Z</time>
      </trkpt>
      <trkpt lat="45.31733" lon="4.72572">
        <ele>412.6</ele>
        <time>1989-12-31T01:08:31Z</time>
      </trkpt>
      <trkpt lat="45.31733" lon="4.72629">
        <ele>409.6</ele>
        <time>1989-12-31T01:08:39Z</time>
      </trkpt>
      <trkpt lat="45.31731" lon="4.72655">
        <ele>408.4</ele>
        <time>1989-12-31T01:08:43Z</time>
      </trkpt>
      <trkpt lat="45.31731" lon="4.72661">
        <ele>408.2</ele>
        <time>1989-12-31T01:08:44Z</time>
      </trkpt>
      <trkpt lat="45.31729" lon="4.72682">
        <ele>407.4</ele>
        <time>1989-12-31T01:08:47Z</time>
      </trkpt>
      <trkpt lat="45.31725" lon="4.72702">
        <ele>406.6</ele>
        <time>1989-12-31T01:08:50Z</time>
      </trkpt>
      <trkpt lat="45.31722" lon="4.72711">
        <ele>405.8</ele>
        <time>1989-12-31T01:08:52Z</time>
      </trkpt>
      <trkpt lat="45.31719" lon="4.72722">
        <ele>405.2</ele>
        <time>1989-12-31T01:08:53Z</time>
      </trkpt>
      <trkpt lat="45.31704" lon="4.72747">
        <ele>404.6</ele>
        <time>1989-12-31T01:08:58Z</time>
      </trkpt>
      <trkpt lat="45.31679" lon="4.72787">
        <ele>402.6</ele>
        <time>1989-12-31T01:09:06Z</time>
      </trkpt>
      <trkpt lat="45.31662" lon="4.72815">
        <ele>400.6</ele>
        <time>1989-12-31T01:09:11Z</time>
      </trkpt>
      <trkpt lat="45.31653" lon="4.72829">
        <ele>399.8</ele>
        <time>1989-12-31T01:09:14Z</time>
      </trkpt>
      <trkpt lat="45.31652" lon="4.72833">
        <ele>399.6</ele>
        <time>1989-12-31T01:09:15Z</time>
      </trkpt>
      <trkpt lat="45.31648" lon="4.72832">
        <ele>399.4</ele>
        <time>1989-12-31T01:09:16Z</time>
      </trkpt>
      <trkpt lat="45.31639" lon="4.72829">
        <ele>399.2</ele>
        <time>1989-12-31T01:09:18Z</time>
      </trkpt>
      <trkpt lat="45.31617" lon="4.72827">
        <ele>397.8</ele>
        <time>1989-12-31T01:09:22Z</time>
      </trkpt>
      <trkpt lat="45.31601" lon="4.72825">
        <ele>397</ele>
        <time>1989-12-31T01:09:25Z</time>
      </trkpt>
      <trkpt lat="45.31582" lon="4.72823">
        <ele>396.4</ele>
        <time>1989-12-31T01:09:30Z</time>
      </trkpt>
      <trkpt lat="45.31577" lon="4.72822">
        <ele>396</ele>
        <time>1989-12-31T01:09:31Z</time>
      </trkpt>
      <trkpt lat="45.3155" lon="4.72819">
        <ele>395</ele>
        <time>1989-12-31T01:09:36Z</time>
      </trkpt>
      <trkpt lat="45.31547" lon="4.72819">
        <ele>395</ele>
        <time>1989-12-31T01:09:37Z</time>
      </trkpt>
      <trkpt lat="45.31519" lon="4.72811">
        <ele>394.4</ele>
        <time>1989-12-31T01:09:43Z</time>
      </trkpt>
      <trkpt lat="45.31502" lon="4.72811">
        <ele>393.8</ele>
        <time>1989-12-31T01:09:46Z</time>
      </trkpt>
      <trkpt lat="45.31473" lon="4.72808">
        <ele>391</ele>
        <time>1989-12-31T01:09:52Z</time>
      </trkpt>
      <trkpt lat="45.31467" lon="4.72807">
        <ele>390.4</ele>
        <time>1989-12-31T01:09:54Z</time>
      </trkpt>
      <trkpt lat="45.31411" lon="4.72801">
        <ele>387</ele>
        <time>1989-12-31T01:10:05Z</time>
      </trkpt>
      <trkpt lat="45.31337" lon="4.72793">
        <ele>387.4</ele>
        <time>1989-12-31T01:10:21Z</time>
      </trkpt>
      <trkpt lat="45.31303" lon="4.72789">
        <ele>387.6</ele>
        <time>1989-12-31T01:10:28Z</time>
      </trkpt>
      <trkpt lat="45.3126" lon="4.72784">
        <ele>387.8</ele>
        <time>1989-12-31T01:10:37Z</time>
      </trkpt>
      <trkpt lat="45.31248" lon="4.72782">
        <ele>387.8</ele>
        <time>1989-12-31T01:10:39Z</time>
      </trkpt>
      <trkpt lat="45.31243" lon="4.72782">
        <ele>387.8</ele>
        <time>1989-12-31T01:10:40Z</time>
      </trkpt>
      <trkpt lat="45.31206" lon="4.72778">
        <ele>387.4</ele>
        <time>1989-12-31T01:10:48Z</time>
      </trkpt>
      <trkpt lat="45.31137" lon="4.7277">
        <ele>385.8</ele>
        <time>1989-12-31T01:11:02Z</time>
      </trkpt>
      <trkpt lat="45.3113" lon="4.72768">
        <ele>385.6</ele>
        <time>1989-12-31T01:11:04Z</time>
      </trkpt>
      <trkpt lat="45.311" lon="4.7276">
        <ele>384.6</ele>
        <time>1989-12-31T01:11:10Z</time>
      </trkpt>
      <trkpt lat="45.31082" lon="4.7276">
        <ele>383.6</ele>
        <time>1989-12-31T01:11:14Z</time>
      </trkpt>
      <trkpt lat="45.31071" lon="4.72767">
        <ele>383</ele>
        <time>1989-12-31T01:11:16Z</time>
      </trkpt>
      <trkpt lat="45.31057" lon="4.72783">
        <ele>382</ele>
        <time>1989-12-31T01:11:20Z</time>
      </trkpt>
      <trkpt lat="45.31017" lon="4.72847">
        <ele>379.2</ele>
        <time>1989-12-31T01:11:33Z</time>
      </trkpt>
      <trkpt lat="45.30996" lon="4.72882">
        <ele>378.4</ele>
        <time>1989-12-31T01:11:39Z</time>
      </trkpt>
      <trkpt lat="45.30988" lon="4.72891">
        <ele>378.4</ele>
        <time>1989-12-31T01:11:41Z</time>
      </trkpt>
      <trkpt lat="45.30972" lon="4.7291">
        <ele>378.2</ele>
        <time>1989-12-31T01:11:46Z</time>
      </trkpt>
      <trkpt lat="45.30944" lon="4.72932">
        <ele>378</ele>
        <time>1989-12-31T01:11:52Z</time>
      </trkpt>
      <trkpt lat="45.3094" lon="4.72933">
        <ele>377.8</ele>
        <time>1989-12-31T01:11:53Z</time>
      </trkpt>
      <trkpt lat="45.30923" lon="4.72941">
        <ele>377.2</ele>
        <time>1989-12-31T01:11:57Z</time>
      </trkpt>
      <trkpt lat="45.30907" lon="4.72943">
        <ele>377.4</ele>
        <time>1989-12-31T01:12:00Z</time>
      </trkpt>
      <trkpt lat="45.30899" lon="4.72945">
        <ele>377.6</ele>
        <time>1989-12-31T01:12:02Z</time>
      </trkpt>
      <trkpt lat="45.30865" lon="4.72944">
        <ele>377.2</ele>
        <time>1989-12-31T01:12:09Z</time>
      </trkpt>
      <trkpt lat="45.30846" lon="4.72943">
        <ele>377.2</ele>
        <time>1989-12-31T01:12:13Z</time>
      </trkpt>
      <trkpt lat="45.30825" lon="4.72942">
        <ele>377.2</ele>
        <time>1989-12-31T01:12:17Z</time>
      </trkpt>
      <trkpt lat="45.30809" lon="4.72945">
        <ele>377</ele>
        <time>1989-12-31T01:12:21Z</time>
      </trkpt>
      <trkpt lat="45.30783" lon="4.72936">
        <ele>375.4</ele>
        <time>1989-12-31T01:12:26Z</time>
      </trkpt>
      <trkpt lat="45.30765" lon="4.72916">
        <ele>374.4</ele>
        <time>1989-12-31T01:12:31Z</time>
      </trkpt>
      <trkpt lat="45.30745" lon="4.72891">
        <ele>374.4</ele>
        <time>1989-12-31T01:12:36Z</time>
      </trkpt>
      <trkpt lat="45.30731" lon="4.72877">
        <ele>372.6</ele>
        <time>1989-12-31T01:12:40Z</time>
      </trkpt>
      <trkpt lat="45.30723" lon="4.72875">
        <ele>370.8</ele>
        <time>1989-12-31T01:12:42Z</time>
      </trkpt>
      <trkpt lat="45.30707" lon="4.72877">
        <ele>370.8</ele>
        <time>1989-12-31T01:12:45Z</time>
      </trkpt>
      <trkpt lat="45.30703" lon="4.72879">
        <ele>371</ele>
        <time>1989-12-31T01:12:46Z</time>
      </trkpt>
      <trkpt lat="45.30695" lon="4.72883">
        <ele>371.6</ele>
        <time>1989-12-31T01:12:48Z</time>
      </trkpt>
      <trkpt lat="45.30687" lon="4.72893">
        <ele>372.6</ele>
        <time>1989-12-31T01:12:50Z</time>
      </trkpt>
      <trkpt lat="45.30681" lon="4.72905">
        <ele>372.8</ele>
        <time>1989-12-31T01:12:52Z</time>
      </trkpt>
      <trkpt lat="45.3065" lon="4.73">
        <ele>371.6</ele>
        <time>1989-12-31T01:13:07Z</time>
      </trkpt>
      <trkpt lat="45.30594" lon="4.73165">
        <ele>370.8</ele>
        <time>1989-12-31T01:13:34Z</time>
      </trkpt>
      <trkpt lat="45.30584" lon="4.73143">
        <ele>371.8</ele>
        <time>1989-12-31T01:13:38Z</time>
      </trkpt>
      <trkpt lat="45.30526" lon="4.73065">
        <ele>375.2</ele>
        <time>1989-12-31T01:13:54Z</time>
      </trkpt>
      <trkpt lat="45.30511" lon="4.73047">
        <ele>376.6</ele>
        <time>1989-12-31T01:13:59Z</time>
      </trkpt>
      <trkpt lat="45.30495" lon="4.73028">
        <ele>378</ele>
        <time>1989-12-31T01:14:03Z</time>
      </trkpt>
      <trkpt lat="45.30462" lon="4.73007">
        <ele>379.2</ele>
        <time>1989-12-31T01:14:10Z</time>
      </trkpt>
      <trkpt lat="45.30427" lon="4.72985">
        <ele>380.4</ele>
        <time>1989-12-31T01:14:18Z</time>
      </trkpt>
      <trkpt lat="45.30395" lon="4.72965">
        <ele>381.2</ele>
        <time>1989-12-31T01:14:26Z</time>
      </trkpt>
      <trkpt lat="45.30371" lon="4.72947">
        <ele>382.6</ele>
        <time>1989-12-31T01:14:31Z</time>
      </trkpt>
      <trkpt lat="45.30351" lon="4.72935">
        <ele>383.8</ele>
        <time>1989-12-31T01:14:36Z</time>
      </trkpt>
      <trkpt lat="45.30308" lon="4.72928">
        <ele>385.2</ele>
        <time>1989-12-31T01:14:45Z</time>
      </trkpt>
      <trkpt lat="45.303" lon="4.72927">
        <ele>385.4</ele>
        <time>1989-12-31T01:14:46Z</time>
      </trkpt>
      <trkpt lat="45.30227" lon="4.72922">
        <ele>387.4</ele>
        <time>1989-12-31T01:15:02Z</time>
      </trkpt>
      <trkpt lat="45.30212" lon="4.72921">
        <ele>387.4</ele>
        <time>1989-12-31T01:15:05Z</time>
      </trkpt>
      <trkpt lat="45.30205" lon="4.7292">
        <ele>387.2</ele>
        <time>1989-12-31T01:15:06Z</time>
      </trkpt>
      <trkpt lat="45.30166" lon="4.72907">
        <ele>389.2</ele>
        <time>1989-12-31T01:15:14Z</time>
      </trkpt>
      <trkpt lat="45.30155" lon="4.729">
        <ele>390</ele>
        <time>1989-12-31T01:15:17Z</time>
      </trkpt>
      <trkpt lat="45.30136" lon="4.72888">
        <ele>390.2</ele>
        <time>1989-12-31T01:15:21Z</time>
      </trkpt>
      <trkpt lat="45.30134" lon="4.72886">
        <ele>390.4</ele>
        <time>1989-12-31T01:15:22Z</time>
      </trkpt>
      <trkpt lat="45.30126" lon="4.72882">
        <ele>391</ele>
        <time>1989-12-31T01:15:24Z</time>
      </trkpt>
      <trkpt lat="45.301" lon="4.72867">
        <ele>392.6</ele>
        <time>1989-12-31T01:15:29Z</time>
      </trkpt>
      <trkpt lat="45.30068" lon="4.72845">
        <ele>394</ele>
        <time>1989-12-31T01:15:37Z</time>
      </trkpt>
      <trkpt lat="45.30063" lon="4.72841">
        <ele>394.4</ele>
        <time>1989-12-31T01:15:38Z</time>
      </trkpt>
      <trkpt lat="45.30021" lon="4.72807">
        <ele>397.4</ele>
        <time>1989-12-31T01:15:48Z</time>
      </trkpt>
      <trkpt lat="45.29999" lon="4.72782">
        <ele>400</ele>
        <time>1989-12-31T01:15:54Z</time>
      </trkpt>
      <trkpt lat="45.29995" lon="4.72777">
        <ele>400.2</ele>
        <time>1989-12-31T01:15:55Z</time>
      </trkpt>
      <trkpt lat="45.2998" lon="4.72773">
        <ele>401.2</ele>
        <time>1989-12-31T01:15:58Z</time>
      </trkpt>
      <trkpt lat="45.299" lon="4.72814">
        <ele>401</ele>
        <time>1989-12-31T01:16:16Z</time>
      </trkpt>
      <trkpt lat="45.29889" lon="4.7282">
        <ele>401</ele>
        <time>1989-12-31T01:16:18Z</time>
      </trkpt>
      <trkpt lat="45.2987" lon="4.72828">
        <ele>401</ele>
        <time>1989-12-31T01:16:22Z</time>
      </trkpt>
      <trkpt lat="45.29809" lon="4.72847">
        <ele>402.4</ele>
        <time>1989-12-31T01:16:35Z</time>
      </trkpt>
      <trkpt lat="45.29805" lon="4.72848">
        <ele>402.6</ele>
        <time>1989-12-31T01:16:36Z</time>
      </trkpt>
      <trkpt lat="45.29778" lon="4.72864">
        <ele>402.8</ele>
        <time>1989-12-31T01:16:42Z</time>
      </trkpt>
      <trkpt lat="45.29773" lon="4.72866">
        <ele>402.8</ele>
        <time>1989-12-31T01:16:43Z</time>
      </trkpt>
      <trkpt lat="45.29766" lon="4.7287">
        <ele>402.6</ele>
        <time>1989-12-31T01:16:45Z</time>
      </trkpt>
      <trkpt lat="45.29759" lon="4.72876">
        <ele>402.8</ele>
        <time>1989-12-31T01:16:46Z</time>
      </trkpt>
      <trkpt lat="45.29756" lon="4.72878">
        <ele>402.8</ele>
        <time>1989-12-31T01:16:47Z</time>
      </trkpt>
      <trkpt lat="45.29722" lon="4.72909">
        <ele>402.6</ele>
        <time>1989-12-31T01:16:56Z</time>
      </trkpt>
      <trkpt lat="45.29694" lon="4.72933">
        <ele>403.4</ele>
        <time>1989-12-31T01:17:02Z</time>
      </trkpt>
      <trkpt lat="45.29687" lon="4.72939">
        <ele>403.2</ele>
        <time>1989-12-31T01:17:04Z</time>
      </trkpt>
      <trkpt lat="45.29682" lon="4.72943">
        <ele>403.2</ele>
        <time>1989-12-31T01:17:05Z</time>
      </trkpt>
      <trkpt lat="45.29675" lon="4.72949">
        <ele>402.8</ele>
        <time>1989-12-31T01:17:07Z</time>
      </trkpt>
      <trkpt lat="45.29631" lon="4.72979">
        <ele>401</ele>
        <time>1989-12-31T01:17:17Z</time>
      </trkpt>
      <trkpt lat="45.29606" lon="4.7299">
        <ele>401.2</ele>
        <time>1989-12-31T01:17:22Z</time>
      </trkpt>
      <trkpt lat="45.29593" lon="4.72992">
        <ele>400.4</ele>
        <time>1989-12-31T01:17:25Z</time>
      </trkpt>
      <trkpt lat="45.29555" lon="4.72998">
        <ele>398.2</ele>
        <time>1989-12-31T01:17:33Z</time>
      </trkpt>
      <trkpt lat="45.29544" lon="4.73">
        <ele>397.6</ele>
        <time>1989-12-31T01:17:35Z</time>
      </trkpt>
      <trkpt lat="45.29533" lon="4.73001">
        <ele>397.2</ele>
        <time>1989-12-31T01:17:38Z</time>
      </trkpt>
      <trkpt lat="45.29528" lon="4.73002">
        <ele>397</ele>
        <time>1989-12-31T01:17:39Z</time>
      </trkpt>
      <trkpt lat="45.29499" lon="4.73007">
        <ele>397.8</ele>
        <time>1989-12-31T01:17:45Z</time>
      </trkpt>
      <trkpt lat="45.29481" lon="4.73011">
        <ele>396.6</ele>
        <time>1989-12-31T01:17:49Z</time>
      </trkpt>
      <trkpt lat="45.29456" lon="4.73015">
        <ele>396.2</ele>
        <time>1989-12-31T01:17:54Z</time>
      </trkpt>
      <trkpt lat="45.29451" lon="4.73015">
        <ele>396.4</ele>
        <time>1989-12-31T01:17:55Z</time>
      </trkpt>
      <trkpt lat="45.29423" lon="4.73019">
        <ele>396.4</ele>
        <time>1989-12-31T01:18:01Z</time>
      </trkpt>
      <trkpt lat="45.2941" lon="4.7302">
        <ele>396.6</ele>
        <time>1989-12-31T01:18:03Z</time>
      </trkpt>
      <trkpt lat="45.29401" lon="4.73017">
        <ele>397</ele>
        <time>1989-12-31T01:18:05Z</time>
      </trkpt>
      <trkpt lat="45.29382" lon="4.73014">
        <ele>397.4</ele>
        <time>1989-12-31T01:18:09Z</time>
      </trkpt>
      <trkpt lat="45.29359" lon="4.72999">
        <ele>397</ele>
        <time>1989-12-31T01:18:15Z</time>
      </trkpt>
      <trkpt lat="45.29353" lon="4.72996">
        <ele>397</ele>
        <time>1989-12-31T01:18:16Z</time>
      </trkpt>
      <trkpt lat="45.29313" lon="4.72977">
        <ele>396.2</ele>
        <time>1989-12-31T01:18:25Z</time>
      </trkpt>
      <trkpt lat="45.29302" lon="4.72972">
        <ele>396</ele>
        <time>1989-12-31T01:18:27Z</time>
      </trkpt>
      <trkpt lat="45.29298" lon="4.7297">
        <ele>395.8</ele>
        <time>1989-12-31T01:18:28Z</time>
      </trkpt>
      <trkpt lat="45.29275" lon="4.72959">
        <ele>395.4</ele>
        <time>1989-12-31T01:18:33Z</time>
      </trkpt>
      <trkpt lat="45.29266" lon="4.72955">
        <ele>394.8</ele>
        <time>1989-12-31T01:18:35Z</time>
      </trkpt>
      <trkpt lat="45.29195" lon="4.72916">
        <ele>390</ele>
        <time>1989-12-31T01:18:51Z</time>
      </trkpt>
      <trkpt lat="45.2919" lon="4.72913">
        <ele>389.8</ele>
        <time>1989-12-31T01:18:52Z</time>
      </trkpt>
      <trkpt lat="45.29151" lon="4.72895">
        <ele>387</ele>
        <time>1989-12-31T01:19:00Z</time>
      </trkpt>
      <trkpt lat="45.29146" lon="4.72892">
        <ele>386.6</ele>
        <time>1989-12-31T01:19:01Z</time>
      </trkpt>
      <trkpt lat="45.2912" lon="4.72878">
        <ele>386.6</ele>
        <time>1989-12-31T01:19:07Z</time>
      </trkpt>
      <trkpt lat="45.29104" lon="4.72872">
        <ele>386.6</ele>
        <time>1989-12-31T01:19:11Z</time>
      </trkpt>
      <trkpt lat="45.29079" lon="4.72861">
        <ele>385.8</ele>
        <time>1989-12-31T01:19:16Z</time>
      </trkpt>
      <trkpt lat="45.29073" lon="4.72854">
        <ele>385.4</ele>
        <time>1989-12-31T01:19:18Z</time>
      </trkpt>
      <trkpt lat="45.29067" lon="4.72846">
        <ele>385.6</ele>
        <time>1989-12-31T01:19:19Z</time>
      </trkpt>
      <trkpt lat="45.29064" lon="4.72842">
        <ele>385.6</ele>
        <time>1989-12-31T01:19:20Z</time>
      </trkpt>
      <trkpt lat="45.29056" lon="4.72843">
        <ele>385.4</ele>
        <time>1989-12-31T01:19:22Z</time>
      </trkpt>
      <trkpt lat="45.29052" lon="4.72851">
        <ele>384.8</ele>
        <time>1989-12-31T01:19:23Z</time>
      </trkpt>
      <trkpt lat="45.29046" lon="4.72858">
        <ele>384.2</ele>
        <time>1989-12-31T01:19:25Z</time>
      </trkpt>
      <trkpt lat="45.29042" lon="4.72862">
        <ele>384</ele>
        <time>1989-12-31T01:19:26Z</time>
      </trkpt>
      <trkpt lat="45.29037" lon="4.72868">
        <ele>383.8</ele>
        <time>1989-12-31T01:19:27Z</time>
      </trkpt>
      <trkpt lat="45.29017" lon="4.72881">
        <ele>383</ele>
        <time>1989-12-31T01:19:32Z</time>
      </trkpt>
      <trkpt lat="45.29004" lon="4.72886">
        <ele>382.2</ele>
        <time>1989-12-31T01:19:35Z</time>
      </trkpt>
      <trkpt lat="45.28998" lon="4.72888">
        <ele>382</ele>
        <time>1989-12-31T01:19:36Z</time>
      </trkpt>
      <trkpt lat="45.28981" lon="4.72894">
        <ele>381.2</ele>
        <time>1989-12-31T01:19:40Z</time>
      </trkpt>
      <trkpt lat="45.28958" lon="4.729">
        <ele>380.2</ele>
        <time>1989-12-31T01:19:45Z</time>
      </trkpt>
      <trkpt lat="45.28954" lon="4.72901">
        <ele>380</ele>
        <time>1989-12-31T01:19:46Z</time>
      </trkpt>
      <trkpt lat="45.28931" lon="4.72904">
        <ele>379.2</ele>
        <time>1989-12-31T01:19:50Z</time>
      </trkpt>
      <trkpt lat="45.2888" lon="4.72908">
        <ele>377.4</ele>
        <time>1989-12-31T01:20:01Z</time>
      </trkpt>
      <trkpt lat="45.28863" lon="4.72919">
        <ele>376.2</ele>
        <time>1989-12-31T01:20:05Z</time>
      </trkpt>
      <trkpt lat="45.28842" lon="4.72937">
        <ele>374</ele>
        <time>1989-12-31T01:20:10Z</time>
      </trkpt>
      <trkpt lat="45.28828" lon="4.7295">
        <ele>372.6</ele>
        <time>1989-12-31T01:20:13Z</time>
      </trkpt>
      <trkpt lat="45.28823" lon="4.72954">
        <ele>372.4</ele>
        <time>1989-12-31T01:20:15Z</time>
      </trkpt>
      <trkpt lat="45.28812" lon="4.72934">
        <ele>372.2</ele>
        <time>1989-12-31T01:20:18Z</time>
      </trkpt>
      <trkpt lat="45.28803" lon="4.72925">
        <ele>372.2</ele>
        <time>1989-12-31T01:20:20Z</time>
      </trkpt>
      <trkpt lat="45.28794" lon="4.72916">
        <ele>372.4</ele>
        <time>1989-12-31T01:20:23Z</time>
      </trkpt>
      <trkpt lat="45.28782" lon="4.72909">
        <ele>373.2</ele>
        <time>1989-12-31T01:20:25Z</time>
      </trkpt>
      <trkpt lat="45.28762" lon="4.72896">
        <ele>374.4</ele>
        <time>1989-12-31T01:20:30Z</time>
      </trkpt>
      <trkpt lat="45.28743" lon="4.72883">
        <ele>375.4</ele>
        <time>1989-12-31T01:20:34Z</time>
      </trkpt>
      <trkpt lat="45.28736" lon="4.72893">
        <ele>375.4</ele>
        <time>1989-12-31T01:20:36Z</time>
      </trkpt>
      <trkpt lat="45.28729" lon="4.72901">
        <ele>375.4</ele>
        <time>1989-12-31T01:20:38Z</time>
      </trkpt>
      <trkpt lat="45.28722" lon="4.7291">
        <ele>375.4</ele>
        <time>1989-12-31T01:20:40Z</time>
      </trkpt>
      <trkpt lat="45.2872" lon="4.72913">
        <ele>375.4</ele>
        <time>1989-12-31T01:20:41Z</time>
      </trkpt>
      <trkpt lat="45.28725" lon="4.72924">
        <ele>375.2</ele>
        <time>1989-12-31T01:20:43Z</time>
      </trkpt>
      <trkpt lat="45.28726" lon="4.72935">
        <ele>375.4</ele>
        <time>1989-12-31T01:20:44Z</time>
      </trkpt>
      <trkpt lat="45.28714" lon="4.7294">
        <ele>376.6</ele>
        <time>1989-12-31T01:20:47Z</time>
      </trkpt>
      <trkpt lat="45.28709" lon="4.72947">
        <ele>377</ele>
        <time>1989-12-31T01:20:49Z</time>
      </trkpt>
      <trkpt lat="45.28694" lon="4.72951">
        <ele>378</ele>
        <time>1989-12-31T01:20:52Z</time>
      </trkpt>
      <trkpt lat="45.28681" lon="4.72951">
        <ele>379</ele>
        <time>1989-12-31T01:20:54Z</time>
      </trkpt>
      <trkpt lat="45.28675" lon="4.72964">
        <ele>379</ele>
        <time>1989-12-31T01:20:57Z</time>
      </trkpt>
      <trkpt lat="45.28664" lon="4.72984">
        <ele>379.2</ele>
        <time>1989-12-31T01:21:00Z</time>
      </trkpt>
      <trkpt lat="45.28661" lon="4.7299">
        <ele>379.4</ele>
        <time>1989-12-31T01:21:01Z</time>
      </trkpt>
      <trkpt lat="45.28658" lon="4.72997">
        <ele>379.4</ele>
        <time>1989-12-31T01:21:03Z</time>
      </trkpt>
      <trkpt lat="45.28657" lon="4.73027">
        <ele>379.4</ele>
        <time>1989-12-31T01:21:07Z</time>
      </trkpt>
      <trkpt lat="45.28658" lon="4.73055">
        <ele>379</ele>
        <time>1989-12-31T01:21:11Z</time>
      </trkpt>
      <trkpt lat="45.28656" lon="4.73068">
        <ele>378.6</ele>
        <time>1989-12-31T01:21:13Z</time>
      </trkpt>
      <trkpt lat="45.2865" lon="4.731">
        <ele>377.6</ele>
        <time>1989-12-31T01:21:18Z</time>
      </trkpt>
      <trkpt lat="45.28644" lon="4.73124">
        <ele>377.2</ele>
        <time>1989-12-31T01:21:22Z</time>
      </trkpt>
      <trkpt lat="45.28628" lon="4.73167">
        <ele>376.6</ele>
        <time>1989-12-31T01:21:29Z</time>
      </trkpt>
      <trkpt lat="45.28619" lon="4.73183">
        <ele>375.4</ele>
        <time>1989-12-31T01:21:32Z</time>
      </trkpt>
      <trkpt lat="45.28598" lon="4.73215">
        <ele>375.4</ele>
        <time>1989-12-31T01:21:38Z</time>
      </trkpt>
      <trkpt lat="45.28581" lon="4.73242">
        <ele>376</ele>
        <time>1989-12-31T01:21:43Z</time>
      </trkpt>
      <trkpt lat="45.28573" lon="4.73256">
        <ele>376.4</ele>
        <time>1989-12-31T01:21:46Z</time>
      </trkpt>
      <trkpt lat="45.28565" lon="4.73272">
        <ele>377.4</ele>
        <time>1989-12-31T01:21:49Z</time>
      </trkpt>
      <trkpt lat="45.2856" lon="4.73311">
        <ele>380.2</ele>
        <time>1989-12-31T01:21:55Z</time>
      </trkpt>
      <trkpt lat="45.28541" lon="4.73376">
        <ele>382.8</ele>
        <time>1989-12-31T01:22:05Z</time>
      </trkpt>
      <trkpt lat="45.28513" lon="4.73443">
        <ele>385.6</ele>
        <time>1989-12-31T01:22:16Z</time>
      </trkpt>
      <trkpt lat="45.28494" lon="4.73476">
        <ele>386.2</ele>
        <time>1989-12-31T01:22:23Z</time>
      </trkpt>
      <trkpt lat="45.28469" lon="4.73522">
        <ele>387.2</ele>
        <time>1989-12-31T01:22:31Z</time>
      </trkpt>
      <trkpt lat="45.28432" lon="4.73607">
        <ele>389</ele>
        <time>1989-12-31T01:22:46Z</time>
      </trkpt>
      <trkpt lat="45.28402" lon="4.73654">
        <ele>389.8</ele>
        <time>1989-12-31T01:22:55Z</time>
      </trkpt>
      <trkpt lat="45.2837" lon="4.73701">
        <ele>391.2</ele>
        <time>1989-12-31T01:23:04Z</time>
      </trkpt>
      <trkpt lat="45.28305" lon="4.73794">
        <ele>392.6</ele>
        <time>1989-12-31T01:23:24Z</time>
      </trkpt>
      <trkpt lat="45.28261" lon="4.73852">
        <ele>393.6</ele>
        <time>1989-12-31T01:23:36Z</time>
      </trkpt>
      <trkpt lat="45.28257" lon="4.73854">
        <ele>393.8</ele>
        <time>1989-12-31T01:23:37Z</time>
      </trkpt>
      <trkpt lat="45.28233" lon="4.73871">
        <ele>394.8</ele>
        <time>1989-12-31T01:23:42Z</time>
      </trkpt>
      <trkpt lat="45.28227" lon="4.73875">
        <ele>394.8</ele>
        <time>1989-12-31T01:23:44Z</time>
      </trkpt>
      <trkpt lat="45.28125" lon="4.73918">
        <ele>395</ele>
        <time>1989-12-31T01:24:06Z</time>
      </trkpt>
      <trkpt lat="45.2799" lon="4.73948">
        <ele>393.8</ele>
        <time>1989-12-31T01:24:34Z</time>
      </trkpt>
      <trkpt lat="45.27918" lon="4.73961">
        <ele>391.4</ele>
        <time>1989-12-31T01:24:49Z</time>
      </trkpt>
      <trkpt lat="45.27825" lon="4.73962">
        <ele>392.6</ele>
        <time>1989-12-31T01:25:09Z</time>
      </trkpt>
      <trkpt lat="45.27802" lon="4.73965">
        <ele>393.2</ele>
        <time>1989-12-31T01:25:13Z</time>
      </trkpt>
      <trkpt lat="45.2762" lon="4.74024">
        <ele>394</ele>
        <time>1989-12-31T01:25:52Z</time>
      </trkpt>
      <trkpt lat="45.27594" lon="4.74032">
        <ele>394</ele>
        <time>1989-12-31T01:25:58Z</time>
      </trkpt>
      <trkpt lat="45.27579" lon="4.74033">
        <ele>394</ele>
        <time>1989-12-31T01:26:01Z</time>
      </trkpt>
      <trkpt lat="45.27564" lon="4.74032">
        <ele>394</ele>
        <time>1989-12-31T01:26:04Z</time>
      </trkpt>
      <trkpt lat="45.27395" lon="4.73984">
        <ele>389.2</ele>
        <time>1989-12-31T01:26:40Z</time>
      </trkpt>
      <trkpt lat="45.27286" lon="4.73951">
        <ele>386.2</ele>
        <time>1989-12-31T01:27:03Z</time>
      </trkpt>
      <trkpt lat="45.27204" lon="4.73936">
        <ele>385</ele>
        <time>1989-12-31T01:27:20Z</time>
      </trkpt>
      <trkpt lat="45.27125" lon="4.73927">
        <ele>382.6</ele>
        <time>1989-12-31T01:27:36Z</time>
      </trkpt>
      <trkpt lat="45.27063" lon="4.73914">
        <ele>379.6</ele>
        <time>1989-12-31T01:27:49Z</time>
      </trkpt>
      <trkpt lat="45.27028" lon="4.73919">
        <ele>377.2</ele>
        <time>1989-12-31T01:27:57Z</time>
      </trkpt>
      <trkpt lat="45.26995" lon="4.73943">
        <ele>375.6</ele>
        <time>1989-12-31T01:28:04Z</time>
      </trkpt>
      <trkpt lat="45.26989" lon="4.73946">
        <ele>375.4</ele>
        <time>1989-12-31T01:28:06Z</time>
      </trkpt>
      <trkpt lat="45.26955" lon="4.73966">
        <ele>374</ele>
        <time>1989-12-31T01:28:13Z</time>
      </trkpt>
      <trkpt lat="45.26941" lon="4.73966">
        <ele>373</ele>
        <time>1989-12-31T01:28:16Z</time>
      </trkpt>
      <trkpt lat="45.26927" lon="4.73964">
        <ele>372.4</ele>
        <time>1989-12-31T01:28:19Z</time>
      </trkpt>
      <trkpt lat="45.26923" lon="4.73964">
        <ele>372.2</ele>
        <time>1989-12-31T01:28:20Z</time>
      </trkpt>
      <trkpt lat="45.26915" lon="4.73962">
        <ele>372</ele>
        <time>1989-12-31T01:28:22Z</time>
      </trkpt>
      <trkpt lat="45.26904" lon="4.73966">
        <ele>371.6</ele>
        <time>1989-12-31T01:28:24Z</time>
      </trkpt>
      <trkpt lat="45.26887" lon="4.7397">
        <ele>371</ele>
        <time>1989-12-31T01:28:28Z</time>
      </trkpt>
      <trkpt lat="45.26853" lon="4.73962">
        <ele>370.4</ele>
        <time>1989-12-31T01:28:35Z</time>
      </trkpt>
      <trkpt lat="45.26793" lon="4.73953">
        <ele>369</ele>
        <time>1989-12-31T01:28:47Z</time>
      </trkpt>
      <trkpt lat="45.26786" lon="4.73977">
        <ele>369.2</ele>
        <time>1989-12-31T01:28:51Z</time>
      </trkpt>
      <trkpt lat="45.26783" lon="4.73988">
        <ele>369.6</ele>
        <time>1989-12-31T01:28:53Z</time>
      </trkpt>
      <trkpt lat="45.2677" lon="4.74054">
        <ele>369.8</ele>
        <time>1989-12-31T01:29:03Z</time>
      </trkpt>
      <trkpt lat="45.26762" lon="4.7409">
        <ele>369.6</ele>
        <time>1989-12-31T01:29:08Z</time>
      </trkpt>
      <trkpt lat="45.26754" lon="4.74126">
        <ele>370</ele>
        <time>1989-12-31T01:29:14Z</time>
      </trkpt>
      <trkpt lat="45.26745" lon="4.74168">
        <ele>369.6</ele>
        <time>1989-12-31T01:29:20Z</time>
      </trkpt>
      <trkpt lat="45.2674" lon="4.74188">
        <ele>369.4</ele>
        <time>1989-12-31T01:29:23Z</time>
      </trkpt>
      <trkpt lat="45.26739" lon="4.74193">
        <ele>369.2</ele>
        <time>1989-12-31T01:29:24Z</time>
      </trkpt>
      <trkpt lat="45.26735" lon="4.74211">
        <ele>369.2</ele>
        <time>1989-12-31T01:29:27Z</time>
      </trkpt>
      <trkpt lat="45.26732" lon="4.74227">
        <ele>369.6</ele>
        <time>1989-12-31T01:29:29Z</time>
      </trkpt>
      <trkpt lat="45.2673" lon="4.7424">
        <ele>370</ele>
        <time>1989-12-31T01:29:31Z</time>
      </trkpt>
      <trkpt lat="45.26729" lon="4.74246">
        <ele>370.2</ele>
        <time>1989-12-31T01:29:32Z</time>
      </trkpt>
      <trkpt lat="45.26724" lon="4.74271">
        <ele>370.2</ele>
        <time>1989-12-31T01:29:36Z</time>
      </trkpt>
      <trkpt lat="45.26717" lon="4.74309">
        <ele>370</ele>
        <time>1989-12-31T01:29:42Z</time>
      </trkpt>
      <trkpt lat="45.26705" lon="4.74337">
        <ele>370.4</ele>
        <time>1989-12-31T01:29:47Z</time>
      </trkpt>
      <trkpt lat="45.26702" lon="4.74343">
        <ele>370.4</ele>
        <time>1989-12-31T01:29:48Z</time>
      </trkpt>
      <trkpt lat="45.26693" lon="4.74365">
        <ele>370</ele>
        <time>1989-12-31T01:29:51Z</time>
      </trkpt>
      <trkpt lat="45.26658" lon="4.74413">
        <ele>368.8</ele>
        <time>1989-12-31T01:30:01Z</time>
      </trkpt>
      <trkpt lat="45.26643" lon="4.74433">
        <ele>368.2</ele>
        <time>1989-12-31T01:30:06Z</time>
      </trkpt>
      <trkpt lat="45.26638" lon="4.7444">
        <ele>368</ele>
        <time>1989-12-31T01:30:07Z</time>
      </trkpt>
      <trkpt lat="45.26633" lon="4.74448">
        <ele>367.8</ele>
        <time>1989-12-31T01:30:09Z</time>
      </trkpt>
      <trkpt lat="45.26616" lon="4.74478">
        <ele>367.2</ele>
        <time>1989-12-31T01:30:14Z</time>
      </trkpt>
      <trkpt lat="45.26609" lon="4.745">
        <ele>367</ele>
        <time>1989-12-31T01:30:18Z</time>
      </trkpt>
      <trkpt lat="45.26606" lon="4.7451">
        <ele>366.8</ele>
        <time>1989-12-31T01:30:19Z</time>
      </trkpt>
      <trkpt lat="45.26589" lon="4.74567">
        <ele>365.8</ele>
        <time>1989-12-31T01:30:28Z</time>
      </trkpt>
      <trkpt lat="45.26586" lon="4.74574">
        <ele>365.4</ele>
        <time>1989-12-31T01:30:30Z</time>
      </trkpt>
      <trkpt lat="45.2657" lon="4.7461">
        <ele>365</ele>
        <time>1989-12-31T01:30:36Z</time>
      </trkpt>
      <trkpt lat="45.26562" lon="4.74629">
        <ele>364.6</ele>
        <time>1989-12-31T01:30:39Z</time>
      </trkpt>
      <trkpt lat="45.26547" lon="4.74664">
        <ele>363.2</ele>
        <time>1989-12-31T01:30:45Z</time>
      </trkpt>
      <trkpt lat="45.26536" lon="4.74688">
        <ele>363</ele>
        <time>1989-12-31T01:30:49Z</time>
      </trkpt>
      <trkpt lat="45.26519" lon="4.74731">
        <ele>362</ele>
        <time>1989-12-31T01:30:57Z</time>
      </trkpt>
      <trkpt lat="45.26494" lon="4.74793">
        <ele>361.2</ele>
        <time>1989-12-31T01:31:07Z</time>
      </trkpt>
      <trkpt lat="45.26489" lon="4.74807">
        <ele>361.2</ele>
        <time>1989-12-31T01:31:09Z</time>
      </trkpt>
      <trkpt lat="45.26455" lon="4.74904">
        <ele>361.2</ele>
        <time>1989-12-31T01:31:25Z</time>
      </trkpt>
      <trkpt lat="45.26431" lon="4.75005">
        <ele>361</ele>
        <time>1989-12-31T01:31:41Z</time>
      </trkpt>
      <trkpt lat="45.26416" lon="4.75085">
        <ele>362</ele>
        <time>1989-12-31T01:31:53Z</time>
      </trkpt>
      <trkpt lat="45.26402" lon="4.75146">
        <ele>363.4</ele>
        <time>1989-12-31T01:32:02Z</time>
      </trkpt>
      <trkpt lat="45.26378" lon="4.75255">
        <ele>366.4</ele>
        <time>1989-12-31T01:32:19Z</time>
      </trkpt>
      <trkpt lat="45.26356" lon="4.75357">
        <ele>363.8</ele>
        <time>1989-12-31T01:32:34Z</time>
      </trkpt>
      <trkpt lat="45.26342" lon="4.75447">
        <ele>361.8</ele>
        <time>1989-12-31T01:32:48Z</time>
      </trkpt>
      <trkpt lat="45.26334" lon="4.75491">
        <ele>362</ele>
        <time>1989-12-31T01:32:54Z</time>
      </trkpt>
      <trkpt lat="45.26323" lon="4.75547">
        <ele>362.8</ele>
        <time>1989-12-31T01:33:03Z</time>
      </trkpt>
      <trkpt lat="45.2631" lon="4.75587">
        <ele>364.2</ele>
        <time>1989-12-31T01:33:09Z</time>
      </trkpt>
      <trkpt lat="45.26306" lon="4.75594">
        <ele>364</ele>
        <time>1989-12-31T01:33:11Z</time>
      </trkpt>
      <trkpt lat="45.26302" lon="4.75602">
        <ele>363.8</ele>
        <time>1989-12-31T01:33:12Z</time>
      </trkpt>
      <trkpt lat="45.26297" lon="4.75623">
        <ele>363.8</ele>
        <time>1989-12-31T01:33:15Z</time>
      </trkpt>
      <trkpt lat="45.26292" lon="4.75648">
        <ele>363.4</ele>
        <time>1989-12-31T01:33:19Z</time>
      </trkpt>
      <trkpt lat="45.2629" lon="4.75677">
        <ele>363</ele>
        <time>1989-12-31T01:33:23Z</time>
      </trkpt>
      <trkpt lat="45.26288" lon="4.75713">
        <ele>363.4</ele>
        <time>1989-12-31T01:33:29Z</time>
      </trkpt>
      <trkpt lat="45.26291" lon="4.75744">
        <ele>364</ele>
        <time>1989-12-31T01:33:33Z</time>
      </trkpt>
      <trkpt lat="45.26296" lon="4.75772">
        <ele>363.2</ele>
        <time>1989-12-31T01:33:38Z</time>
      </trkpt>
      <trkpt lat="45.26305" lon="4.75793">
        <ele>361.4</ele>
        <time>1989-12-31T01:33:41Z</time>
      </trkpt>
      <trkpt lat="45.26315" lon="4.75821">
        <ele>358.6</ele>
        <time>1989-12-31T01:33:46Z</time>
      </trkpt>
      <trkpt lat="45.26328" lon="4.75836">
        <ele>358.2</ele>
        <time>1989-12-31T01:33:49Z</time>
      </trkpt>
      <trkpt lat="45.26343" lon="4.75847">
        <ele>357.4</ele>
        <time>1989-12-31T01:33:53Z</time>
      </trkpt>
      <trkpt lat="45.26364" lon="4.75856">
        <ele>357.6</ele>
        <time>1989-12-31T01:33:57Z</time>
      </trkpt>
      <trkpt lat="45.26383" lon="4.75868">
        <ele>357.6</ele>
        <time>1989-12-31T01:34:02Z</time>
      </trkpt>
      <trkpt lat="45.264" lon="4.75877">
        <ele>358.4</ele>
        <time>1989-12-31T01:34:05Z</time>
      </trkpt>
      <trkpt lat="45.26416" lon="4.75895">
        <ele>358.8</ele>
        <time>1989-12-31T01:34:10Z</time>
      </trkpt>
      <trkpt lat="45.26428" lon="4.75917">
        <ele>358.8</ele>
        <time>1989-12-31T01:34:14Z</time>
      </trkpt>
      <trkpt lat="45.26434" lon="4.75939">
        <ele>360.2</ele>
        <time>1989-12-31T01:34:17Z</time>
      </trkpt>
      <trkpt lat="45.26435" lon="4.75961">
        <ele>362</ele>
        <time>1989-12-31T01:34:20Z</time>
      </trkpt>
      <trkpt lat="45.26412" lon="4.76137">
        <ele>366</ele>
        <time>1989-12-31T01:34:46Z</time>
      </trkpt>
      <trkpt lat="45.26411" lon="4.76167">
        <ele>367</ele>
        <time>1989-12-31T01:34:51Z</time>
      </trkpt>
      <trkpt lat="45.26429" lon="4.76271">
        <ele>365.2</ele>
        <time>1989-12-31T01:35:06Z</time>
      </trkpt>
      <trkpt lat="45.26433" lon="4.76312">
        <ele>364.6</ele>
        <time>1989-12-31T01:35:13Z</time>
      </trkpt>
      <trkpt lat="45.26425" lon="4.76379">
        <ele>363.4</ele>
        <time>1989-12-31T01:35:22Z</time>
      </trkpt>
      <trkpt lat="45.26422" lon="4.76478">
        <ele>364.4</ele>
        <time>1989-12-31T01:35:37Z</time>
      </trkpt>
      <trkpt lat="45.26431" lon="4.76535">
        <ele>364.8</ele>
        <time>1989-12-31T01:35:46Z</time>
      </trkpt>
      <trkpt lat="45.26452" lon="4.76646">
        <ele>364.2</ele>
        <time>1989-12-31T01:36:02Z</time>
      </trkpt>
      <trkpt lat="45.26463" lon="4.76692">
        <ele>364</ele>
        <time>1989-12-31T01:36:09Z</time>
      </trkpt>
      <trkpt lat="45.26498" lon="4.768">
        <ele>363</ele>
        <time>1989-12-31T01:36:27Z</time>
      </trkpt>
      <trkpt lat="45.26499" lon="4.76813">
        <ele>362.8</ele>
        <time>1989-12-31T01:36:29Z</time>
      </trkpt>
      <trkpt lat="45.26509" lon="4.769">
        <ele>362</ele>
        <time>1989-12-31T01:36:42Z</time>
      </trkpt>
      <trkpt lat="45.26516" lon="4.7697">
        <ele>361</ele>
        <time>1989-12-31T01:36:52Z</time>
      </trkpt>
      <trkpt lat="45.26525" lon="4.77013">
        <ele>360.6</ele>
        <time>1989-12-31T01:36:58Z</time>
      </trkpt>
      <trkpt lat="45.26541" lon="4.7706">
        <ele>359.4</ele>
        <time>1989-12-31T01:37:06Z</time>
      </trkpt>
      <trkpt lat="45.26563" lon="4.77101">
        <ele>358.6</ele>
        <time>1989-12-31T01:37:14Z</time>
      </trkpt>
      <trkpt lat="45.26569" lon="4.77125">
        <ele>358.6</ele>
        <time>1989-12-31T01:37:17Z</time>
      </trkpt>
      <trkpt lat="45.2657" lon="4.77183">
        <ele>359.2</ele>
        <time>1989-12-31T01:37:26Z</time>
      </trkpt>
      <trkpt lat="45.26574" lon="4.77226">
        <ele>360.4</ele>
        <time>1989-12-31T01:37:32Z</time>
      </trkpt>
      <trkpt lat="45.26578" lon="4.77267">
        <ele>360.8</ele>
        <time>1989-12-31T01:37:38Z</time>
      </trkpt>
      <trkpt lat="45.26584" lon="4.7732">
        <ele>362</ele>
        <time>1989-12-31T01:37:46Z</time>
      </trkpt>
      <trkpt lat="45.26585" lon="4.7733">
        <ele>362.2</ele>
        <time>1989-12-31T01:37:47Z</time>
      </trkpt>
      <trkpt lat="45.26594" lon="4.77414">
        <ele>364</ele>
        <time>1989-12-31T01:38:00Z</time>
      </trkpt>
      <trkpt lat="45.26605" lon="4.77512">
        <ele>365.2</ele>
        <time>1989-12-31T01:38:14Z</time>
      </trkpt>
      <trkpt lat="45.26613" lon="4.77563">
        <ele>365</ele>
        <time>1989-12-31T01:38:22Z</time>
      </trkpt>
      <trkpt lat="45.26613" lon="4.77592">
        <ele>364.8</ele>
        <time>1989-12-31T01:38:26Z</time>
      </trkpt>
      <trkpt lat="45.26605" lon="4.77619">
        <ele>363.8</ele>
        <time>1989-12-31T01:38:31Z</time>
      </trkpt>
      <trkpt lat="45.26552" lon="4.77726">
        <ele>358.8</ele>
        <time>1989-12-31T01:38:50Z</time>
      </trkpt>
      <trkpt lat="45.26525" lon="4.77794">
        <ele>354.2</ele>
        <time>1989-12-31T01:39:01Z</time>
      </trkpt>
      <trkpt lat="45.26505" lon="4.77847">
        <ele>351.8</ele>
        <time>1989-12-31T01:39:10Z</time>
      </trkpt>
      <trkpt lat="45.26502" lon="4.77855">
        <ele>351.4</ele>
        <time>1989-12-31T01:39:11Z</time>
      </trkpt>
      <trkpt lat="45.26495" lon="4.77873">
        <ele>351</ele>
        <time>1989-12-31T01:39:14Z</time>
      </trkpt>
      <trkpt lat="45.26484" lon="4.77897">
        <ele>350.4</ele>
        <time>1989-12-31T01:39:18Z</time>
      </trkpt>
      <trkpt lat="45.26476" lon="4.77904">
        <ele>349.4</ele>
        <time>1989-12-31T01:39:20Z</time>
      </trkpt>
      <trkpt lat="45.26465" lon="4.77906">
        <ele>348.6</ele>
        <time>1989-12-31T01:39:23Z</time>
      </trkpt>
      <trkpt lat="45.26399" lon="4.77893">
        <ele>344.4</ele>
        <time>1989-12-31T01:39:36Z</time>
      </trkpt>
      <trkpt lat="45.26358" lon="4.77876">
        <ele>341.8</ele>
        <time>1989-12-31T01:39:45Z</time>
      </trkpt>
      <trkpt lat="45.26333" lon="4.77874">
        <ele>339.6</ele>
        <time>1989-12-31T01:39:51Z</time>
      </trkpt>
      <trkpt lat="45.26312" lon="4.77882">
        <ele>338.4</ele>
        <time>1989-12-31T01:39:55Z</time>
      </trkpt>
      <trkpt lat="45.26279" lon="4.77895">
        <ele>336.4</ele>
        <time>1989-12-31T01:40:02Z</time>
      </trkpt>
      <trkpt lat="45.26261" lon="4.77895">
        <ele>335.2</ele>
        <time>1989-12-31T01:40:06Z</time>
      </trkpt>
      <trkpt lat="45.26229" lon="4.77882">
        <ele>332.8</ele>
        <time>1989-12-31T01:40:13Z</time>
      </trkpt>
      <trkpt lat="45.26187" lon="4.77861">
        <ele>328.2</ele>
        <time>1989-12-31T01:40:22Z</time>
      </trkpt>
      <trkpt lat="45.26166" lon="4.7785">
        <ele>326.8</ele>
        <time>1989-12-31T01:40:27Z</time>
      </trkpt>
      <trkpt lat="45.26093" lon="4.77821">
        <ele>321.2</ele>
        <time>1989-12-31T01:40:42Z</time>
      </trkpt>
      <trkpt lat="45.26078" lon="4.77806">
        <ele>319.8</ele>
        <time>1989-12-31T01:40:46Z</time>
      </trkpt>
      <trkpt lat="45.26007" lon="4.77699">
        <ele>309.8</ele>
        <time>1989-12-31T01:41:08Z</time>
      </trkpt>
      <trkpt lat="45.26002" lon="4.7768">
        <ele>309.2</ele>
        <time>1989-12-31T01:41:11Z</time>
      </trkpt>
      <trkpt lat="45.25999" lon="4.77663">
        <ele>308.4</ele>
        <time>1989-12-31T01:41:13Z</time>
      </trkpt>
      <trkpt lat="45.26003" lon="4.77606">
        <ele>306.2</ele>
        <time>1989-12-31T01:41:22Z</time>
      </trkpt>
      <trkpt lat="45.26002" lon="4.77591">
        <ele>306.4</ele>
        <time>1989-12-31T01:41:24Z</time>
      </trkpt>
      <trkpt lat="45.25996" lon="4.77579">
        <ele>306.4</ele>
        <time>1989-12-31T01:41:26Z</time>
      </trkpt>
      <trkpt lat="45.25989" lon="4.77573">
        <ele>306.8</ele>
        <time>1989-12-31T01:41:28Z</time>
      </trkpt>
      <trkpt lat="45.25977" lon="4.77575">
        <ele>305.4</ele>
        <time>1989-12-31T01:41:30Z</time>
      </trkpt>
      <trkpt lat="45.25947" lon="4.77593">
        <ele>299.6</ele>
        <time>1989-12-31T01:41:37Z</time>
      </trkpt>
      <trkpt lat="45.25927" lon="4.77597">
        <ele>298.2</ele>
        <time>1989-12-31T01:41:41Z</time>
      </trkpt>
      <trkpt lat="45.25899" lon="4.77594">
        <ele>296</ele>
        <time>1989-12-31T01:41:47Z</time>
      </trkpt>
      <trkpt lat="45.25871" lon="4.77583">
        <ele>293.6</ele>
        <time>1989-12-31T01:41:53Z</time>
      </trkpt>
      <trkpt lat="45.25792" lon="4.77514">
        <ele>286.4</ele>
        <time>1989-12-31T01:42:12Z</time>
      </trkpt>
      <trkpt lat="45.25772" lon="4.77493">
        <ele>284.8</ele>
        <time>1989-12-31T01:42:17Z</time>
      </trkpt>
      <trkpt lat="45.25646" lon="4.77298">
        <ele>270</ele>
        <time>1989-12-31T01:42:56Z</time>
      </trkpt>
      <trkpt lat="45.25633" lon="4.77268">
        <ele>268</ele>
        <time>1989-12-31T01:43:01Z</time>
      </trkpt>
      <trkpt lat="45.2563" lon="4.77248">
        <ele>267.8</ele>
        <time>1989-12-31T01:43:04Z</time>
      </trkpt>
      <trkpt lat="45.25629" lon="4.77211">
        <ele>268.4</ele>
        <time>1989-12-31T01:43:10Z</time>
      </trkpt>
      <trkpt lat="45.25624" lon="4.77201">
        <ele>267.8</ele>
        <time>1989-12-31T01:43:11Z</time>
      </trkpt>
      <trkpt lat="45.25618" lon="4.772">
        <ele>266</ele>
        <time>1989-12-31T01:43:13Z</time>
      </trkpt>
      <trkpt lat="45.25611" lon="4.77204">
        <ele>263.6</ele>
        <time>1989-12-31T01:43:14Z</time>
      </trkpt>
      <trkpt lat="45.25608" lon="4.77213">
        <ele>261.2</ele>
        <time>1989-12-31T01:43:16Z</time>
      </trkpt>
      <trkpt lat="45.25614" lon="4.77267">
        <ele>260.4</ele>
        <time>1989-12-31T01:43:24Z</time>
      </trkpt>
      <trkpt lat="45.25622" lon="4.77319">
        <ele>257.4</ele>
        <time>1989-12-31T01:43:31Z</time>
      </trkpt>
      <trkpt lat="45.25632" lon="4.77366">
        <ele>254</ele>
        <time>1989-12-31T01:43:39Z</time>
      </trkpt>
      <trkpt lat="45.25656" lon="4.77456">
        <ele>249.4</ele>
        <time>1989-12-31T01:43:53Z</time>
      </trkpt>
      <trkpt lat="45.25664" lon="4.775">
        <ele>247</ele>
        <time>1989-12-31T01:43:59Z</time>
      </trkpt>
      <trkpt lat="45.25675" lon="4.77529">
        <ele>245.8</ele>
        <time>1989-12-31T01:44:04Z</time>
      </trkpt>
      <trkpt lat="45.25697" lon="4.77562">
        <ele>243.8</ele>
        <time>1989-12-31T01:44:11Z</time>
      </trkpt>
      <trkpt lat="45.25709" lon="4.77583">
        <ele>241.4</ele>
        <time>1989-12-31T01:44:15Z</time>
      </trkpt>
      <trkpt lat="45.25726" lon="4.77599">
        <ele>244.4</ele>
        <time>1989-12-31T01:44:19Z</time>
      </trkpt>
      <trkpt lat="45.25731" lon="4.77614">
        <ele>242.6</ele>
        <time>1989-12-31T01:44:21Z</time>
      </trkpt>
      <trkpt lat="45.25726" lon="4.77624">
        <ele>238.8</ele>
        <time>1989-12-31T01:44:23Z</time>
      </trkpt>
      <trkpt lat="45.2572" lon="4.77621">
        <ele>237</ele>
        <time>1989-12-31T01:44:24Z</time>
      </trkpt>
      <trkpt lat="45.2571" lon="4.77611">
        <ele>236</ele>
        <time>1989-12-31T01:44:27Z</time>
      </trkpt>
      <trkpt lat="45.25681" lon="4.77564">
        <ele>236.8</ele>
        <time>1989-12-31T01:44:36Z</time>
      </trkpt>
      <trkpt lat="45.25673" lon="4.77561">
        <ele>234.2</ele>
        <time>1989-12-31T01:44:38Z</time>
      </trkpt>
      <trkpt lat="45.25664" lon="4.77566">
        <ele>230.4</ele>
        <time>1989-12-31T01:44:40Z</time>
      </trkpt>
      <trkpt lat="45.25659" lon="4.7757">
        <ele>228.8</ele>
        <time>1989-12-31T01:44:41Z</time>
      </trkpt>
      <trkpt lat="45.25655" lon="4.7758">
        <ele>226.8</ele>
        <time>1989-12-31T01:44:43Z</time>
      </trkpt>
      <trkpt lat="45.25658" lon="4.77592">
        <ele>226</ele>
        <time>1989-12-31T01:44:45Z</time>
      </trkpt>
      <trkpt lat="45.25692" lon="4.77641">
        <ele>225.8</ele>
        <time>1989-12-31T01:44:55Z</time>
      </trkpt>
      <trkpt lat="45.25717" lon="4.77672">
        <ele>223.6</ele>
        <time>1989-12-31T01:45:02Z</time>
      </trkpt>
      <trkpt lat="45.25727" lon="4.7769">
        <ele>222.8</ele>
        <time>1989-12-31T01:45:05Z</time>
      </trkpt>
      <trkpt lat="45.25732" lon="4.77703">
        <ele>222</ele>
        <time>1989-12-31T01:45:07Z</time>
      </trkpt>
      <trkpt lat="45.25744" lon="4.77768">
        <ele>215.2</ele>
        <time>1989-12-31T01:45:17Z</time>
      </trkpt>
      <trkpt lat="45.25752" lon="4.77794">
        <ele>213.6</ele>
        <time>1989-12-31T01:45:21Z</time>
      </trkpt>
      <trkpt lat="45.25773" lon="4.77832">
        <ele>210.4</ele>
        <time>1989-12-31T01:45:28Z</time>
      </trkpt>
      <trkpt lat="45.25786" lon="4.77844">
        <ele>209.2</ele>
        <time>1989-12-31T01:45:31Z</time>
      </trkpt>
      <trkpt lat="45.25798" lon="4.77851">
        <ele>208</ele>
        <time>1989-12-31T01:45:34Z</time>
      </trkpt>
      <trkpt lat="45.25815" lon="4.77852">
        <ele>209.6</ele>
        <time>1989-12-31T01:45:38Z</time>
      </trkpt>
      <trkpt lat="45.25822" lon="4.77854">
        <ele>209.8</ele>
        <time>1989-12-31T01:45:39Z</time>
      </trkpt>
      <trkpt lat="45.25826" lon="4.77859">
        <ele>208</ele>
        <time>1989-12-31T01:45:40Z</time>
      </trkpt>
      <trkpt lat="45.25826" lon="4.77867">
        <ele>205.2</ele>
        <time>1989-12-31T01:45:41Z</time>
      </trkpt>
      <trkpt lat="45.25824" lon="4.77874">
        <ele>202.8</ele>
        <time>1989-12-31T01:45:42Z</time>
      </trkpt>
      <trkpt lat="45.25817" lon="4.77875">
        <ele>201.4</ele>
        <time>1989-12-31T01:45:44Z</time>
      </trkpt>
      <trkpt lat="45.25807" lon="4.7787">
        <ele>201.4</ele>
        <time>1989-12-31T01:45:46Z</time>
      </trkpt>
      <trkpt lat="45.25788" lon="4.77869">
        <ele>201.2</ele>
        <time>1989-12-31T01:45:50Z</time>
      </trkpt>
      <trkpt lat="45.25714" lon="4.77889">
        <ele>194.2</ele>
        <time>1989-12-31T01:46:06Z</time>
      </trkpt>
      <trkpt lat="45.25677" lon="4.77886">
        <ele>190.4</ele>
        <time>1989-12-31T01:46:13Z</time>
      </trkpt>
      <trkpt lat="45.25633" lon="4.77879">
        <ele>186</ele>
        <time>1989-12-31T01:46:23Z</time>
      </trkpt>
      <trkpt lat="45.25612" lon="4.77861">
        <ele>184.2</ele>
        <time>1989-12-31T01:46:28Z</time>
      </trkpt>
      <trkpt lat="45.25594" lon="4.77854">
        <ele>183</ele>
        <time>1989-12-31T01:46:32Z</time>
      </trkpt>
      <trkpt lat="45.25588" lon="4.77854">
        <ele>182.4</ele>
        <time>1989-12-31T01:46:33Z</time>
      </trkpt>
      <trkpt lat="45.25579" lon="4.77863">
        <ele>180.8</ele>
        <time>1989-12-31T01:46:35Z</time>
      </trkpt>
      <trkpt lat="45.25562" lon="4.77889">
        <ele>178.8</ele>
        <time>1989-12-31T01:46:40Z</time>
      </trkpt>
      <trkpt lat="45.25542" lon="4.7792">
        <ele>174.8</ele>
        <time>1989-12-31T01:46:46Z</time>
      </trkpt>
      <trkpt lat="45.25536" lon="4.77929">
        <ele>173.8</ele>
        <time>1989-12-31T01:46:48Z</time>
      </trkpt>
      <trkpt lat="45.25488" lon="4.77986">
        <ele>167</ele>
        <time>1989-12-31T01:47:01Z</time>
      </trkpt>
      <trkpt lat="45.2548" lon="4.77995">
        <ele>166.2</ele>
        <time>1989-12-31T01:47:03Z</time>
      </trkpt>
      <trkpt lat="45.25478" lon="4.77998">
        <ele>165.8</ele>
        <time>1989-12-31T01:47:04Z</time>
      </trkpt>
      <trkpt lat="45.25464" lon="4.78014">
        <ele>163.8</ele>
        <time>1989-12-31T01:47:08Z</time>
      </trkpt>
      <trkpt lat="45.25456" lon="4.78024">
        <ele>162.6</ele>
        <time>1989-12-31T01:47:10Z</time>
      </trkpt>
      <trkpt lat="45.25451" lon="4.7803">
        <ele>161.8</ele>
        <time>1989-12-31T01:47:11Z</time>
      </trkpt>
      <trkpt lat="45.25429" lon="4.78055">
        <ele>159.8</ele>
        <time>1989-12-31T01:47:17Z</time>
      </trkpt>
      <trkpt lat="45.25419" lon="4.78067">
        <ele>158</ele>
        <time>1989-12-31T01:47:20Z</time>
      </trkpt>
      <trkpt lat="45.25407" lon="4.78087">
        <ele>156.6</ele>
        <time>1989-12-31T01:47:24Z</time>
      </trkpt>
      <trkpt lat="45.25411" lon="4.78105">
        <ele>156</ele>
        <time>1989-12-31T01:47:26Z</time>
      </trkpt>
      <trkpt lat="45.25418" lon="4.78125">
        <ele>155.6</ele>
        <time>1989-12-31T01:47:30Z</time>
      </trkpt>
      <trkpt lat="45.25421" lon="4.78133">
        <ele>155.8</ele>
        <time>1989-12-31T01:47:31Z</time>
      </trkpt>
      <trkpt lat="45.25434" lon="4.78163">
        <ele>155.6</ele>
        <time>1989-12-31T01:47:36Z</time>
      </trkpt>
      <trkpt lat="45.25458" lon="4.78223">
        <ele>153</ele>
        <time>1989-12-31T01:47:46Z</time>
      </trkpt>
      <trkpt lat="45.25468" lon="4.78251">
        <ele>152.8</ele>
        <time>1989-12-31T01:47:51Z</time>
      </trkpt>
      <trkpt lat="45.25477" lon="4.78276">
        <ele>151.6</ele>
        <time>1989-12-31T01:47:55Z</time>
      </trkpt>
      <trkpt lat="45.25478" lon="4.7828">
        <ele>151.4</ele>
        <time>1989-12-31T01:47:56Z</time>
      </trkpt>
      <trkpt lat="45.25481" lon="4.7829">
        <ele>151.4</ele>
        <time>1989-12-31T01:47:57Z</time>
      </trkpt>
      <trkpt lat="45.25478" lon="4.78299">
        <ele>151.2</ele>
        <time>1989-12-31T01:47:59Z</time>
      </trkpt>
      <trkpt lat="45.25472" lon="4.7831">
        <ele>150.8</ele>
        <time>1989-12-31T01:48:01Z</time>
      </trkpt>
      <trkpt lat="45.25467" lon="4.78316">
        <ele>150.4</ele>
        <time>1989-12-31T01:48:02Z</time>
      </trkpt>
      <trkpt lat="45.25446" lon="4.78349">
        <ele>148.6</ele>
        <time>1989-12-31T01:48:08Z</time>
      </trkpt>
      <trkpt lat="45.25433" lon="4.78372">
        <ele>147.4</ele>
        <time>1989-12-31T01:48:13Z</time>
      </trkpt>
      <trkpt lat="45.25417" lon="4.784">
        <ele>145.6</ele>
        <time>1989-12-31T01:48:18Z</time>
      </trkpt>
      <trkpt lat="45.25414" lon="4.78405">
        <ele>145.4</ele>
        <time>1989-12-31T01:48:19Z</time>
      </trkpt>
      <trkpt lat="45.25413" lon="4.78412">
        <ele>145.2</ele>
        <time>1989-12-31T01:48:20Z</time>
      </trkpt>
      <trkpt lat="45.25414" lon="4.78419">
        <ele>145.2</ele>
        <time>1989-12-31T01:48:21Z</time>
      </trkpt>
      <trkpt lat="45.2542" lon="4.78429">
        <ele>145.2</ele>
        <time>1989-12-31T01:48:23Z</time>
      </trkpt>
      <trkpt lat="45.25441" lon="4.78459">
        <ele>145</ele>
        <time>1989-12-31T01:48:29Z</time>
      </trkpt>
      <trkpt lat="45.25448" lon="4.78468">
        <ele>145</ele>
        <time>1989-12-31T01:48:31Z</time>
      </trkpt>
      <trkpt lat="45.25478" lon="4.78507">
        <ele>144.6</ele>
        <time>1989-12-31T01:48:40Z</time>
      </trkpt>
      <trkpt lat="45.25489" lon="4.78529">
        <ele>144.8</ele>
        <time>1989-12-31T01:48:44Z</time>
      </trkpt>
      <trkpt lat="45.25496" lon="4.78542">
        <ele>144.4</ele>
        <time>1989-12-31T01:48:46Z</time>
      </trkpt>
      <trkpt lat="45.25501" lon="4.78548">
        <ele>144</ele>
        <time>1989-12-31T01:48:47Z</time>
      </trkpt>
      <trkpt lat="45.2551" lon="4.78553">
        <ele>143.8</ele>
        <time>1989-12-31T01:48:49Z</time>
      </trkpt>
      <trkpt lat="45.25543" lon="4.78561">
        <ele>143</ele>
        <time>1989-12-31T01:48:56Z</time>
      </trkpt>
      <trkpt lat="45.25548" lon="4.78564">
        <ele>143</ele>
        <time>1989-12-31T01:48:57Z</time>
      </trkpt>
      <trkpt lat="45.25554" lon="4.78572">
        <ele>143</ele>
        <time>1989-12-31T01:48:59Z</time>
      </trkpt>
      <trkpt lat="45.25559" lon="4.78576">
        <ele>143</ele>
        <time>1989-12-31T01:49:00Z</time>
      </trkpt>
      <trkpt lat="45.25562" lon="4.78575">
        <ele>143</ele>
        <time>1989-12-31T01:49:01Z</time>
      </trkpt>
      <trkpt lat="45.25564" lon="4.78572">
        <ele>143</ele>
        <time>1989-12-31T01:49:02Z</time>
      </trkpt>
      <trkpt lat="45.25571" lon="4.78574">
        <ele>143</ele>
        <time>1989-12-31T01:49:03Z</time>
      </trkpt>
      <trkpt lat="45.25578" lon="4.78577">
        <ele>143</ele>
        <time>1989-12-31T01:49:05Z</time>
      </trkpt>
      <trkpt lat="45.25583" lon="4.78582">
        <ele>143</ele>
        <time>1989-12-31T01:49:06Z</time>
      </trkpt>
      <trkpt lat="45.25589" lon="4.78588">
        <ele>143.2</ele>
        <time>1989-12-31T01:49:08Z</time>
      </trkpt>
      <trkpt lat="45.25597" lon="4.78604">
        <ele>143.2</ele>
        <time>1989-12-31T01:49:10Z</time>
      </trkpt>
      <trkpt lat="45.256" lon="4.78608">
        <ele>143.2</ele>
        <time>1989-12-31T01:49:11Z</time>
      </trkpt>
      <trkpt lat="45.25609" lon="4.78617">
        <ele>143</ele>
        <time>1989-12-31T01:49:14Z</time>
      </trkpt>
      <trkpt lat="45.25637" lon="4.78658">
        <ele>143</ele>
        <time>1989-12-31T01:49:22Z</time>
      </trkpt>
      <trkpt lat="45.25639" lon="4.78663">
        <ele>143</ele>
        <time>1989-12-31T01:49:23Z</time>
      </trkpt>
      <trkpt lat="45.25644" lon="4.78675">
        <ele>143</ele>
        <time>1989-12-31T01:49:25Z</time>
      </trkpt>
      <trkpt lat="45.25647" lon="4.7868">
        <ele>143</ele>
        <time>1989-12-31T01:49:26Z</time>
      </trkpt>
      <trkpt lat="45.2565" lon="4.78686">
        <ele>142.8</ele>
        <time>1989-12-31T01:49:27Z</time>
      </trkpt>
      <trkpt lat="45.25655" lon="4.7869">
        <ele>142.6</ele>
        <time>1989-12-31T01:49:28Z</time>
      </trkpt>
      <trkpt lat="45.25669" lon="4.78702">
        <ele>142.2</ele>
        <time>1989-12-31T01:49:31Z</time>
      </trkpt>
      <trkpt lat="45.25689" lon="4.78726">
        <ele>142.2</ele>
        <time>1989-12-31T01:49:37Z</time>
      </trkpt>
      <trkpt lat="45.25697" lon="4.78735">
        <ele>141.8</ele>
        <time>1989-12-31T01:49:39Z</time>
      </trkpt>
      <trkpt lat="45.2571" lon="4.78754">
        <ele>142.2</ele>
        <time>1989-12-31T01:49:43Z</time>
      </trkpt>
      <trkpt lat="45.25727" lon="4.7878">
        <ele>142.2</ele>
        <time>1989-12-31T01:49:48Z</time>
      </trkpt>
      <trkpt lat="45.25759" lon="4.78829">
        <ele>143.2</ele>
        <time>1989-12-31T01:49:58Z</time>
      </trkpt>
      <trkpt lat="45.25763" lon="4.78836">
        <ele>143.4</ele>
        <time>1989-12-31T01:49:59Z</time>
      </trkpt>
      <trkpt lat="45.25776" lon="4.78868">
        <ele>142.8</ele>
        <time>1989-12-31T01:50:04Z</time>
      </trkpt>
      <trkpt lat="45.2578" lon="4.78886">
        <ele>142.4</ele>
        <time>1989-12-31T01:50:07Z</time>
      </trkpt>
      <trkpt lat="45.25783" lon="4.78919">
        <ele>142.2</ele>
        <time>1989-12-31T01:50:12Z</time>
      </trkpt>
      <trkpt lat="45.25785" lon="4.78931">
        <ele>142.4</ele>
        <time>1989-12-31T01:50:14Z</time>
      </trkpt>
      <trkpt lat="45.25787" lon="4.78937">
        <ele>142.4</ele>
        <time>1989-12-31T01:50:15Z</time>
      </trkpt>
      <trkpt lat="45.25788" lon="4.78942">
        <ele>142.4</ele>
        <time>1989-12-31T01:50:16Z</time>
      </trkpt>
      <trkpt lat="45.25799" lon="4.78962">
        <ele>142.6</ele>
        <time>1989-12-31T01:50:19Z</time>
      </trkpt>
      <trkpt lat="45.25816" lon="4.78983">
        <ele>143.4</ele>
        <time>1989-12-31T01:50:24Z</time>
      </trkpt>
      <trkpt lat="45.25826" lon="4.79003">
        <ele>143.8</ele>
        <time>1989-12-31T01:50:28Z</time>
      </trkpt>
      <trkpt lat="45.25841" lon="4.79044">
        <ele>144</ele>
        <time>1989-12-31T01:50:34Z</time>
      </trkpt>
      <trkpt lat="45.25854" lon="4.79094">
        <ele>145</ele>
        <time>1989-12-31T01:50:42Z</time>
      </trkpt>
      <trkpt lat="45.25862" lon="4.79133">
        <ele>144.4</ele>
        <time>1989-12-31T01:50:48Z</time>
      </trkpt>
      <trkpt lat="45.25862" lon="4.79146">
        <ele>144.2</ele>
        <time>1989-12-31T01:50:50Z</time>
      </trkpt>
      <trkpt lat="45.25862" lon="4.79157">
        <ele>144.2</ele>
        <time>1989-12-31T01:50:52Z</time>
      </trkpt>
      <trkpt lat="45.25862" lon="4.79198">
        <ele>143.2</ele>
        <time>1989-12-31T01:50:58Z</time>
      </trkpt>
      <trkpt lat="45.25866" lon="4.79235">
        <ele>143.2</ele>
        <time>1989-12-31T01:51:03Z</time>
      </trkpt>
      <trkpt lat="45.25868" lon="4.79259">
        <ele>143</ele>
        <time>1989-12-31T01:51:07Z</time>
      </trkpt>
      <trkpt lat="45.25869" lon="4.79282">
        <ele>142.8</ele>
        <time>1989-12-31T01:51:10Z</time>
      </trkpt>
      <trkpt lat="45.25856" lon="4.79337">
        <ele>140.4</ele>
      </trkpt>
      <trkpt lat="45.25856" lon="4.79337">
        <ele>140.4</ele>
      </trkpt>
      <trkpt lat="45.25852" lon="4.79352">
        <ele>140</ele>
      </trkpt>
      <trkpt lat="45.25854" lon="4.7937">
        <ele>140</ele>
      </trkpt>
      <trkpt lat="45.25856" lon="4.7938">
        <ele>139.9</ele>
      </trkpt>
      <trkpt lat="45.25859" lon="4.79384">
        <ele>140</ele>
      </trkpt>
      <trkpt lat="45.25864" lon="4.7939">
        <ele>140</ele>
      </trkpt>
      <trkpt lat="45.25872" lon="4.79395">
        <ele>140</ele>
      </trkpt>
      <trkpt lat="45.25884" lon="4.79404">
        <ele>139.7</ele>
      </trkpt>
      <trkpt lat="45.25911" lon="4.79425">
        <ele>139.8</ele>
      </trkpt>
      <trkpt lat="45.25918" lon="4.79428">
        <ele>139.8</ele>
      </trkpt>
      <trkpt lat="45.25918" lon="4.79428">
        <ele>139.8</ele>
      </trkpt>
      <trkpt lat="45.25911" lon="4.79425">
        <ele>139.8</ele>
        <time>1989-12-31T01:52:07Z</time>
      </trkpt>
      <trkpt lat="45.25932" lon="4.79435">
        <ele>139.4</ele>
        <time>1989-12-31T01:52:12Z</time>
      </trkpt>
      <trkpt lat="45.25951" lon="4.7944">
        <ele>139.4</ele>
        <time>1989-12-31T01:52:16Z</time>
      </trkpt>
      <trkpt lat="45.26021" lon="4.79455">
        <ele>140</ele>
        <time>1989-12-31T01:52:30Z</time>
      </trkpt>
      <trkpt lat="45.26039" lon="4.79464">
        <ele>139.8</ele>
        <time>1989-12-31T01:52:34Z</time>
      </trkpt>
      <trkpt lat="45.26086" lon="4.79496">
        <ele>139.2</ele>
        <time>1989-12-31T01:52:45Z</time>
      </trkpt>
      <trkpt lat="45.26174" lon="4.79551">
        <ele>140.4</ele>
        <time>1989-12-31T01:53:05Z</time>
      </trkpt>
      <trkpt lat="45.26309" lon="4.79625">
        <ele>137.6</ele>
        <time>1989-12-31T01:53:35Z</time>
      </trkpt>
      <trkpt lat="45.26368" lon="4.79669">
        <ele>138</ele>
        <time>1989-12-31T01:53:49Z</time>
      </trkpt>
      <trkpt lat="45.26432" lon="4.79726">
        <ele>138.4</ele>
        <time>1989-12-31T01:54:05Z</time>
      </trkpt>
      <trkpt lat="45.26469" lon="4.79764">
        <ele>138.8</ele>
        <time>1989-12-31T01:54:14Z</time>
      </trkpt>
      <trkpt lat="45.26482" lon="4.79777">
        <ele>138.4</ele>
        <time>1989-12-31T01:54:17Z</time>
      </trkpt>
      <trkpt lat="45.265" lon="4.79806">
        <ele>139</ele>
        <time>1989-12-31T01:54:23Z</time>
      </trkpt>
      <trkpt lat="45.26536" lon="4.79869">
        <ele>138.2</ele>
        <time>1989-12-31T01:54:35Z</time>
      </trkpt>
      <trkpt lat="45.2654" lon="4.79873">
        <ele>138.2</ele>
        <time>1989-12-31T01:54:36Z</time>
      </trkpt>
      <trkpt lat="45.2655" lon="4.79888">
        <ele>138.8</ele>
        <time>1989-12-31T01:54:39Z</time>
      </trkpt>
      <trkpt lat="45.2656" lon="4.79897">
        <ele>139</ele>
        <time>1989-12-31T01:54:41Z</time>
      </trkpt>
      <trkpt lat="45.26565" lon="4.79901">
        <ele>139</ele>
        <time>1989-12-31T01:54:43Z</time>
      </trkpt>
      <trkpt lat="45.26583" lon="4.79924">
        <ele>139.8</ele>
        <time>1989-12-31T01:54:48Z</time>
      </trkpt>
      <trkpt lat="45.26588" lon="4.79933">
        <ele>139.2</ele>
        <time>1989-12-31T01:54:49Z</time>
      </trkpt>
      <trkpt lat="45.26596" lon="4.79935">
        <ele>138.6</ele>
        <time>1989-12-31T01:54:51Z</time>
      </trkpt>
      <trkpt lat="45.2661" lon="4.79934">
        <ele>137.8</ele>
        <time>1989-12-31T01:54:54Z</time>
      </trkpt>
      <trkpt lat="45.2662" lon="4.79935">
        <ele>137.6</ele>
        <time>1989-12-31T01:54:56Z</time>
      </trkpt>
      <trkpt lat="45.26644" lon="4.79942">
        <ele>137.2</ele>
        <time>1989-12-31T01:55:01Z</time>
      </trkpt>
      <trkpt lat="45.26675" lon="4.79958">
        <ele>137</ele>
        <time>1989-12-31T01:55:08Z</time>
      </trkpt>
      <trkpt lat="45.26682" lon="4.79962">
        <ele>137</ele>
        <time>1989-12-31T01:55:09Z</time>
      </trkpt>
      <trkpt lat="45.26701" lon="4.79973">
        <ele>137</ele>
        <time>1989-12-31T01:55:14Z</time>
      </trkpt>
      <trkpt lat="45.26729" lon="4.79986">
        <ele>137</ele>
        <time>1989-12-31T01:55:20Z</time>
      </trkpt>
      <trkpt lat="45.26743" lon="4.8">
        <ele>137</ele>
        <time>1989-12-31T01:55:23Z</time>
      </trkpt>
      <trkpt lat="45.268" lon="4.80044">
        <ele>137.6</ele>
        <time>1989-12-31T01:55:37Z</time>
      </trkpt>
      <trkpt lat="45.26809" lon="4.80056">
        <ele>138</ele>
        <time>1989-12-31T01:55:39Z</time>
      </trkpt>
      <trkpt lat="45.2682" lon="4.80055">
        <ele>138</ele>
        <time>1989-12-31T01:55:42Z</time>
      </trkpt>
      <trkpt lat="45.26845" lon="4.80055">
        <ele>137.6</ele>
        <time>1989-12-31T01:55:47Z</time>
      </trkpt>
      <trkpt lat="45.26862" lon="4.80055">
        <ele>137</ele>
        <time>1989-12-31T01:55:50Z</time>
      </trkpt>
      <trkpt lat="45.26891" lon="4.80054">
        <ele>137.2</ele>
        <time>1989-12-31T01:55:56Z</time>
      </trkpt>
      <trkpt lat="45.2692" lon="4.80054">
        <ele>138</ele>
        <time>1989-12-31T01:56:02Z</time>
      </trkpt>
      <trkpt lat="45.26959" lon="4.80054">
        <ele>138</ele>
        <time>1989-12-31T01:56:10Z</time>
      </trkpt>
      <trkpt lat="45.26989" lon="4.80053">
        <ele>138</ele>
        <time>1989-12-31T01:56:17Z</time>
      </trkpt>
      <trkpt lat="45.27007" lon="4.80052">
        <ele>138</ele>
        <time>1989-12-31T01:56:21Z</time>
      </trkpt>
      <trkpt lat="45.27074" lon="4.80038">
        <ele>138</ele>
        <time>1989-12-31T01:56:35Z</time>
      </trkpt>
      <trkpt lat="45.27085" lon="4.80036">
        <ele>138.2</ele>
        <time>1989-12-31T01:56:37Z</time>
      </trkpt>
      <trkpt lat="45.27092" lon="4.80035">
        <ele>138.4</ele>
        <time>1989-12-31T01:56:38Z</time>
      </trkpt>
      <trkpt lat="45.27122" lon="4.80029">
        <ele>139</ele>
        <time>1989-12-31T01:56:45Z</time>
      </trkpt>
      <trkpt lat="45.27134" lon="4.80026">
        <ele>139</ele>
        <time>1989-12-31T01:56:47Z</time>
      </trkpt>
      <trkpt lat="45.27142" lon="4.80024">
        <ele>139</ele>
        <time>1989-12-31T01:56:49Z</time>
      </trkpt>
      <trkpt lat="45.27168" lon="4.8002">
        <ele>138.8</ele>
        <time>1989-12-31T01:56:54Z</time>
      </trkpt>
      <trkpt lat="45.27172" lon="4.80019">
        <ele>138.8</ele>
        <time>1989-12-31T01:56:55Z</time>
      </trkpt>
      <trkpt lat="45.27184" lon="4.80018">
        <ele>138.6</ele>
        <time>1989-12-31T01:56:58Z</time>
      </trkpt>
      <trkpt lat="45.27195" lon="4.80017">
        <ele>138.6</ele>
        <time>1989-12-31T01:57:00Z</time>
      </trkpt>
      <trkpt lat="45.27224" lon="4.80014">
        <ele>139</ele>
        <time>1989-12-31T01:57:06Z</time>
      </trkpt>
      <trkpt lat="45.27264" lon="4.80011">
        <ele>139</ele>
        <time>1989-12-31T01:57:14Z</time>
      </trkpt>
      <trkpt lat="45.27293" lon="4.80009">
        <ele>139</ele>
        <time>1989-12-31T01:57:20Z</time>
      </trkpt>
      <trkpt lat="45.27296" lon="4.80009">
        <ele>139</ele>
        <time>1989-12-31T01:57:21Z</time>
      </trkpt>
      <trkpt lat="45.27308" lon="4.80008">
        <ele>139.2</ele>
        <time>1989-12-31T01:57:23Z</time>
      </trkpt>
      <trkpt lat="45.27334" lon="4.80007">
        <ele>140</ele>
        <time>1989-12-31T01:57:29Z</time>
      </trkpt>
      <trkpt lat="45.27339" lon="4.80006">
        <ele>140</ele>
        <time>1989-12-31T01:57:30Z</time>
      </trkpt>
      <trkpt lat="45.27354" lon="4.80006">
        <ele>140</ele>
        <time>1989-12-31T01:57:33Z</time>
      </trkpt>
      <trkpt lat="45.27368" lon="4.80005">
        <ele>139.8</ele>
        <time>1989-12-31T01:57:36Z</time>
      </trkpt>
      <trkpt lat="45.27387" lon="4.80005">
        <ele>139.2</ele>
        <time>1989-12-31T01:57:40Z</time>
      </trkpt>
      <trkpt lat="45.2743" lon="4.80005">
        <ele>139</ele>
        <time>1989-12-31T01:57:49Z</time>
      </trkpt>
      <trkpt lat="45.2743" lon="4.80028">
        <ele>138.6</ele>
        <time>1989-12-31T01:57:52Z</time>
      </trkpt>
      <trkpt lat="45.27428" lon="4.80061">
        <ele>138</ele>
        <time>1989-12-31T01:57:57Z</time>
      </trkpt>
      <trkpt lat="45.27428" lon="4.80071">
        <ele>138</ele>
        <time>1989-12-31T01:57:58Z</time>
      </trkpt>
      <trkpt lat="45.27427" lon="4.80094">
        <ele>138</ele>
        <time>1989-12-31T01:58:02Z</time>
      </trkpt>
      <trkpt lat="45.27433" lon="4.80126">
        <ele>137.8</ele>
        <time>1989-12-31T01:58:07Z</time>
      </trkpt>
      <trkpt lat="45.27436" lon="4.80141">
        <ele>138</ele>
        <time>1989-12-31T01:58:09Z</time>
      </trkpt>
      <trkpt lat="45.27441" lon="4.80148">
        <ele>137.8</ele>
        <time>1989-12-31T01:58:10Z</time>
      </trkpt>
      <trkpt lat="45.27464" lon="4.80208">
        <ele>136.4</ele>
        <time>1989-12-31T01:58:20Z</time>
      </trkpt>
      <trkpt lat="45.2747" lon="4.8021">
        <ele>136.4</ele>
        <time>1989-12-31T01:58:22Z</time>
      </trkpt>
      <trkpt lat="45.27514" lon="4.80205">
        <ele>136</ele>
        <time>1989-12-31T01:58:31Z</time>
      </trkpt>
      <trkpt lat="45.27573" lon="4.80201">
        <ele>135.2</ele>
        <time>1989-12-31T01:58:43Z</time>
      </trkpt>
      <trkpt lat="45.27579" lon="4.802">
        <ele>135</ele>
        <time>1989-12-31T01:58:44Z</time>
      </trkpt>
      <trkpt lat="45.27605" lon="4.80201">
        <ele>134.8</ele>
        <time>1989-12-31T01:58:50Z</time>
      </trkpt>
      <trkpt lat="45.27612" lon="4.80201">
        <ele>134.8</ele>
        <time>1989-12-31T01:58:51Z</time>
      </trkpt>
      <trkpt lat="45.2762" lon="4.80199">
        <ele>135.2</ele>
        <time>1989-12-31T01:58:53Z</time>
      </trkpt>
      <trkpt lat="45.27639" lon="4.80201">
        <ele>135.6</ele>
        <time>1989-12-31T01:58:57Z</time>
      </trkpt>
      <trkpt lat="45.27716" lon="4.80176">
        <ele>135.4</ele>
        <time>1989-12-31T01:59:13Z</time>
      </trkpt>
      <trkpt lat="45.27747" lon="4.80169">
        <ele>136</ele>
        <time>1989-12-31T01:59:20Z</time>
      </trkpt>
      <trkpt lat="45.27759" lon="4.80167">
        <ele>136</ele>
        <time>1989-12-31T01:59:22Z</time>
      </trkpt>
      <trkpt lat="45.27859" lon="4.80185">
        <ele>135.8</ele>
        <time>1989-12-31T01:59:43Z</time>
      </trkpt>
      <trkpt lat="45.27897" lon="4.80187">
        <ele>135.4</ele>
        <time>1989-12-31T01:59:51Z</time>
      </trkpt>
      <trkpt lat="45.27967" lon="4.80174">
        <ele>135.6</ele>
        <time>1989-12-31T02:00:06Z</time>
      </trkpt>
      <trkpt lat="45.28059" lon="4.8015">
        <ele>135.6</ele>
        <time>1989-12-31T02:00:25Z</time>
      </trkpt>
      <trkpt lat="45.28165" lon="4.80133">
        <ele>135.2</ele>
        <time>1989-12-31T02:00:47Z</time>
      </trkpt>
      <trkpt lat="45.28202" lon="4.8013">
        <ele>136.2</ele>
        <time>1989-12-31T02:00:55Z</time>
      </trkpt>
      <trkpt lat="45.2822" lon="4.80133">
        <ele>136.2</ele>
        <time>1989-12-31T02:00:59Z</time>
      </trkpt>
      <trkpt lat="45.28343" lon="4.8017">
        <ele>136.8</ele>
        <time>1989-12-31T02:01:25Z</time>
      </trkpt>
      <trkpt lat="45.28381" lon="4.80188">
        <ele>135.6</ele>
        <time>1989-12-31T02:01:33Z</time>
      </trkpt>
      <trkpt lat="45.28408" lon="4.80198">
        <ele>135.6</ele>
        <time>1989-12-31T02:01:39Z</time>
      </trkpt>
      <trkpt lat="45.28486" lon="4.80214">
        <ele>136.2</ele>
        <time>1989-12-31T02:01:55Z</time>
      </trkpt>
      <trkpt lat="45.28554" lon="4.80239">
        <ele>136.8</ele>
        <time>1989-12-31T02:02:10Z</time>
      </trkpt>
      <trkpt lat="45.28563" lon="4.80243">
        <ele>136.6</ele>
        <time>1989-12-31T02:02:12Z</time>
      </trkpt>
      <trkpt lat="45.28578" lon="4.80248">
        <ele>136.2</ele>
        <time>1989-12-31T02:02:15Z</time>
      </trkpt>
      <trkpt lat="45.28608" lon="4.80248">
        <ele>137</ele>
        <time>1989-12-31T02:02:21Z</time>
      </trkpt>
      <trkpt lat="45.28631" lon="4.80245">
        <ele>136.2</ele>
        <time>1989-12-31T02:02:26Z</time>
      </trkpt>
      <trkpt lat="45.28662" lon="4.80207">
        <ele>135.8</ele>
        <time>1989-12-31T02:02:34Z</time>
      </trkpt>
      <trkpt lat="45.28688" lon="4.80164">
        <ele>135.2</ele>
        <time>1989-12-31T02:02:43Z</time>
      </trkpt>
      <trkpt lat="45.28706" lon="4.8013">
        <ele>135.8</ele>
        <time>1989-12-31T02:02:49Z</time>
      </trkpt>
      <trkpt lat="45.28749" lon="4.80038">
        <ele>136</ele>
        <time>1989-12-31T02:03:05Z</time>
      </trkpt>
      <trkpt lat="45.28772" lon="4.79983">
        <ele>135.8</ele>
        <time>1989-12-31T02:03:14Z</time>
      </trkpt>
      <trkpt lat="45.28785" lon="4.79951">
        <ele>136.6</ele>
        <time>1989-12-31T02:03:20Z</time>
      </trkpt>
      <trkpt lat="45.2881" lon="4.79864">
        <ele>137.4</ele>
        <time>1989-12-31T02:03:33Z</time>
      </trkpt>
      <trkpt lat="45.28823" lon="4.79816">
        <ele>135.6</ele>
        <time>1989-12-31T02:03:41Z</time>
      </trkpt>
      <trkpt lat="45.2883" lon="4.79781">
        <ele>136</ele>
        <time>1989-12-31T02:03:46Z</time>
      </trkpt>
      <trkpt lat="45.28794" lon="4.79795">
        <ele>137.2</ele>
        <time>1989-12-31T02:03:54Z</time>
      </trkpt>
      <trkpt lat="45.28793" lon="4.79752">
        <ele>138</ele>
        <time>1989-12-31T02:04:00Z</time>
      </trkpt>
      <trkpt lat="45.28794" lon="4.79709">
        <ele>138</ele>
        <time>1989-12-31T02:04:07Z</time>
      </trkpt>
      <trkpt lat="45.288" lon="4.79435">
        <ele>143.2</ele>
        <time>1989-12-31T02:04:47Z</time>
      </trkpt>
      <trkpt lat="45.28803" lon="4.79419">
        <ele>145.4</ele>
        <time>1989-12-31T02:04:49Z</time>
      </trkpt>
      <trkpt lat="45.28812" lon="4.79406">
        <ele>144.2</ele>
        <time>1989-12-31T02:04:52Z</time>
      </trkpt>
      <trkpt lat="45.28819" lon="4.79402">
        <ele>143.6</ele>
        <time>1989-12-31T02:04:53Z</time>
      </trkpt>
      <trkpt lat="45.28852" lon="4.79384">
        <ele>142.2</ele>
        <time>1989-12-31T02:05:01Z</time>
      </trkpt>
      <trkpt lat="45.28898" lon="4.79361">
        <ele>140.8</ele>
        <time>1989-12-31T02:05:11Z</time>
      </trkpt>
      <trkpt lat="45.28924" lon="4.7936">
        <ele>140</ele>
        <time>1989-12-31T02:05:16Z</time>
      </trkpt>
      <trkpt lat="45.28952" lon="4.79368">
        <ele>139.2</ele>
        <time>1989-12-31T02:05:22Z</time>
      </trkpt>
      <trkpt lat="45.28982" lon="4.7938">
        <ele>138</ele>
        <time>1989-12-31T02:05:28Z</time>
      </trkpt>
      <trkpt lat="45.29026" lon="4.79391">
        <ele>135.8</ele>
        <time>1989-12-31T02:05:38Z</time>
      </trkpt>
      <trkpt lat="45.29114" lon="4.79393">
        <ele>135</ele>
        <time>1989-12-31T02:05:56Z</time>
      </trkpt>
      <trkpt lat="45.29161" lon="4.79387">
        <ele>135.4</ele>
        <time>1989-12-31T02:06:06Z</time>
      </trkpt>
      <trkpt lat="45.29242" lon="4.79373">
        <ele>136.6</ele>
        <time>1989-12-31T02:06:23Z</time>
      </trkpt>
      <trkpt lat="45.29256" lon="4.79374">
        <ele>136.2</ele>
        <time>1989-12-31T02:06:26Z</time>
      </trkpt>
      <trkpt lat="45.29268" lon="4.79374">
        <ele>136.2</ele>
        <time>1989-12-31T02:06:28Z</time>
      </trkpt>
      <trkpt lat="45.293" lon="4.79378">
        <ele>135.4</ele>
        <time>1989-12-31T02:06:35Z</time>
      </trkpt>
      <trkpt lat="45.29335" lon="4.79382">
        <ele>135.2</ele>
        <time>1989-12-31T02:06:42Z</time>
      </trkpt>
      <trkpt lat="45.29359" lon="4.79381">
        <ele>136.2</ele>
        <time>1989-12-31T02:06:47Z</time>
      </trkpt>
      <trkpt lat="45.29406" lon="4.79371">
        <ele>137.2</ele>
        <time>1989-12-31T02:06:57Z</time>
      </trkpt>
      <trkpt lat="45.29412" lon="4.7937">
        <ele>137.2</ele>
        <time>1989-12-31T02:06:58Z</time>
      </trkpt>
      <trkpt lat="45.29433" lon="4.79253">
        <ele>138.2</ele>
        <time>1989-12-31T02:07:16Z</time>
      </trkpt>
      <trkpt lat="45.29432" lon="4.7924">
        <ele>137.4</ele>
        <time>1989-12-31T02:07:18Z</time>
      </trkpt>
      <trkpt lat="45.29431" lon="4.79228">
        <ele>136.4</ele>
        <time>1989-12-31T02:07:20Z</time>
      </trkpt>
      <trkpt lat="45.29475" lon="4.79206">
        <ele>135.4</ele>
        <time>1989-12-31T02:07:29Z</time>
      </trkpt>
      <trkpt lat="45.29542" lon="4.79184">
        <ele>135</ele>
        <time>1989-12-31T02:07:44Z</time>
      </trkpt>
      <trkpt lat="45.29584" lon="4.79171">
        <ele>135</ele>
        <time>1989-12-31T02:07:53Z</time>
      </trkpt>
      <trkpt lat="45.29618" lon="4.79155">
        <ele>135</ele>
        <time>1989-12-31T02:08:00Z</time>
      </trkpt>
      <trkpt lat="45.29678" lon="4.79119">
        <ele>135</ele>
        <time>1989-12-31T02:08:13Z</time>
      </trkpt>
      <trkpt lat="45.29702" lon="4.791">
        <ele>135</ele>
        <time>1989-12-31T02:08:19Z</time>
      </trkpt>
      <trkpt lat="45.2972" lon="4.79086">
        <ele>135</ele>
        <time>1989-12-31T02:08:23Z</time>
      </trkpt>
      <trkpt lat="45.29749" lon="4.79069">
        <ele>135</ele>
        <time>1989-12-31T02:08:30Z</time>
      </trkpt>
      <trkpt lat="45.29762" lon="4.79064">
        <ele>135</ele>
        <time>1989-12-31T02:08:33Z</time>
      </trkpt>
      <trkpt lat="45.29802" lon="4.79047">
        <ele>135</ele>
        <time>1989-12-31T02:08:41Z</time>
      </trkpt>
      <trkpt lat="45.29827" lon="4.79037">
        <ele>135</ele>
        <time>1989-12-31T02:08:47Z</time>
      </trkpt>
      <trkpt lat="45.29872" lon="4.7902">
        <ele>135</ele>
        <time>1989-12-31T02:08:56Z</time>
      </trkpt>
      <trkpt lat="45.299" lon="4.7901">
        <ele>135.4</ele>
        <time>1989-12-31T02:09:02Z</time>
      </trkpt>
      <trkpt lat="45.2996" lon="4.78989">
        <ele>135.6</ele>
        <time>1989-12-31T02:09:15Z</time>
      </trkpt>
      <trkpt lat="45.2999" lon="4.78977">
        <ele>136</ele>
        <time>1989-12-31T02:09:22Z</time>
      </trkpt>
      <trkpt lat="45.30018" lon="4.78965">
        <ele>135.6</ele>
        <time>1989-12-31T02:09:28Z</time>
      </trkpt>
      <trkpt lat="45.30034" lon="4.7895">
        <ele>135.8</ele>
        <time>1989-12-31T02:09:32Z</time>
      </trkpt>
      <trkpt lat="45.30068" lon="4.78917">
        <ele>136</ele>
        <time>1989-12-31T02:09:40Z</time>
      </trkpt>
      <trkpt lat="45.301" lon="4.78888">
        <ele>136</ele>
        <time>1989-12-31T02:09:48Z</time>
      </trkpt>
      <trkpt lat="45.30167" lon="4.7885">
        <ele>136.6</ele>
        <time>1989-12-31T02:10:03Z</time>
      </trkpt>
      <trkpt lat="45.3018" lon="4.78836">
        <ele>136</ele>
        <time>1989-12-31T02:10:07Z</time>
      </trkpt>
      <trkpt lat="45.30187" lon="4.78821">
        <ele>136.2</ele>
        <time>1989-12-31T02:10:09Z</time>
      </trkpt>
      <trkpt lat="45.30191" lon="4.78815">
        <ele>136.2</ele>
        <time>1989-12-31T02:10:10Z</time>
      </trkpt>
      <trkpt lat="45.30195" lon="4.78807">
        <ele>136</ele>
        <time>1989-12-31T02:10:12Z</time>
      </trkpt>
      <trkpt lat="45.30202" lon="4.788">
        <ele>136.4</ele>
        <time>1989-12-31T02:10:14Z</time>
      </trkpt>
      <trkpt lat="45.3025" lon="4.78772">
        <ele>137</ele>
        <time>1989-12-31T02:10:24Z</time>
      </trkpt>
      <trkpt lat="45.30285" lon="4.78753">
        <ele>136.8</ele>
        <time>1989-12-31T02:10:32Z</time>
      </trkpt>
      <trkpt lat="45.30299" lon="4.78743">
        <ele>136.4</ele>
        <time>1989-12-31T02:10:35Z</time>
      </trkpt>
      <trkpt lat="45.30307" lon="4.78738">
        <ele>136.4</ele>
        <time>1989-12-31T02:10:37Z</time>
      </trkpt>
      <trkpt lat="45.3034" lon="4.78709">
        <ele>136.6</ele>
        <time>1989-12-31T02:10:45Z</time>
      </trkpt>
      <trkpt lat="45.30345" lon="4.78705">
        <ele>136.6</ele>
        <time>1989-12-31T02:10:46Z</time>
      </trkpt>
      <trkpt lat="45.30369" lon="4.78705">
        <ele>136.4</ele>
        <time>1989-12-31T02:10:51Z</time>
      </trkpt>
      <trkpt lat="45.30371" lon="4.78704">
        <ele>136.4</ele>
        <time>1989-12-31T02:10:52Z</time>
      </trkpt>
      <trkpt lat="45.30406" lon="4.78685">
        <ele>136.2</ele>
        <time>1989-12-31T02:11:00Z</time>
      </trkpt>
      <trkpt lat="45.30434" lon="4.7867">
        <ele>136</ele>
        <time>1989-12-31T02:11:06Z</time>
      </trkpt>
      <trkpt lat="45.30449" lon="4.78662">
        <ele>136.2</ele>
        <time>1989-12-31T02:11:09Z</time>
      </trkpt>
      <trkpt lat="45.3045" lon="4.78659">
        <ele>136.4</ele>
        <time>1989-12-31T02:11:10Z</time>
      </trkpt>
      <trkpt lat="45.30456" lon="4.78648">
        <ele>136.6</ele>
        <time>1989-12-31T02:11:12Z</time>
      </trkpt>
      <trkpt lat="45.30462" lon="4.7863">
        <ele>137.4</ele>
        <time>1989-12-31T02:11:15Z</time>
      </trkpt>
      <trkpt lat="45.30465" lon="4.78622">
        <ele>137.8</ele>
        <time>1989-12-31T02:11:16Z</time>
      </trkpt>
      <trkpt lat="45.30474" lon="4.7861">
        <ele>138.2</ele>
        <time>1989-12-31T02:11:18Z</time>
      </trkpt>
      <trkpt lat="45.30488" lon="4.78598">
        <ele>139.2</ele>
        <time>1989-12-31T02:11:22Z</time>
      </trkpt>
      <trkpt lat="45.30493" lon="4.78596">
        <ele>138.8</ele>
        <time>1989-12-31T02:11:23Z</time>
      </trkpt>
      <trkpt lat="45.30497" lon="4.78593">
        <ele>138.6</ele>
        <time>1989-12-31T02:11:24Z</time>
      </trkpt>
      <trkpt lat="45.30503" lon="4.7859">
        <ele>138.2</ele>
        <time>1989-12-31T02:11:25Z</time>
      </trkpt>
      <trkpt lat="45.30537" lon="4.78561">
        <ele>137.6</ele>
        <time>1989-12-31T02:11:33Z</time>
      </trkpt>
      <trkpt lat="45.30542" lon="4.7856">
        <ele>137.4</ele>
        <time>1989-12-31T02:11:34Z</time>
      </trkpt>
      <trkpt lat="45.30547" lon="4.78565">
        <ele>137</ele>
        <time>1989-12-31T02:11:36Z</time>
      </trkpt>
      <trkpt lat="45.30554" lon="4.78545">
        <ele>137.8</ele>
        <time>1989-12-31T02:11:39Z</time>
      </trkpt>
      <trkpt lat="45.30564" lon="4.78517">
        <ele>138.2</ele>
        <time>1989-12-31T02:11:44Z</time>
      </trkpt>
      <trkpt lat="45.3061" lon="4.78187">
        <ele>138.6</ele>
        <time>1989-12-31T02:12:33Z</time>
      </trkpt>
      <trkpt lat="45.30613" lon="4.78145">
        <ele>138.6</ele>
        <time>1989-12-31T02:12:39Z</time>
      </trkpt>
      <trkpt lat="45.30604" lon="4.78139">
        <ele>142.6</ele>
        <time>1989-12-31T02:12:41Z</time>
      </trkpt>
      <trkpt lat="45.30598" lon="4.78083">
        <ele>145.6</ele>
        <time>1989-12-31T02:12:49Z</time>
      </trkpt>
      <trkpt lat="45.30586" lon="4.78044">
        <ele>147</ele>
        <time>1989-12-31T02:12:55Z</time>
      </trkpt>
      <trkpt lat="45.30572" lon="4.77965">
        <ele>155.6</ele>
        <time>1989-12-31T02:13:07Z</time>
      </trkpt>
      <trkpt lat="45.30571" lon="4.77914">
        <ele>158.4</ele>
        <time>1989-12-31T02:13:15Z</time>
      </trkpt>
      <trkpt lat="45.30567" lon="4.77893">
        <ele>158.8</ele>
        <time>1989-12-31T02:13:18Z</time>
      </trkpt>
      <trkpt lat="45.30557" lon="4.77875">
        <ele>160.6</ele>
        <time>1989-12-31T02:13:21Z</time>
      </trkpt>
      <trkpt lat="45.30537" lon="4.77861">
        <ele>166.4</ele>
        <time>1989-12-31T02:13:26Z</time>
      </trkpt>
      <trkpt lat="45.30496" lon="4.77846">
        <ele>175.2</ele>
        <time>1989-12-31T02:13:35Z</time>
      </trkpt>
      <trkpt lat="45.30479" lon="4.77843">
        <ele>178.6</ele>
        <time>1989-12-31T02:13:38Z</time>
      </trkpt>
      <trkpt lat="45.30471" lon="4.77836">
        <ele>178.6</ele>
        <time>1989-12-31T02:13:40Z</time>
      </trkpt>
      <trkpt lat="45.30469" lon="4.77826">
        <ele>178.8</ele>
        <time>1989-12-31T02:13:42Z</time>
      </trkpt>
      <trkpt lat="45.30475" lon="4.77818">
        <ele>177.2</ele>
        <time>1989-12-31T02:13:44Z</time>
      </trkpt>
      <trkpt lat="45.30496" lon="4.77807">
        <ele>176.2</ele>
        <time>1989-12-31T02:13:48Z</time>
      </trkpt>
      <trkpt lat="45.30508" lon="4.77791">
        <ele>182.6</ele>
        <time>1989-12-31T02:13:52Z</time>
      </trkpt>
      <trkpt lat="45.30518" lon="4.77785">
        <ele>185.4</ele>
        <time>1989-12-31T02:13:54Z</time>
      </trkpt>
      <trkpt lat="45.30561" lon="4.77783">
        <ele>182.8</ele>
        <time>1989-12-31T02:14:03Z</time>
      </trkpt>
      <trkpt lat="45.30577" lon="4.77772">
        <ele>181.8</ele>
        <time>1989-12-31T02:14:06Z</time>
      </trkpt>
      <trkpt lat="45.30581" lon="4.77766">
        <ele>182</ele>
        <time>1989-12-31T02:14:08Z</time>
      </trkpt>
      <trkpt lat="45.30581" lon="4.77759">
        <ele>183.8</ele>
        <time>1989-12-31T02:14:09Z</time>
      </trkpt>
      <trkpt lat="45.30573" lon="4.77756">
        <ele>188</ele>
        <time>1989-12-31T02:14:10Z</time>
      </trkpt>
      <trkpt lat="45.30553" lon="4.77771">
        <ele>190</ele>
        <time>1989-12-31T02:14:15Z</time>
      </trkpt>
      <trkpt lat="45.30523" lon="4.77763">
        <ele>196.6</ele>
        <time>1989-12-31T02:14:21Z</time>
      </trkpt>
      <trkpt lat="45.30487" lon="4.7777">
        <ele>193.4</ele>
        <time>1989-12-31T02:14:29Z</time>
      </trkpt>
      <trkpt lat="45.3048" lon="4.77768">
        <ele>194.4</ele>
        <time>1989-12-31T02:14:30Z</time>
      </trkpt>
      <trkpt lat="45.30476" lon="4.7776">
        <ele>198.8</ele>
        <time>1989-12-31T02:14:32Z</time>
      </trkpt>
      <trkpt lat="45.30479" lon="4.77754">
        <ele>202</ele>
        <time>1989-12-31T02:14:33Z</time>
      </trkpt>
      <trkpt lat="45.30497" lon="4.77755">
        <ele>202</ele>
        <time>1989-12-31T02:14:37Z</time>
      </trkpt>
      <trkpt lat="45.30521" lon="4.77738">
        <ele>208.2</ele>
        <time>1989-12-31T02:14:42Z</time>
      </trkpt>
      <trkpt lat="45.30552" lon="4.77725">
        <ele>207</ele>
        <time>1989-12-31T02:14:49Z</time>
      </trkpt>
      <trkpt lat="45.30554" lon="4.77712">
        <ele>209.2</ele>
        <time>1989-12-31T02:14:51Z</time>
      </trkpt>
      <trkpt lat="45.30547" lon="4.77648">
        <ele>217.4</ele>
        <time>1989-12-31T02:15:00Z</time>
      </trkpt>
      <trkpt lat="45.30541" lon="4.7761">
        <ele>221.4</ele>
        <time>1989-12-31T02:15:06Z</time>
      </trkpt>
      <trkpt lat="45.30543" lon="4.77588">
        <ele>223.4</ele>
        <time>1989-12-31T02:15:09Z</time>
      </trkpt>
      <trkpt lat="45.30548" lon="4.7756">
        <ele>223.8</ele>
        <time>1989-12-31T02:15:14Z</time>
      </trkpt>
      <trkpt lat="45.30545" lon="4.77549">
        <ele>224.4</ele>
        <time>1989-12-31T02:15:15Z</time>
      </trkpt>
      <trkpt lat="45.30534" lon="4.77534">
        <ele>227.6</ele>
        <time>1989-12-31T02:15:18Z</time>
      </trkpt>
      <trkpt lat="45.30528" lon="4.77513">
        <ele>228.4</ele>
        <time>1989-12-31T02:15:22Z</time>
      </trkpt>
      <trkpt lat="45.30524" lon="4.77493">
        <ele>228.4</ele>
        <time>1989-12-31T02:15:25Z</time>
      </trkpt>
      <trkpt lat="45.3051" lon="4.77463">
        <ele>233.2</ele>
        <time>1989-12-31T02:15:30Z</time>
      </trkpt>
      <trkpt lat="45.30507" lon="4.77438">
        <ele>231.4</ele>
        <time>1989-12-31T02:15:34Z</time>
      </trkpt>
      <trkpt lat="45.30499" lon="4.77431">
        <ele>233</ele>
        <time>1989-12-31T02:15:36Z</time>
      </trkpt>
      <trkpt lat="45.30492" lon="4.7743">
        <ele>234.6</ele>
        <time>1989-12-31T02:15:37Z</time>
      </trkpt>
      <trkpt lat="45.3049" lon="4.77436">
        <ele>236.8</ele>
        <time>1989-12-31T02:15:38Z</time>
      </trkpt>
      <trkpt lat="45.30499" lon="4.77459">
        <ele>238</ele>
        <time>1989-12-31T02:15:42Z</time>
      </trkpt>
      <trkpt lat="45.305" lon="4.77471">
        <ele>239</ele>
        <time>1989-12-31T02:15:44Z</time>
      </trkpt>
      <trkpt lat="45.30475" lon="4.77566">
        <ele>247.8</ele>
        <time>1989-12-31T02:15:59Z</time>
      </trkpt>
      <trkpt lat="45.3047" lon="4.77573">
        <ele>249.4</ele>
        <time>1989-12-31T02:16:00Z</time>
      </trkpt>
      <trkpt lat="45.30464" lon="4.77572">
        <ele>252.2</ele>
        <time>1989-12-31T02:16:01Z</time>
      </trkpt>
      <trkpt lat="45.3046" lon="4.77567">
        <ele>254.2</ele>
        <time>1989-12-31T02:16:02Z</time>
      </trkpt>
      <trkpt lat="45.30459" lon="4.77557">
        <ele>255.2</ele>
        <time>1989-12-31T02:16:04Z</time>
      </trkpt>
      <trkpt lat="45.30466" lon="4.77504">
        <ele>254.4</ele>
        <time>1989-12-31T02:16:12Z</time>
      </trkpt>
      <trkpt lat="45.30464" lon="4.77488">
        <ele>254.4</ele>
        <time>1989-12-31T02:16:14Z</time>
      </trkpt>
      <trkpt lat="45.30459" lon="4.77476">
        <ele>255.2</ele>
        <time>1989-12-31T02:16:16Z</time>
      </trkpt>
      <trkpt lat="45.30452" lon="4.77467">
        <ele>256.2</ele>
        <time>1989-12-31T02:16:18Z</time>
      </trkpt>
      <trkpt lat="45.30435" lon="4.77456">
        <ele>259</ele>
        <time>1989-12-31T02:16:22Z</time>
      </trkpt>
      <trkpt lat="45.30366" lon="4.77427">
        <ele>267.8</ele>
        <time>1989-12-31T02:16:37Z</time>
      </trkpt>
      <trkpt lat="45.30343" lon="4.7742">
        <ele>272</ele>
        <time>1989-12-31T02:16:42Z</time>
      </trkpt>
      <trkpt lat="45.30333" lon="4.77412">
        <ele>272.8</ele>
        <time>1989-12-31T02:16:44Z</time>
      </trkpt>
      <trkpt lat="45.30321" lon="4.77393">
        <ele>271.6</ele>
        <time>1989-12-31T02:16:48Z</time>
      </trkpt>
      <trkpt lat="45.30301" lon="4.7738">
        <ele>274.4</ele>
        <time>1989-12-31T02:16:53Z</time>
      </trkpt>
      <trkpt lat="45.30279" lon="4.77372">
        <ele>277</ele>
        <time>1989-12-31T02:16:57Z</time>
      </trkpt>
      <trkpt lat="45.30269" lon="4.77372">
        <ele>277.6</ele>
        <time>1989-12-31T02:16:59Z</time>
      </trkpt>
      <trkpt lat="45.30237" lon="4.77391">
        <ele>285</ele>
        <time>1989-12-31T02:17:06Z</time>
      </trkpt>
      <trkpt lat="45.30229" lon="4.77389">
        <ele>285.4</ele>
        <time>1989-12-31T02:17:08Z</time>
      </trkpt>
      <trkpt lat="45.30219" lon="4.77372">
        <ele>283.2</ele>
        <time>1989-12-31T02:17:11Z</time>
      </trkpt>
      <trkpt lat="45.30192" lon="4.77363">
        <ele>288</ele>
        <time>1989-12-31T02:17:17Z</time>
      </trkpt>
      <trkpt lat="45.30169" lon="4.77349">
        <ele>290.4</ele>
        <time>1989-12-31T02:17:22Z</time>
      </trkpt>
      <trkpt lat="45.3016" lon="4.77353">
        <ele>292.6</ele>
        <time>1989-12-31T02:17:24Z</time>
      </trkpt>
      <trkpt lat="45.30161" lon="4.7736">
        <ele>293.6</ele>
        <time>1989-12-31T02:17:26Z</time>
      </trkpt>
      <trkpt lat="45.30181" lon="4.77385">
        <ele>294.2</ele>
        <time>1989-12-31T02:17:31Z</time>
      </trkpt>
      <trkpt lat="45.30186" lon="4.77419">
        <ele>299</ele>
        <time>1989-12-31T02:17:36Z</time>
      </trkpt>
      <trkpt lat="45.30194" lon="4.77435">
        <ele>299.8</ele>
        <time>1989-12-31T02:17:39Z</time>
      </trkpt>
      <trkpt lat="45.30192" lon="4.77445">
        <ele>301.8</ele>
        <time>1989-12-31T02:17:41Z</time>
      </trkpt>
      <trkpt lat="45.30187" lon="4.77449">
        <ele>304</ele>
        <time>1989-12-31T02:17:42Z</time>
      </trkpt>
      <trkpt lat="45.30181" lon="4.77447">
        <ele>305</ele>
        <time>1989-12-31T02:17:43Z</time>
      </trkpt>
      <trkpt lat="45.30174" lon="4.77439">
        <ele>305.2</ele>
        <time>1989-12-31T02:17:45Z</time>
      </trkpt>
      <trkpt lat="45.30161" lon="4.77418">
        <ele>303.8</ele>
        <time>1989-12-31T02:17:49Z</time>
      </trkpt>
      <trkpt lat="45.30154" lon="4.77402">
        <ele>302.6</ele>
        <time>1989-12-31T02:17:52Z</time>
      </trkpt>
      <trkpt lat="45.30134" lon="4.7739">
        <ele>304.4</ele>
        <time>1989-12-31T02:17:56Z</time>
      </trkpt>
      <trkpt lat="45.30052" lon="4.77367">
        <ele>316.2</ele>
        <time>1989-12-31T02:18:14Z</time>
      </trkpt>
      <trkpt lat="45.30035" lon="4.77356">
        <ele>317.8</ele>
        <time>1989-12-31T02:18:18Z</time>
      </trkpt>
      <trkpt lat="45.30024" lon="4.77345">
        <ele>319.2</ele>
        <time>1989-12-31T02:18:20Z</time>
      </trkpt>
      <trkpt lat="45.3002" lon="4.77333">
        <ele>319</ele>
        <time>1989-12-31T02:18:22Z</time>
      </trkpt>
      <trkpt lat="45.30022" lon="4.77291">
        <ele>320.6</ele>
        <time>1989-12-31T02:18:28Z</time>
      </trkpt>
      <trkpt lat="45.30006" lon="4.77249">
        <ele>324.2</ele>
        <time>1989-12-31T02:18:35Z</time>
      </trkpt>
      <trkpt lat="45.30003" lon="4.77236">
        <ele>325.2</ele>
        <time>1989-12-31T02:18:37Z</time>
      </trkpt>
      <trkpt lat="45.30001" lon="4.77193">
        <ele>327</ele>
        <time>1989-12-31T02:18:44Z</time>
      </trkpt>
      <trkpt lat="45.29999" lon="4.7718">
        <ele>328.2</ele>
        <time>1989-12-31T02:18:46Z</time>
      </trkpt>
      <trkpt lat="45.30002" lon="4.77155">
        <ele>328.8</ele>
        <time>1989-12-31T02:18:49Z</time>
      </trkpt>
      <trkpt lat="45.30003" lon="4.77127">
        <ele>329.6</ele>
        <time>1989-12-31T02:18:53Z</time>
      </trkpt>
      <trkpt lat="45.30003" lon="4.77081">
        <ele>331.2</ele>
        <time>1989-12-31T02:19:00Z</time>
      </trkpt>
      <trkpt lat="45.30012" lon="4.76961">
        <ele>334.4</ele>
        <time>1989-12-31T02:19:18Z</time>
      </trkpt>
      <trkpt lat="45.30015" lon="4.76921">
        <ele>335.8</ele>
        <time>1989-12-31T02:19:24Z</time>
      </trkpt>
      <trkpt lat="45.30021" lon="4.76891">
        <ele>337.6</ele>
        <time>1989-12-31T02:19:28Z</time>
      </trkpt>
      <trkpt lat="45.30038" lon="4.76874">
        <ele>340</ele>
        <time>1989-12-31T02:19:33Z</time>
      </trkpt>
      <trkpt lat="45.30074" lon="4.76843">
        <ele>342.8</ele>
        <time>1989-12-31T02:19:41Z</time>
      </trkpt>
      <trkpt lat="45.30077" lon="4.76834">
        <ele>344</ele>
        <time>1989-12-31T02:19:43Z</time>
      </trkpt>
      <trkpt lat="45.30074" lon="4.76827">
        <ele>345.2</ele>
        <time>1989-12-31T02:19:44Z</time>
      </trkpt>
      <trkpt lat="45.30049" lon="4.76826">
        <ele>345.6</ele>
        <time>1989-12-31T02:19:49Z</time>
      </trkpt>
      <trkpt lat="45.30027" lon="4.76816">
        <ele>347.6</ele>
        <time>1989-12-31T02:19:54Z</time>
      </trkpt>
      <trkpt lat="45.30023" lon="4.76807">
        <ele>348.6</ele>
        <time>1989-12-31T02:19:55Z</time>
      </trkpt>
      <trkpt lat="45.30037" lon="4.76799">
        <ele>350</ele>
        <time>1989-12-31T02:19:59Z</time>
      </trkpt>
      <trkpt lat="45.30052" lon="4.76785">
        <ele>352</ele>
        <time>1989-12-31T02:20:02Z</time>
      </trkpt>
      <trkpt lat="45.30055" lon="4.76767">
        <ele>353</ele>
        <time>1989-12-31T02:20:05Z</time>
      </trkpt>
      <trkpt lat="45.30064" lon="4.76677">
        <ele>351.2</ele>
        <time>1989-12-31T02:20:18Z</time>
      </trkpt>
      <trkpt lat="45.30066" lon="4.76642">
        <ele>349.6</ele>
        <time>1989-12-31T02:20:23Z</time>
      </trkpt>
      <trkpt lat="45.30093" lon="4.76604">
        <ele>346</ele>
        <time>1989-12-31T02:20:31Z</time>
      </trkpt>
      <trkpt lat="45.301" lon="4.76592">
        <ele>345.6</ele>
        <time>1989-12-31T02:20:34Z</time>
      </trkpt>
      <trkpt lat="45.30105" lon="4.76577">
        <ele>345.4</ele>
        <time>1989-12-31T02:20:36Z</time>
      </trkpt>
      <trkpt lat="45.30109" lon="4.76551">
        <ele>345.8</ele>
        <time>1989-12-31T02:20:40Z</time>
      </trkpt>
      <trkpt lat="45.30109" lon="4.76502">
        <ele>345.8</ele>
        <time>1989-12-31T02:20:47Z</time>
      </trkpt>
      <trkpt lat="45.30105" lon="4.76448">
        <ele>348.6</ele>
        <time>1989-12-31T02:20:55Z</time>
      </trkpt>
      <trkpt lat="45.30096" lon="4.7625">
        <ele>352.6</ele>
        <time>1989-12-31T02:21:24Z</time>
      </trkpt>
      <trkpt lat="45.30086" lon="4.76201">
        <ele>350.4</ele>
        <time>1989-12-31T02:21:31Z</time>
      </trkpt>
      <trkpt lat="45.30055" lon="4.76104">
        <ele>348.8</ele>
        <time>1989-12-31T02:21:47Z</time>
      </trkpt>
      <trkpt lat="45.30043" lon="4.7606">
        <ele>348</ele>
        <time>1989-12-31T02:21:54Z</time>
      </trkpt>
      <trkpt lat="45.30038" lon="4.76018">
        <ele>347</ele>
        <time>1989-12-31T02:22:00Z</time>
      </trkpt>
      <trkpt lat="45.30051" lon="4.75906">
        <ele>345.8</ele>
        <time>1989-12-31T02:22:17Z</time>
      </trkpt>
      <trkpt lat="45.3005" lon="4.7587">
        <ele>346.6</ele>
        <time>1989-12-31T02:22:22Z</time>
      </trkpt>
      <trkpt lat="45.30037" lon="4.75818">
        <ele>348</ele>
        <time>1989-12-31T02:22:30Z</time>
      </trkpt>
      <trkpt lat="45.30031" lon="4.75702">
        <ele>350</ele>
        <time>1989-12-31T02:22:47Z</time>
      </trkpt>
      <trkpt lat="45.30021" lon="4.75553">
        <ele>353</ele>
        <time>1989-12-31T02:23:09Z</time>
      </trkpt>
      <trkpt lat="45.3002" lon="4.75544">
        <ele>353</ele>
        <time>1989-12-31T02:23:10Z</time>
      </trkpt>
      <trkpt lat="45.3002" lon="4.75538">
        <ele>353</ele>
        <time>1989-12-31T02:23:11Z</time>
      </trkpt>
      <trkpt lat="45.30019" lon="4.75508">
        <ele>353</ele>
        <time>1989-12-31T02:23:15Z</time>
      </trkpt>
      <trkpt lat="45.30016" lon="4.75468">
        <ele>353.6</ele>
        <time>1989-12-31T02:23:21Z</time>
      </trkpt>
      <trkpt lat="45.30006" lon="4.75393">
        <ele>353.2</ele>
        <time>1989-12-31T02:23:32Z</time>
      </trkpt>
      <trkpt lat="45.3" lon="4.75364">
        <ele>353</ele>
        <time>1989-12-31T02:23:37Z</time>
      </trkpt>
      <trkpt lat="45.29981" lon="4.75307">
        <ele>353</ele>
        <time>1989-12-31T02:23:46Z</time>
      </trkpt>
      <trkpt lat="45.29965" lon="4.75269">
        <ele>353.2</ele>
        <time>1989-12-31T02:23:52Z</time>
      </trkpt>
      <trkpt lat="45.29955" lon="4.75255">
        <ele>353.4</ele>
        <time>1989-12-31T02:23:55Z</time>
      </trkpt>
      <trkpt lat="45.29926" lon="4.75224">
        <ele>353.4</ele>
        <time>1989-12-31T02:24:03Z</time>
      </trkpt>
      <trkpt lat="45.29911" lon="4.75205">
        <ele>353.4</ele>
        <time>1989-12-31T02:24:07Z</time>
      </trkpt>
      <trkpt lat="45.29893" lon="4.75173">
        <ele>354.6</ele>
        <time>1989-12-31T02:24:13Z</time>
      </trkpt>
      <trkpt lat="45.29876" lon="4.75135">
        <ele>355.8</ele>
        <time>1989-12-31T02:24:20Z</time>
      </trkpt>
      <trkpt lat="45.29862" lon="4.75114">
        <ele>356.8</ele>
        <time>1989-12-31T02:24:24Z</time>
      </trkpt>
      <trkpt lat="45.29824" lon="4.75062">
        <ele>358.6</ele>
        <time>1989-12-31T02:24:35Z</time>
      </trkpt>
      <trkpt lat="45.29785" lon="4.74996">
        <ele>361.6</ele>
        <time>1989-12-31T02:24:47Z</time>
      </trkpt>
      <trkpt lat="45.29767" lon="4.74957">
        <ele>362.8</ele>
        <time>1989-12-31T02:24:54Z</time>
      </trkpt>
      <trkpt lat="45.29756" lon="4.74922">
        <ele>362.4</ele>
        <time>1989-12-31T02:25:00Z</time>
      </trkpt>
      <trkpt lat="45.29742" lon="4.74894">
        <ele>362.6</ele>
        <time>1989-12-31T02:25:05Z</time>
      </trkpt>
      <trkpt lat="45.29724" lon="4.74871">
        <ele>362.8</ele>
        <time>1989-12-31T02:25:10Z</time>
      </trkpt>
      <trkpt lat="45.29696" lon="4.74838">
        <ele>364.6</ele>
        <time>1989-12-31T02:25:17Z</time>
      </trkpt>
      <trkpt lat="45.29645" lon="4.74799">
        <ele>366.2</ele>
        <time>1989-12-31T02:25:29Z</time>
      </trkpt>
      <trkpt lat="45.2963" lon="4.74783">
        <ele>366.8</ele>
        <time>1989-12-31T02:25:33Z</time>
      </trkpt>
      <trkpt lat="45.29572" lon="4.74707">
        <ele>368</ele>
        <time>1989-12-31T02:25:50Z</time>
      </trkpt>
      <trkpt lat="45.29538" lon="4.74662">
        <ele>368.2</ele>
        <time>1989-12-31T02:25:59Z</time>
      </trkpt>
      <trkpt lat="45.29531" lon="4.74653">
        <ele>368.8</ele>
        <time>1989-12-31T02:26:01Z</time>
      </trkpt>
      <trkpt lat="45.29473" lon="4.74556">
        <ele>367.2</ele>
        <time>1989-12-31T02:26:20Z</time>
      </trkpt>
      <trkpt lat="45.29444" lon="4.7449">
        <ele>366.8</ele>
        <time>1989-12-31T02:26:31Z</time>
      </trkpt>
      <trkpt lat="45.29435" lon="4.74471">
        <ele>367.4</ele>
        <time>1989-12-31T02:26:35Z</time>
      </trkpt>
      <trkpt lat="45.29416" lon="4.74432">
        <ele>367.4</ele>
        <time>1989-12-31T02:26:41Z</time>
      </trkpt>
      <trkpt lat="45.29415" lon="4.7443">
        <ele>367.6</ele>
        <time>1989-12-31T02:26:42Z</time>
      </trkpt>
      <trkpt lat="45.29392" lon="4.74364">
        <ele>368.2</ele>
        <time>1989-12-31T02:26:53Z</time>
      </trkpt>
      <trkpt lat="45.2938" lon="4.74324">
        <ele>369.6</ele>
        <time>1989-12-31T02:26:59Z</time>
      </trkpt>
      <trkpt lat="45.29376" lon="4.74311">
        <ele>369.8</ele>
        <time>1989-12-31T02:27:01Z</time>
      </trkpt>
      <trkpt lat="45.29372" lon="4.74293">
        <ele>370.2</ele>
        <time>1989-12-31T02:27:04Z</time>
      </trkpt>
      <trkpt lat="45.29363" lon="4.74259">
        <ele>370.8</ele>
        <time>1989-12-31T02:27:09Z</time>
      </trkpt>
      <trkpt lat="45.29346" lon="4.74196">
        <ele>372.4</ele>
        <time>1989-12-31T02:27:19Z</time>
      </trkpt>
      <trkpt lat="45.29341" lon="4.7418">
        <ele>372.4</ele>
        <time>1989-12-31T02:27:21Z</time>
      </trkpt>
      <trkpt lat="45.29334" lon="4.74157">
        <ele>372.4</ele>
        <time>1989-12-31T02:27:25Z</time>
      </trkpt>
      <trkpt lat="45.29332" lon="4.74153">
        <ele>372.4</ele>
        <time>1989-12-31T02:27:26Z</time>
      </trkpt>
      <trkpt lat="45.29329" lon="4.74143">
        <ele>372.6</ele>
        <time>1989-12-31T02:27:27Z</time>
      </trkpt>
      <trkpt lat="45.29326" lon="4.74134">
        <ele>372.6</ele>
        <time>1989-12-31T02:27:29Z</time>
      </trkpt>
      <trkpt lat="45.29304" lon="4.74078">
        <ele>372</ele>
        <time>1989-12-31T02:27:38Z</time>
      </trkpt>
      <trkpt lat="45.29296" lon="4.74056">
        <ele>371.4</ele>
        <time>1989-12-31T02:27:42Z</time>
      </trkpt>
      <trkpt lat="45.29289" lon="4.74041">
        <ele>371.4</ele>
        <time>1989-12-31T02:27:44Z</time>
      </trkpt>
      <trkpt lat="45.2928" lon="4.74023">
        <ele>372</ele>
        <time>1989-12-31T02:27:48Z</time>
      </trkpt>
      <trkpt lat="45.2926" lon="4.7399">
        <ele>372.2</ele>
        <time>1989-12-31T02:27:54Z</time>
      </trkpt>
      <trkpt lat="45.2919" lon="4.73875">
        <ele>374</ele>
        <time>1989-12-31T02:28:16Z</time>
      </trkpt>
      <trkpt lat="45.29174" lon="4.73844">
        <ele>374.4</ele>
        <time>1989-12-31T02:28:22Z</time>
      </trkpt>
      <trkpt lat="45.29144" lon="4.7376">
        <ele>375.8</ele>
        <time>1989-12-31T02:28:36Z</time>
      </trkpt>
      <trkpt lat="45.29125" lon="4.73703">
        <ele>375</ele>
        <time>1989-12-31T02:28:45Z</time>
      </trkpt>
      <trkpt lat="45.29121" lon="4.73685">
        <ele>375.2</ele>
        <time>1989-12-31T02:28:48Z</time>
      </trkpt>
      <trkpt lat="45.29111" lon="4.73646">
        <ele>375.8</ele>
        <time>1989-12-31T02:28:54Z</time>
      </trkpt>
      <trkpt lat="45.2911" lon="4.7364">
        <ele>375.8</ele>
        <time>1989-12-31T02:28:55Z</time>
      </trkpt>
      <trkpt lat="45.29108" lon="4.7363">
        <ele>376</ele>
        <time>1989-12-31T02:28:56Z</time>
      </trkpt>
      <trkpt lat="45.29103" lon="4.73594">
        <ele>376.2</ele>
        <time>1989-12-31T02:29:01Z</time>
      </trkpt>
      <trkpt lat="45.29103" lon="4.73581">
        <ele>376.2</ele>
        <time>1989-12-31T02:29:03Z</time>
      </trkpt>
      <trkpt lat="45.29103" lon="4.73568">
        <ele>376.8</ele>
        <time>1989-12-31T02:29:05Z</time>
      </trkpt>
      <trkpt lat="45.29104" lon="4.73559">
        <ele>377.4</ele>
        <time>1989-12-31T02:29:07Z</time>
      </trkpt>
      <trkpt lat="45.29106" lon="4.73553">
        <ele>377.6</ele>
        <time>1989-12-31T02:29:08Z</time>
      </trkpt>
      <trkpt lat="45.29112" lon="4.7354">
        <ele>377.6</ele>
        <time>1989-12-31T02:29:10Z</time>
      </trkpt>
      <trkpt lat="45.29109" lon="4.73531">
        <ele>377</ele>
        <time>1989-12-31T02:29:11Z</time>
      </trkpt>
      <trkpt lat="45.29108" lon="4.73526">
        <ele>376.8</ele>
        <time>1989-12-31T02:29:12Z</time>
      </trkpt>
      <trkpt lat="45.29111" lon="4.7352">
        <ele>377</ele>
        <time>1989-12-31T02:29:13Z</time>
      </trkpt>
      <trkpt lat="45.29115" lon="4.73515">
        <ele>377.2</ele>
        <time>1989-12-31T02:29:14Z</time>
      </trkpt>
      <trkpt lat="45.29125" lon="4.73513">
        <ele>377.6</ele>
        <time>1989-12-31T02:29:16Z</time>
      </trkpt>
      <trkpt lat="45.29134" lon="4.7351">
        <ele>377.8</ele>
        <time>1989-12-31T02:29:18Z</time>
      </trkpt>
      <trkpt lat="45.29141" lon="4.73501">
        <ele>378.2</ele>
        <time>1989-12-31T02:29:20Z</time>
      </trkpt>
      <trkpt lat="45.29144" lon="4.73489">
        <ele>378.4</ele>
        <time>1989-12-31T02:29:22Z</time>
      </trkpt>
      <trkpt lat="45.29144" lon="4.73483">
        <ele>378.4</ele>
        <time>1989-12-31T02:29:23Z</time>
      </trkpt>
      <trkpt lat="45.29144" lon="4.73479">
        <ele>378.4</ele>
        <time>1989-12-31T02:29:24Z</time>
      </trkpt>
      <trkpt lat="45.29151" lon="4.73468">
        <ele>378.8</ele>
        <time>1989-12-31T02:29:26Z</time>
      </trkpt>
      <trkpt lat="45.29155" lon="4.73456">
        <ele>378.8</ele>
        <time>1989-12-31T02:29:28Z</time>
      </trkpt>
      <trkpt lat="45.29155" lon="4.73449">
        <ele>378.8</ele>
        <time>1989-12-31T02:29:29Z</time>
      </trkpt>
      <trkpt lat="45.29156" lon="4.73438">
        <ele>378.6</ele>
        <time>1989-12-31T02:29:30Z</time>
      </trkpt>
      <trkpt lat="45.29153" lon="4.73431">
        <ele>378.6</ele>
        <time>1989-12-31T02:29:32Z</time>
      </trkpt>
      <trkpt lat="45.29148" lon="4.73427">
        <ele>378.4</ele>
        <time>1989-12-31T02:29:33Z</time>
      </trkpt>
      <trkpt lat="45.2914" lon="4.73425">
        <ele>378</ele>
        <time>1989-12-31T02:29:34Z</time>
      </trkpt>
      <trkpt lat="45.29128" lon="4.73434">
        <ele>377.8</ele>
        <time>1989-12-31T02:29:37Z</time>
      </trkpt>
      <trkpt lat="45.2912" lon="4.73437">
        <ele>377.6</ele>
        <time>1989-12-31T02:29:39Z</time>
      </trkpt>
      <trkpt lat="45.29111" lon="4.73434">
        <ele>377.4</ele>
        <time>1989-12-31T02:29:41Z</time>
      </trkpt>
      <trkpt lat="45.29101" lon="4.73425">
        <ele>377.2</ele>
        <time>1989-12-31T02:29:43Z</time>
      </trkpt>
      <trkpt lat="45.291" lon="4.73425">
        <ele>377</ele>
        <time>1989-12-31T02:29:44Z</time>
      </trkpt>
      <trkpt lat="45.29096" lon="4.73421">
        <ele>376.8</ele>
        <time>1989-12-31T02:29:45Z</time>
      </trkpt>
      <trkpt lat="45.29079" lon="4.73403">
        <ele>376.2</ele>
        <time>1989-12-31T02:29:49Z</time>
      </trkpt>
      <trkpt lat="45.29073" lon="4.73396">
        <ele>376</ele>
        <time>1989-12-31T02:29:51Z</time>
      </trkpt>
      <trkpt lat="45.29057" lon="4.73378">
        <ele>375.6</ele>
        <time>1989-12-31T02:29:55Z</time>
      </trkpt>
      <trkpt lat="45.29037" lon="4.73349">
        <ele>374.4</ele>
        <time>1989-12-31T02:30:01Z</time>
      </trkpt>
      <trkpt lat="45.29025" lon="4.7333">
        <ele>374</ele>
        <time>1989-12-31T02:30:04Z</time>
      </trkpt>
      <trkpt lat="45.29002" lon="4.73296">
        <ele>373.6</ele>
        <time>1989-12-31T02:30:11Z</time>
      </trkpt>
      <trkpt lat="45.28992" lon="4.73281">
        <ele>373.6</ele>
        <time>1989-12-31T02:30:14Z</time>
      </trkpt>
      <trkpt lat="45.28991" lon="4.73279">
        <ele>373.6</ele>
        <time>1989-12-31T02:30:15Z</time>
      </trkpt>
      <trkpt lat="45.28962" lon="4.73237">
        <ele>373.4</ele>
        <time>1989-12-31T02:30:23Z</time>
      </trkpt>
      <trkpt lat="45.28953" lon="4.73224">
        <ele>373.6</ele>
        <time>1989-12-31T02:30:26Z</time>
      </trkpt>
      <trkpt lat="45.28926" lon="4.73185">
        <ele>373</ele>
        <time>1989-12-31T02:30:34Z</time>
      </trkpt>
      <trkpt lat="45.28899" lon="4.73148">
        <ele>373</ele>
        <time>1989-12-31T02:30:42Z</time>
      </trkpt>
      <trkpt lat="45.28891" lon="4.73136">
        <ele>373.2</ele>
        <time>1989-12-31T02:30:44Z</time>
      </trkpt>
      <trkpt lat="45.28882" lon="4.73122">
        <ele>373.2</ele>
        <time>1989-12-31T02:30:47Z</time>
      </trkpt>
      <trkpt lat="45.28868" lon="4.73092">
        <ele>372.4</ele>
        <time>1989-12-31T02:30:52Z</time>
      </trkpt>
      <trkpt lat="45.28858" lon="4.73062">
        <ele>371.8</ele>
        <time>1989-12-31T02:30:57Z</time>
      </trkpt>
      <trkpt lat="45.28854" lon="4.73049">
        <ele>371.6</ele>
        <time>1989-12-31T02:30:59Z</time>
      </trkpt>
      <trkpt lat="45.28853" lon="4.73047">
        <ele>371.6</ele>
        <time>1989-12-31T02:31:00Z</time>
      </trkpt>
      <trkpt lat="45.28851" lon="4.73039">
        <ele>371.6</ele>
        <time>1989-12-31T02:31:01Z</time>
      </trkpt>
      <trkpt lat="45.28845" lon="4.73023">
        <ele>371.8</ele>
        <time>1989-12-31T02:31:03Z</time>
      </trkpt>
      <trkpt lat="45.28835" lon="4.72993">
        <ele>372.2</ele>
        <time>1989-12-31T02:31:08Z</time>
      </trkpt>
      <trkpt lat="45.28828" lon="4.72967">
        <ele>372</ele>
        <time>1989-12-31T02:31:12Z</time>
      </trkpt>
      <trkpt lat="45.28823" lon="4.72954">
        <ele>372.4</ele>
        <time>1989-12-31T02:31:14Z</time>
      </trkpt>
      <trkpt lat="45.28812" lon="4.72934">
        <ele>372.2</ele>
        <time>1989-12-31T02:31:18Z</time>
      </trkpt>
      <trkpt lat="45.28803" lon="4.72925">
        <ele>372.2</ele>
        <time>1989-12-31T02:31:20Z</time>
      </trkpt>
      <trkpt lat="45.28794" lon="4.72916">
        <ele>372.4</ele>
        <time>1989-12-31T02:31:23Z</time>
      </trkpt>
      <trkpt lat="45.28782" lon="4.72909">
        <ele>373.2</ele>
        <time>1989-12-31T02:31:25Z</time>
      </trkpt>
      <trkpt lat="45.28762" lon="4.72896">
        <ele>374.4</ele>
        <time>1989-12-31T02:31:30Z</time>
      </trkpt>
      <trkpt lat="45.28743" lon="4.72883">
        <ele>375.4</ele>
        <time>1989-12-31T02:31:34Z</time>
      </trkpt>
      <trkpt lat="45.28721" lon="4.72868">
        <ele>376.2</ele>
        <time>1989-12-31T02:31:39Z</time>
      </trkpt>
      <trkpt lat="45.28688" lon="4.72846">
        <ele>377.6</ele>
        <time>1989-12-31T02:31:47Z</time>
      </trkpt>
      <trkpt lat="45.28681" lon="4.72841">
        <ele>378</ele>
        <time>1989-12-31T02:31:49Z</time>
      </trkpt>
      <trkpt lat="45.28676" lon="4.72837">
        <ele>378</ele>
        <time>1989-12-31T02:31:50Z</time>
      </trkpt>
      <trkpt lat="45.2865" lon="4.72819">
        <ele>378.4</ele>
        <time>1989-12-31T02:31:56Z</time>
      </trkpt>
      <trkpt lat="45.28616" lon="4.72798">
        <ele>379.4</ele>
        <time>1989-12-31T02:32:04Z</time>
      </trkpt>
      <trkpt lat="45.28606" lon="4.72792">
        <ele>379.8</ele>
        <time>1989-12-31T02:32:06Z</time>
      </trkpt>
      <trkpt lat="45.2859" lon="4.72781">
        <ele>380.2</ele>
        <time>1989-12-31T02:32:09Z</time>
      </trkpt>
      <trkpt lat="45.28574" lon="4.72769">
        <ele>380.8</ele>
        <time>1989-12-31T02:32:13Z</time>
      </trkpt>
      <trkpt lat="45.28536" lon="4.72736">
        <ele>382</ele>
        <time>1989-12-31T02:32:22Z</time>
      </trkpt>
      <trkpt lat="45.28532" lon="4.72732">
        <ele>382</ele>
        <time>1989-12-31T02:32:23Z</time>
      </trkpt>
      <trkpt lat="45.2853" lon="4.72731">
        <ele>382</ele>
        <time>1989-12-31T02:32:24Z</time>
      </trkpt>
      <trkpt lat="45.28512" lon="4.72714">
        <ele>383</ele>
        <time>1989-12-31T02:32:28Z</time>
      </trkpt>
      <trkpt lat="45.28508" lon="4.72711">
        <ele>383.2</ele>
        <time>1989-12-31T02:32:29Z</time>
      </trkpt>
      <trkpt lat="45.28507" lon="4.7271">
        <ele>383.2</ele>
        <time>1989-12-31T02:32:30Z</time>
      </trkpt>
      <trkpt lat="45.2849" lon="4.72696">
        <ele>384</ele>
        <time>1989-12-31T02:32:34Z</time>
      </trkpt>
      <trkpt lat="45.28481" lon="4.72687">
        <ele>384.4</ele>
        <time>1989-12-31T02:32:36Z</time>
      </trkpt>
      <trkpt lat="45.2846" lon="4.72673">
        <ele>384.4</ele>
        <time>1989-12-31T02:32:41Z</time>
      </trkpt>
      <trkpt lat="45.28423" lon="4.72647">
        <ele>386</ele>
        <time>1989-12-31T02:32:49Z</time>
      </trkpt>
      <trkpt lat="45.28393" lon="4.72624">
        <ele>386.6</ele>
        <time>1989-12-31T02:32:56Z</time>
      </trkpt>
      <trkpt lat="45.28369" lon="4.72605">
        <ele>387.2</ele>
        <time>1989-12-31T02:33:02Z</time>
      </trkpt>
      <trkpt lat="45.28362" lon="4.72599">
        <ele>387.4</ele>
        <time>1989-12-31T02:33:04Z</time>
      </trkpt>
      <trkpt lat="45.28308" lon="4.72562">
        <ele>390.4</ele>
        <time>1989-12-31T02:33:16Z</time>
      </trkpt>
      <trkpt lat="45.28285" lon="4.7254">
        <ele>391.8</ele>
        <time>1989-12-31T02:33:22Z</time>
      </trkpt>
      <trkpt lat="45.28279" lon="4.72528">
        <ele>393</ele>
        <time>1989-12-31T02:33:24Z</time>
      </trkpt>
      <trkpt lat="45.28268" lon="4.72514">
        <ele>392.8</ele>
        <time>1989-12-31T02:33:27Z</time>
      </trkpt>
      <trkpt lat="45.28256" lon="4.72499">
        <ele>393.4</ele>
        <time>1989-12-31T02:33:31Z</time>
      </trkpt>
      <trkpt lat="45.28245" lon="4.72494">
        <ele>394.6</ele>
        <time>1989-12-31T02:33:33Z</time>
      </trkpt>
      <trkpt lat="45.28238" lon="4.72493">
        <ele>395</ele>
        <time>1989-12-31T02:33:35Z</time>
      </trkpt>
      <trkpt lat="45.28235" lon="4.7248">
        <ele>395.4</ele>
        <time>1989-12-31T02:33:36Z</time>
      </trkpt>
      <trkpt lat="45.2823" lon="4.72469">
        <ele>395.6</ele>
        <time>1989-12-31T02:33:38Z</time>
      </trkpt>
      <trkpt lat="45.28224" lon="4.72464">
        <ele>395.6</ele>
        <time>1989-12-31T02:33:40Z</time>
      </trkpt>
      <trkpt lat="45.28215" lon="4.7246">
        <ele>396.2</ele>
        <time>1989-12-31T02:33:42Z</time>
      </trkpt>
      <trkpt lat="45.28197" lon="4.72461">
        <ele>397.8</ele>
        <time>1989-12-31T02:33:46Z</time>
      </trkpt>
      <trkpt lat="45.28164" lon="4.72456">
        <ele>400</ele>
        <time>1989-12-31T02:33:52Z</time>
      </trkpt>
      <trkpt lat="45.28142" lon="4.72443">
        <ele>401</ele>
        <time>1989-12-31T02:33:57Z</time>
      </trkpt>
      <trkpt lat="45.28108" lon="4.72417">
        <ele>403</ele>
        <time>1989-12-31T02:34:05Z</time>
      </trkpt>
      <trkpt lat="45.2808" lon="4.72394">
        <ele>404.4</ele>
        <time>1989-12-31T02:34:12Z</time>
      </trkpt>
      <trkpt lat="45.28056" lon="4.72375">
        <ele>405.6</ele>
        <time>1989-12-31T02:34:18Z</time>
      </trkpt>
      <trkpt lat="45.28032" lon="4.72356">
        <ele>405.4</ele>
        <time>1989-12-31T02:34:24Z</time>
      </trkpt>
      <trkpt lat="45.28001" lon="4.72329">
        <ele>409.2</ele>
        <time>1989-12-31T02:34:31Z</time>
      </trkpt>
      <trkpt lat="45.27963" lon="4.723">
        <ele>410.2</ele>
        <time>1989-12-31T02:34:40Z</time>
      </trkpt>
      <trkpt lat="45.27916" lon="4.72268">
        <ele>411.8</ele>
        <time>1989-12-31T02:34:51Z</time>
      </trkpt>
      <trkpt lat="45.27872" lon="4.7224">
        <ele>414.4</ele>
        <time>1989-12-31T02:35:01Z</time>
      </trkpt>
      <trkpt lat="45.27836" lon="4.72216">
        <ele>416.2</ele>
        <time>1989-12-31T02:35:09Z</time>
      </trkpt>
      <trkpt lat="45.27726" lon="4.72157">
        <ele>414.2</ele>
        <time>1989-12-31T02:35:33Z</time>
      </trkpt>
      <trkpt lat="45.27706" lon="4.7214">
        <ele>414</ele>
        <time>1989-12-31T02:35:38Z</time>
      </trkpt>
      <trkpt lat="45.27657" lon="4.72091">
        <ele>413.4</ele>
        <time>1989-12-31T02:35:51Z</time>
      </trkpt>
      <trkpt lat="45.27637" lon="4.72077">
        <ele>413.8</ele>
        <time>1989-12-31T02:35:55Z</time>
      </trkpt>
      <trkpt lat="45.27524" lon="4.72012">
        <ele>419.4</ele>
        <time>1989-12-31T02:36:21Z</time>
      </trkpt>
      <trkpt lat="45.27501" lon="4.71997">
        <ele>420.2</ele>
        <time>1989-12-31T02:36:26Z</time>
      </trkpt>
      <trkpt lat="45.27483" lon="4.7198">
        <ele>419.6</ele>
        <time>1989-12-31T02:36:30Z</time>
      </trkpt>
      <trkpt lat="45.274" lon="4.71894">
        <ele>418.8</ele>
        <time>1989-12-31T02:36:52Z</time>
      </trkpt>
      <trkpt lat="45.27335" lon="4.7183">
        <ele>416</ele>
        <time>1989-12-31T02:37:08Z</time>
      </trkpt>
      <trkpt lat="45.27315" lon="4.71813">
        <ele>414.6</ele>
        <time>1989-12-31T02:37:13Z</time>
      </trkpt>
      <trkpt lat="45.2728" lon="4.71769">
        <ele>412.4</ele>
        <time>1989-12-31T02:37:23Z</time>
      </trkpt>
      <trkpt lat="45.27253" lon="4.71723">
        <ele>410.2</ele>
        <time>1989-12-31T02:37:31Z</time>
      </trkpt>
      <trkpt lat="45.27242" lon="4.71713">
        <ele>409.8</ele>
        <time>1989-12-31T02:37:34Z</time>
      </trkpt>
      <trkpt lat="45.27234" lon="4.71707">
        <ele>409.4</ele>
        <time>1989-12-31T02:37:36Z</time>
      </trkpt>
      <trkpt lat="45.27225" lon="4.71707">
        <ele>409</ele>
        <time>1989-12-31T02:37:38Z</time>
      </trkpt>
      <trkpt lat="45.2717" lon="4.71726">
        <ele>406.8</ele>
        <time>1989-12-31T02:37:50Z</time>
      </trkpt>
      <trkpt lat="45.2715" lon="4.71726">
        <ele>407.2</ele>
        <time>1989-12-31T02:37:54Z</time>
      </trkpt>
      <trkpt lat="45.27136" lon="4.71721">
        <ele>407</ele>
        <time>1989-12-31T02:37:57Z</time>
      </trkpt>
      <trkpt lat="45.27121" lon="4.71712">
        <ele>407.2</ele>
        <time>1989-12-31T02:38:00Z</time>
      </trkpt>
      <trkpt lat="45.27119" lon="4.71707">
        <ele>407.2</ele>
        <time>1989-12-31T02:38:01Z</time>
      </trkpt>
      <trkpt lat="45.27119" lon="4.71699">
        <ele>406.8</ele>
        <time>1989-12-31T02:38:02Z</time>
      </trkpt>
      <trkpt lat="45.27118" lon="4.71672">
        <ele>406.6</ele>
        <time>1989-12-31T02:38:06Z</time>
      </trkpt>
      <trkpt lat="45.27119" lon="4.71649">
        <ele>406.8</ele>
        <time>1989-12-31T02:38:10Z</time>
      </trkpt>
      <trkpt lat="45.27114" lon="4.71597">
        <ele>409.2</ele>
        <time>1989-12-31T02:38:17Z</time>
      </trkpt>
      <trkpt lat="45.27105" lon="4.71556">
        <ele>410</ele>
        <time>1989-12-31T02:38:23Z</time>
      </trkpt>
      <trkpt lat="45.27093" lon="4.71523">
        <ele>409.4</ele>
        <time>1989-12-31T02:38:29Z</time>
      </trkpt>
      <trkpt lat="45.27075" lon="4.71492">
        <ele>409.8</ele>
        <time>1989-12-31T02:38:35Z</time>
      </trkpt>
      <trkpt lat="45.27037" lon="4.71431">
        <ele>411.2</ele>
        <time>1989-12-31T02:38:47Z</time>
      </trkpt>
      <trkpt lat="45.27004" lon="4.71389">
        <ele>413</ele>
        <time>1989-12-31T02:38:56Z</time>
      </trkpt>
      <trkpt lat="45.26962" lon="4.71348">
        <ele>414.4</ele>
        <time>1989-12-31T02:39:06Z</time>
      </trkpt>
      <trkpt lat="45.26791" lon="4.71224">
        <ele>420</ele>
        <time>1989-12-31T02:39:46Z</time>
      </trkpt>
      <trkpt lat="45.26716" lon="4.71171">
        <ele>423.2</ele>
        <time>1989-12-31T02:40:04Z</time>
      </trkpt>
      <trkpt lat="45.26531" lon="4.71048">
        <ele>430.2</ele>
        <time>1989-12-31T02:40:46Z</time>
      </trkpt>
      <trkpt lat="45.26417" lon="4.70967">
        <ele>433.6</ele>
        <time>1989-12-31T02:41:12Z</time>
      </trkpt>
      <trkpt lat="45.26294" lon="4.70858">
        <ele>433.6</ele>
        <time>1989-12-31T02:41:43Z</time>
      </trkpt>
      <trkpt lat="45.26276" lon="4.7085">
        <ele>433.2</ele>
        <time>1989-12-31T02:41:47Z</time>
      </trkpt>
      <trkpt lat="45.26258" lon="4.70847">
        <ele>432.2</ele>
        <time>1989-12-31T02:41:50Z</time>
      </trkpt>
      <trkpt lat="45.26217" lon="4.70854">
        <ele>431.4</ele>
        <time>1989-12-31T02:41:59Z</time>
      </trkpt>
      <trkpt lat="45.26206" lon="4.70852">
        <ele>431.8</ele>
        <time>1989-12-31T02:42:01Z</time>
      </trkpt>
      <trkpt lat="45.26185" lon="4.7084">
        <ele>433.4</ele>
        <time>1989-12-31T02:42:06Z</time>
      </trkpt>
      <trkpt lat="45.26162" lon="4.70828">
        <ele>432.2</ele>
        <time>1989-12-31T02:42:11Z</time>
      </trkpt>
      <trkpt lat="45.26139" lon="4.70812">
        <ele>433.6</ele>
        <time>1989-12-31T02:42:16Z</time>
      </trkpt>
      <trkpt lat="45.26131" lon="4.70804">
        <ele>434</ele>
        <time>1989-12-31T02:42:18Z</time>
      </trkpt>
      <trkpt lat="45.26126" lon="4.70792">
        <ele>434.2</ele>
        <time>1989-12-31T02:42:20Z</time>
      </trkpt>
      <trkpt lat="45.2612" lon="4.70764">
        <ele>435.4</ele>
        <time>1989-12-31T02:42:25Z</time>
      </trkpt>
      <trkpt lat="45.26121" lon="4.7075">
        <ele>436</ele>
        <time>1989-12-31T02:42:27Z</time>
      </trkpt>
      <trkpt lat="45.26125" lon="4.70732">
        <ele>437</ele>
        <time>1989-12-31T02:42:29Z</time>
      </trkpt>
      <trkpt lat="45.26133" lon="4.70718">
        <ele>438</ele>
        <time>1989-12-31T02:42:32Z</time>
      </trkpt>
      <trkpt lat="45.26142" lon="4.70709">
        <ele>438.2</ele>
        <time>1989-12-31T02:42:34Z</time>
      </trkpt>
      <trkpt lat="45.26153" lon="4.70704">
        <ele>438.8</ele>
        <time>1989-12-31T02:42:37Z</time>
      </trkpt>
      <trkpt lat="45.26166" lon="4.70701">
        <ele>440</ele>
        <time>1989-12-31T02:42:39Z</time>
      </trkpt>
      <trkpt lat="45.26177" lon="4.70702">
        <ele>440.6</ele>
        <time>1989-12-31T02:42:42Z</time>
      </trkpt>
      <trkpt lat="45.26184" lon="4.70709">
        <ele>440.6</ele>
        <time>1989-12-31T02:42:43Z</time>
      </trkpt>
      <trkpt lat="45.26194" lon="4.70716">
        <ele>441.2</ele>
        <time>1989-12-31T02:42:46Z</time>
      </trkpt>
      <trkpt lat="45.26201" lon="4.70724">
        <ele>441.2</ele>
        <time>1989-12-31T02:42:48Z</time>
      </trkpt>
      <trkpt lat="45.26204" lon="4.70733">
        <ele>441</ele>
        <time>1989-12-31T02:42:49Z</time>
      </trkpt>
      <trkpt lat="45.2621" lon="4.70741">
        <ele>441</ele>
        <time>1989-12-31T02:42:51Z</time>
      </trkpt>
      <trkpt lat="45.26219" lon="4.70749">
        <ele>441</ele>
        <time>1989-12-31T02:42:53Z</time>
      </trkpt>
      <trkpt lat="45.26229" lon="4.70753">
        <ele>440.8</ele>
        <time>1989-12-31T02:42:55Z</time>
      </trkpt>
      <trkpt lat="45.26241" lon="4.70752">
        <ele>441</ele>
        <time>1989-12-31T02:42:58Z</time>
      </trkpt>
      <trkpt lat="45.26256" lon="4.70741">
        <ele>441.4</ele>
        <time>1989-12-31T02:43:01Z</time>
      </trkpt>
      <trkpt lat="45.26264" lon="4.70728">
        <ele>441.4</ele>
        <time>1989-12-31T02:43:04Z</time>
      </trkpt>
      <trkpt lat="45.26268" lon="4.70712">
        <ele>441.6</ele>
        <time>1989-12-31T02:43:06Z</time>
      </trkpt>
      <trkpt lat="45.26289" lon="4.70699">
        <ele>441.8</ele>
        <time>1989-12-31T02:43:11Z</time>
      </trkpt>
      <trkpt lat="45.263" lon="4.70688">
        <ele>442.2</ele>
        <time>1989-12-31T02:43:14Z</time>
      </trkpt>
      <trkpt lat="45.26303" lon="4.70679">
        <ele>442.6</ele>
        <time>1989-12-31T02:43:15Z</time>
      </trkpt>
      <trkpt lat="45.26306" lon="4.70665">
        <ele>443.2</ele>
        <time>1989-12-31T02:43:17Z</time>
      </trkpt>
      <trkpt lat="45.26313" lon="4.70611">
        <ele>446.4</ele>
        <time>1989-12-31T02:43:25Z</time>
      </trkpt>
      <trkpt lat="45.26313" lon="4.70608">
        <ele>446.4</ele>
        <time>1989-12-31T02:43:26Z</time>
      </trkpt>
      <trkpt lat="45.26318" lon="4.70493">
        <ele>444.8</ele>
        <time>1989-12-31T02:43:43Z</time>
      </trkpt>
      <trkpt lat="45.26325" lon="4.70455">
        <ele>445</ele>
        <time>1989-12-31T02:43:48Z</time>
      </trkpt>
      <trkpt lat="45.26341" lon="4.70433">
        <ele>446.4</ele>
        <time>1989-12-31T02:43:53Z</time>
      </trkpt>
      <trkpt lat="45.2637" lon="4.7042">
        <ele>447.4</ele>
        <time>1989-12-31T02:43:59Z</time>
      </trkpt>
      <trkpt lat="45.26447" lon="4.70405">
        <ele>448.8</ele>
        <time>1989-12-31T02:44:16Z</time>
      </trkpt>
      <trkpt lat="45.26583" lon="4.70372">
        <ele>452</ele>
        <time>1989-12-31T02:44:44Z</time>
      </trkpt>
      <trkpt lat="45.26648" lon="4.70345">
        <ele>454.4</ele>
        <time>1989-12-31T02:44:58Z</time>
      </trkpt>
      <trkpt lat="45.26793" lon="4.70276">
        <ele>462.8</ele>
        <time>1989-12-31T02:45:30Z</time>
      </trkpt>
      <trkpt lat="45.268" lon="4.70271">
        <ele>463.4</ele>
        <time>1989-12-31T02:45:32Z</time>
      </trkpt>
      <trkpt lat="45.26904" lon="4.70152">
        <ele>470.6</ele>
        <time>1989-12-31T02:45:59Z</time>
      </trkpt>
      <trkpt lat="45.26926" lon="4.70128">
        <ele>471.8</ele>
        <time>1989-12-31T02:46:05Z</time>
      </trkpt>
      <trkpt lat="45.26961" lon="4.70133">
        <ele>473.4</ele>
        <time>1989-12-31T02:46:12Z</time>
      </trkpt>
      <trkpt lat="45.26976" lon="4.70139">
        <ele>474.4</ele>
        <time>1989-12-31T02:46:16Z</time>
      </trkpt>
      <trkpt lat="45.26985" lon="4.70157">
        <ele>474.8</ele>
        <time>1989-12-31T02:46:19Z</time>
      </trkpt>
      <trkpt lat="45.27041" lon="4.70353">
        <ele>475.6</ele>
        <time>1989-12-31T02:46:50Z</time>
      </trkpt>
      <trkpt lat="45.27044" lon="4.70404">
        <ele>474</ele>
        <time>1989-12-31T02:46:57Z</time>
      </trkpt>
      <trkpt lat="45.27063" lon="4.70438">
        <ele>472.6</ele>
        <time>1989-12-31T02:47:03Z</time>
      </trkpt>
      <trkpt lat="45.27105" lon="4.70491">
        <ele>472.2</ele>
        <time>1989-12-31T02:47:15Z</time>
      </trkpt>
      <trkpt lat="45.27181" lon="4.70639">
        <ele>469</ele>
        <time>1989-12-31T02:47:42Z</time>
      </trkpt>
      <trkpt lat="45.27187" lon="4.7065">
        <ele>468.8</ele>
        <time>1989-12-31T02:47:44Z</time>
      </trkpt>
      <trkpt lat="45.27212" lon="4.70696">
        <ele>467.6</ele>
        <time>1989-12-31T02:47:52Z</time>
      </trkpt>
      <trkpt lat="45.27234" lon="4.70716">
        <ele>467</ele>
        <time>1989-12-31T02:47:58Z</time>
      </trkpt>
      <trkpt lat="45.27256" lon="4.70733">
        <ele>465.6</ele>
        <time>1989-12-31T02:48:03Z</time>
      </trkpt>
      <trkpt lat="45.27275" lon="4.70742">
        <ele>464</ele>
        <time>1989-12-31T02:48:07Z</time>
      </trkpt>
      <trkpt lat="45.27353" lon="4.70781">
        <ele>461</ele>
        <time>1989-12-31T02:48:24Z</time>
      </trkpt>
      <trkpt lat="45.27374" lon="4.70787">
        <ele>459.8</ele>
        <time>1989-12-31T02:48:29Z</time>
      </trkpt>
      <trkpt lat="45.27393" lon="4.70788">
        <ele>459.4</ele>
        <time>1989-12-31T02:48:33Z</time>
      </trkpt>
      <trkpt lat="45.27426" lon="4.70783">
        <ele>458.8</ele>
        <time>1989-12-31T02:48:40Z</time>
      </trkpt>
      <trkpt lat="45.27459" lon="4.70772">
        <ele>457.8</ele>
        <time>1989-12-31T02:48:47Z</time>
      </trkpt>
      <trkpt lat="45.27505" lon="4.70751">
        <ele>456</ele>
        <time>1989-12-31T02:48:57Z</time>
      </trkpt>
      <trkpt lat="45.27538" lon="4.70749">
        <ele>457</ele>
        <time>1989-12-31T02:49:04Z</time>
      </trkpt>
      <trkpt lat="45.2756" lon="4.70752">
        <ele>458</ele>
        <time>1989-12-31T02:49:08Z</time>
      </trkpt>
      <trkpt lat="45.27607" lon="4.70739">
        <ele>461.6</ele>
        <time>1989-12-31T02:49:18Z</time>
      </trkpt>
      <trkpt lat="45.27641" lon="4.70733">
        <ele>464.6</ele>
        <time>1989-12-31T02:49:25Z</time>
      </trkpt>
      <trkpt lat="45.27663" lon="4.70727">
        <ele>466</ele>
        <time>1989-12-31T02:49:30Z</time>
      </trkpt>
      <trkpt lat="45.27707" lon="4.70724">
        <ele>468.6</ele>
        <time>1989-12-31T02:49:39Z</time>
      </trkpt>
      <trkpt lat="45.27731" lon="4.7072">
        <ele>469.4</ele>
        <time>1989-12-31T02:49:44Z</time>
      </trkpt>
      <trkpt lat="45.27758" lon="4.70709">
        <ele>471.2</ele>
        <time>1989-12-31T02:49:50Z</time>
      </trkpt>
      <trkpt lat="45.27782" lon="4.70688">
        <ele>471.4</ele>
        <time>1989-12-31T02:49:56Z</time>
      </trkpt>
      <trkpt lat="45.27786" lon="4.70684">
        <ele>471.4</ele>
        <time>1989-12-31T02:49:57Z</time>
      </trkpt>
      <trkpt lat="45.27809" lon="4.70671">
        <ele>471.2</ele>
        <time>1989-12-31T02:50:02Z</time>
      </trkpt>
      <trkpt lat="45.2784" lon="4.70659">
        <ele>471</ele>
        <time>1989-12-31T02:50:09Z</time>
      </trkpt>
      <trkpt lat="45.27845" lon="4.70657">
        <ele>471.2</ele>
        <time>1989-12-31T02:50:10Z</time>
      </trkpt>
      <trkpt lat="45.27862" lon="4.70652">
        <ele>471.2</ele>
        <time>1989-12-31T02:50:13Z</time>
      </trkpt>
      <trkpt lat="45.27877" lon="4.70656">
        <ele>472</ele>
        <time>1989-12-31T02:50:16Z</time>
      </trkpt>
      <trkpt lat="45.2789" lon="4.70663">
        <ele>472.4</ele>
        <time>1989-12-31T02:50:19Z</time>
      </trkpt>
      <trkpt lat="45.27899" lon="4.70668">
        <ele>472.6</ele>
        <time>1989-12-31T02:50:21Z</time>
      </trkpt>
      <trkpt lat="45.27904" lon="4.70668">
        <ele>473</ele>
        <time>1989-12-31T02:50:22Z</time>
      </trkpt>
      <trkpt lat="45.27925" lon="4.7066">
        <ele>474.6</ele>
        <time>1989-12-31T02:50:27Z</time>
      </trkpt>
      <trkpt lat="45.27959" lon="4.70651">
        <ele>475.6</ele>
        <time>1989-12-31T02:50:34Z</time>
      </trkpt>
      <trkpt lat="45.27963" lon="4.7065">
        <ele>475.6</ele>
        <time>1989-12-31T02:50:35Z</time>
      </trkpt>
      <trkpt lat="45.27981" lon="4.70644">
        <ele>476.6</ele>
        <time>1989-12-31T02:50:39Z</time>
      </trkpt>
      <trkpt lat="45.28042" lon="4.70627">
        <ele>479.8</ele>
        <time>1989-12-31T02:50:52Z</time>
      </trkpt>
      <trkpt lat="45.2806" lon="4.70619">
        <ele>480.6</ele>
        <time>1989-12-31T02:50:56Z</time>
      </trkpt>
      <trkpt lat="45.28115" lon="4.70576">
        <ele>481.6</ele>
        <time>1989-12-31T02:51:08Z</time>
      </trkpt>
      <trkpt lat="45.28192" lon="4.70528">
        <ele>483.2</ele>
        <time>1989-12-31T02:51:26Z</time>
      </trkpt>
      <trkpt lat="45.28268" lon="4.70494">
        <ele>483.4</ele>
        <time>1989-12-31T02:51:42Z</time>
      </trkpt>
      <trkpt lat="45.2828" lon="4.70484">
        <ele>483.8</ele>
        <time>1989-12-31T02:51:45Z</time>
      </trkpt>
      <trkpt lat="45.28325" lon="4.70489">
        <ele>482</ele>
        <time>1989-12-31T02:51:55Z</time>
      </trkpt>
      <trkpt lat="45.28385" lon="4.70499">
        <ele>478.2</ele>
        <time>1989-12-31T02:52:07Z</time>
      </trkpt>
      <trkpt lat="45.28401" lon="4.70519">
        <ele>477.2</ele>
        <time>1989-12-31T02:52:12Z</time>
      </trkpt>
      <trkpt lat="45.28408" lon="4.70535">
        <ele>477.4</ele>
        <time>1989-12-31T02:52:14Z</time>
      </trkpt>
      <trkpt lat="45.28413" lon="4.70552">
        <ele>477.6</ele>
        <time>1989-12-31T02:52:17Z</time>
      </trkpt>
      <trkpt lat="45.28432" lon="4.70563">
        <ele>478.4</ele>
        <time>1989-12-31T02:52:21Z</time>
      </trkpt>
      <trkpt lat="45.28499" lon="4.70586">
        <ele>483</ele>
        <time>1989-12-31T02:52:36Z</time>
      </trkpt>
      <trkpt lat="45.28512" lon="4.70591">
        <ele>484.2</ele>
        <time>1989-12-31T02:52:38Z</time>
      </trkpt>
      <trkpt lat="45.28529" lon="4.70492">
        <ele>488.2</ele>
        <time>1989-12-31T02:52:53Z</time>
      </trkpt>
      <trkpt lat="45.2855" lon="4.70418">
        <ele>491</ele>
        <time>1989-12-31T02:53:05Z</time>
      </trkpt>
      <trkpt lat="45.28555" lon="4.70368">
        <ele>493.8</ele>
        <time>1989-12-31T02:53:12Z</time>
      </trkpt>
      <trkpt lat="45.28556" lon="4.70361">
        <ele>494</ele>
        <time>1989-12-31T02:53:13Z</time>
      </trkpt>
      <trkpt lat="45.28556" lon="4.70297">
        <ele>496.4</ele>
        <time>1989-12-31T02:53:23Z</time>
      </trkpt>
      <trkpt lat="45.28552" lon="4.70266">
        <ele>497.2</ele>
        <time>1989-12-31T02:53:27Z</time>
      </trkpt>
      <trkpt lat="45.28549" lon="4.70242">
        <ele>498</ele>
        <time>1989-12-31T02:53:31Z</time>
      </trkpt>
      <trkpt lat="45.28546" lon="4.70217">
        <ele>498.6</ele>
        <time>1989-12-31T02:53:35Z</time>
      </trkpt>
      <trkpt lat="45.28546" lon="4.70194">
        <ele>499.4</ele>
        <time>1989-12-31T02:53:38Z</time>
      </trkpt>
      <trkpt lat="45.28546" lon="4.7019">
        <ele>499.6</ele>
        <time>1989-12-31T02:53:39Z</time>
      </trkpt>
      <trkpt lat="45.28549" lon="4.70075">
        <ele>504.2</ele>
        <time>1989-12-31T02:53:55Z</time>
      </trkpt>
      <trkpt lat="45.28558" lon="4.70023">
        <ele>505.2</ele>
        <time>1989-12-31T02:54:03Z</time>
      </trkpt>
      <trkpt lat="45.2856" lon="4.70013">
        <ele>505.2</ele>
        <time>1989-12-31T02:54:05Z</time>
      </trkpt>
      <trkpt lat="45.28563" lon="4.69997">
        <ele>505.2</ele>
        <time>1989-12-31T02:54:07Z</time>
      </trkpt>
      <trkpt lat="45.28592" lon="4.69944">
        <ele>505.6</ele>
        <time>1989-12-31T02:54:17Z</time>
      </trkpt>
      <trkpt lat="45.28603" lon="4.69926">
        <ele>505.8</ele>
        <time>1989-12-31T02:54:20Z</time>
      </trkpt>
      <trkpt lat="45.28681" lon="4.69777">
        <ele>506.6</ele>
        <time>1989-12-31T02:54:48Z</time>
      </trkpt>
      <trkpt lat="45.28734" lon="4.6966">
        <ele>506</ele>
        <time>1989-12-31T02:55:08Z</time>
      </trkpt>
      <trkpt lat="45.28811" lon="4.69591">
        <ele>510.6</ele>
        <time>1989-12-31T02:55:27Z</time>
      </trkpt>
      <trkpt lat="45.28892" lon="4.69519">
        <ele>517</ele>
        <time>1989-12-31T02:55:47Z</time>
      </trkpt>
      <trkpt lat="45.28982" lon="4.69452">
        <ele>520</ele>
        <time>1989-12-31T02:56:08Z</time>
      </trkpt>
      <trkpt lat="45.29027" lon="4.69455">
        <ele>521.6</ele>
        <time>1989-12-31T02:56:17Z</time>
      </trkpt>
      <trkpt lat="45.29123" lon="4.69405">
        <ele>523.4</ele>
        <time>1989-12-31T02:56:38Z</time>
      </trkpt>
      <trkpt lat="45.29216" lon="4.69453">
        <ele>528</ele>
        <time>1989-12-31T02:56:59Z</time>
      </trkpt>
      <trkpt lat="45.29222" lon="4.69456">
        <ele>528.2</ele>
        <time>1989-12-31T02:57:00Z</time>
      </trkpt>
      <trkpt lat="45.29227" lon="4.69449">
        <ele>527.6</ele>
        <time>1989-12-31T02:57:02Z</time>
      </trkpt>
      <trkpt lat="45.29227" lon="4.69439">
        <ele>526.6</ele>
        <time>1989-12-31T02:57:03Z</time>
      </trkpt>
      <trkpt lat="45.29218" lon="4.69412">
        <ele>524.8</ele>
        <time>1989-12-31T02:57:07Z</time>
      </trkpt>
      <trkpt lat="45.29214" lon="4.69384">
        <ele>524</ele>
        <time>1989-12-31T02:57:12Z</time>
      </trkpt>
      <trkpt lat="45.29215" lon="4.6937">
        <ele>523.8</ele>
        <time>1989-12-31T02:57:14Z</time>
      </trkpt>
      <trkpt lat="45.29218" lon="4.69354">
        <ele>523.4</ele>
        <time>1989-12-31T02:57:16Z</time>
      </trkpt>
      <trkpt lat="45.29235" lon="4.69253">
        <ele>518.2</ele>
        <time>1989-12-31T02:57:31Z</time>
      </trkpt>
      <trkpt lat="45.2927" lon="4.69059">
        <ele>514.4</ele>
        <time>1989-12-31T02:58:00Z</time>
      </trkpt>
      <trkpt lat="45.29276" lon="4.69027">
        <ele>513.8</ele>
        <time>1989-12-31T02:58:05Z</time>
      </trkpt>
      <trkpt lat="45.29286" lon="4.68974">
        <ele>512.8</ele>
        <time>1989-12-31T02:58:13Z</time>
      </trkpt>
      <trkpt lat="45.29289" lon="4.68949">
        <ele>512.6</ele>
        <time>1989-12-31T02:58:17Z</time>
      </trkpt>
      <trkpt lat="45.29282" lon="4.68928">
        <ele>512.2</ele>
        <time>1989-12-31T02:58:20Z</time>
      </trkpt>
      <trkpt lat="45.29271" lon="4.68912">
        <ele>510.8</ele>
        <time>1989-12-31T02:58:24Z</time>
      </trkpt>
      <trkpt lat="45.2926" lon="4.68903">
        <ele>510.2</ele>
        <time>1989-12-31T02:58:26Z</time>
      </trkpt>
      <trkpt lat="45.29254" lon="4.68899">
        <ele>510.6</ele>
        <time>1989-12-31T02:58:28Z</time>
      </trkpt>
      <trkpt lat="45.29246" lon="4.68895">
        <ele>511.4</ele>
        <time>1989-12-31T02:58:30Z</time>
      </trkpt>
      <trkpt lat="45.29234" lon="4.68895">
        <ele>512.4</ele>
        <time>1989-12-31T02:58:32Z</time>
      </trkpt>
      <trkpt lat="45.29172" lon="4.68922">
        <ele>511.2</ele>
        <time>1989-12-31T02:58:45Z</time>
      </trkpt>
      <trkpt lat="45.29077" lon="4.68961">
        <ele>508.4</ele>
        <time>1989-12-31T02:59:06Z</time>
      </trkpt>
      <trkpt lat="45.29022" lon="4.68984">
        <ele>505.4</ele>
        <time>1989-12-31T02:59:18Z</time>
      </trkpt>
      <trkpt lat="45.29005" lon="4.68986">
        <ele>505.4</ele>
        <time>1989-12-31T02:59:21Z</time>
      </trkpt>
      <trkpt lat="45.28984" lon="4.68986">
        <ele>505</ele>
        <time>1989-12-31T02:59:26Z</time>
      </trkpt>
      <trkpt lat="45.28953" lon="4.68974">
        <ele>504</ele>
        <time>1989-12-31T02:59:32Z</time>
      </trkpt>
      <trkpt lat="45.28903" lon="4.68945">
        <ele>501.4</ele>
        <time>1989-12-31T02:59:44Z</time>
      </trkpt>
      <trkpt lat="45.28742" lon="4.68865">
        <ele>496.4</ele>
        <time>1989-12-31T03:00:19Z</time>
      </trkpt>
      <trkpt lat="45.28719" lon="4.68861">
        <ele>496</ele>
        <time>1989-12-31T03:00:24Z</time>
      </trkpt>
      <trkpt lat="45.28693" lon="4.6886">
        <ele>495</ele>
        <time>1989-12-31T03:00:29Z</time>
      </trkpt>
      <trkpt lat="45.28566" lon="4.68864">
        <ele>491.2</ele>
        <time>1989-12-31T03:00:56Z</time>
      </trkpt>
      <trkpt lat="45.28534" lon="4.68859">
        <ele>491.2</ele>
        <time>1989-12-31T03:01:02Z</time>
      </trkpt>
      <trkpt lat="45.28504" lon="4.6885">
        <ele>490.6</ele>
        <time>1989-12-31T03:01:09Z</time>
      </trkpt>
      <trkpt lat="45.28423" lon="4.68821">
        <ele>486.2</ele>
        <time>1989-12-31T03:01:26Z</time>
      </trkpt>
      <trkpt lat="45.28328" lon="4.68787">
        <ele>484.2</ele>
        <time>1989-12-31T03:01:46Z</time>
      </trkpt>
      <trkpt lat="45.28269" lon="4.68766">
        <ele>483.6</ele>
        <time>1989-12-31T03:01:59Z</time>
      </trkpt>
      <trkpt lat="45.28252" lon="4.68757">
        <ele>483.6</ele>
        <time>1989-12-31T03:02:03Z</time>
      </trkpt>
      <trkpt lat="45.28242" lon="4.68752">
        <ele>483.2</ele>
        <time>1989-12-31T03:02:05Z</time>
      </trkpt>
      <trkpt lat="45.28229" lon="4.68743">
        <ele>482.8</ele>
        <time>1989-12-31T03:02:08Z</time>
      </trkpt>
      <trkpt lat="45.28217" lon="4.68722">
        <ele>482.6</ele>
        <time>1989-12-31T03:02:12Z</time>
      </trkpt>
      <trkpt lat="45.28211" lon="4.68694">
        <ele>483.8</ele>
        <time>1989-12-31T03:02:16Z</time>
      </trkpt>
      <trkpt lat="45.28216" lon="4.68659">
        <ele>482.2</ele>
        <time>1989-12-31T03:02:21Z</time>
      </trkpt>
      <trkpt lat="45.28227" lon="4.6862">
        <ele>479.6</ele>
        <time>1989-12-31T03:02:28Z</time>
      </trkpt>
      <trkpt lat="45.28225" lon="4.68594">
        <ele>477.8</ele>
        <time>1989-12-31T03:02:31Z</time>
      </trkpt>
      <trkpt lat="45.28209" lon="4.68555">
        <ele>475.8</ele>
        <time>1989-12-31T03:02:38Z</time>
      </trkpt>
      <trkpt lat="45.28159" lon="4.68537">
        <ele>473.4</ele>
        <time>1989-12-31T03:02:49Z</time>
      </trkpt>
      <trkpt lat="45.28115" lon="4.68508">
        <ele>472.6</ele>
        <time>1989-12-31T03:02:59Z</time>
      </trkpt>
      <trkpt lat="45.2808" lon="4.68479">
        <ele>472.4</ele>
        <time>1989-12-31T03:03:07Z</time>
      </trkpt>
      <trkpt lat="45.28078" lon="4.68478">
        <ele>472.2</ele>
        <time>1989-12-31T03:03:08Z</time>
      </trkpt>
      <trkpt lat="45.28037" lon="4.68449">
        <ele>471.2</ele>
        <time>1989-12-31T03:03:17Z</time>
      </trkpt>
      <trkpt lat="45.28034" lon="4.68447">
        <ele>471.2</ele>
        <time>1989-12-31T03:03:18Z</time>
      </trkpt>
      <trkpt lat="45.28027" lon="4.68441">
        <ele>471.2</ele>
        <time>1989-12-31T03:03:19Z</time>
      </trkpt>
      <trkpt lat="45.28015" lon="4.6843">
        <ele>470.2</ele>
        <time>1989-12-31T03:03:22Z</time>
      </trkpt>
      <trkpt lat="45.27999" lon="4.68401">
        <ele>469.4</ele>
        <time>1989-12-31T03:03:28Z</time>
      </trkpt>
      <trkpt lat="45.27979" lon="4.68365">
        <ele>468.8</ele>
        <time>1989-12-31T03:03:34Z</time>
      </trkpt>
      <trkpt lat="45.27977" lon="4.68362">
        <ele>468.8</ele>
        <time>1989-12-31T03:03:35Z</time>
      </trkpt>
      <trkpt lat="45.27957" lon="4.68322">
        <ele>467.8</ele>
        <time>1989-12-31T03:03:42Z</time>
      </trkpt>
      <trkpt lat="45.27956" lon="4.68317">
        <ele>467.8</ele>
        <time>1989-12-31T03:03:43Z</time>
      </trkpt>
      <trkpt lat="45.27936" lon="4.68251">
        <ele>466.6</ele>
        <time>1989-12-31T03:03:53Z</time>
      </trkpt>
      <trkpt lat="45.2793" lon="4.68206">
        <ele>465.8</ele>
        <time>1989-12-31T03:04:00Z</time>
      </trkpt>
      <trkpt lat="45.27928" lon="4.68195">
        <ele>465.2</ele>
        <time>1989-12-31T03:04:02Z</time>
      </trkpt>
      <trkpt lat="45.27929" lon="4.68171">
        <ele>464.8</ele>
        <time>1989-12-31T03:04:05Z</time>
      </trkpt>
      <trkpt lat="45.27933" lon="4.68163">
        <ele>465.2</ele>
        <time>1989-12-31T03:04:07Z</time>
      </trkpt>
      <trkpt lat="45.27931" lon="4.68155">
        <ele>464.6</ele>
        <time>1989-12-31T03:04:08Z</time>
      </trkpt>
      <trkpt lat="45.27932" lon="4.68136">
        <ele>464.2</ele>
        <time>1989-12-31T03:04:11Z</time>
      </trkpt>
      <trkpt lat="45.27939" lon="4.68115">
        <ele>464.6</ele>
        <time>1989-12-31T03:04:14Z</time>
      </trkpt>
      <trkpt lat="45.2794" lon="4.68113">
        <ele>464.6</ele>
        <time>1989-12-31T03:04:15Z</time>
      </trkpt>
      <trkpt lat="45.27941" lon="4.68092">
        <ele>464.6</ele>
        <time>1989-12-31T03:04:18Z</time>
      </trkpt>
      <trkpt lat="45.27932" lon="4.68057">
        <ele>463.2</ele>
        <time>1989-12-31T03:04:23Z</time>
      </trkpt>
      <trkpt lat="45.27926" lon="4.68032">
        <ele>462.8</ele>
        <time>1989-12-31T03:04:27Z</time>
      </trkpt>
      <trkpt lat="45.2792" lon="4.68018">
        <ele>462.4</ele>
        <time>1989-12-31T03:04:29Z</time>
      </trkpt>
      <trkpt lat="45.2791" lon="4.68007">
        <ele>461.8</ele>
        <time>1989-12-31T03:04:32Z</time>
      </trkpt>
      <trkpt lat="45.27889" lon="4.67984">
        <ele>461.6</ele>
        <time>1989-12-31T03:04:37Z</time>
      </trkpt>
      <trkpt lat="45.27874" lon="4.67974">
        <ele>460.4</ele>
        <time>1989-12-31T03:04:41Z</time>
      </trkpt>
      <trkpt lat="45.27862" lon="4.67962">
        <ele>459.6</ele>
        <time>1989-12-31T03:04:44Z</time>
      </trkpt>
      <trkpt lat="45.27862" lon="4.67951">
        <ele>459.8</ele>
        <time>1989-12-31T03:04:46Z</time>
      </trkpt>
      <trkpt lat="45.27857" lon="4.67927">
        <ele>460.4</ele>
        <time>1989-12-31T03:04:49Z</time>
      </trkpt>
      <trkpt lat="45.2785" lon="4.67896">
        <ele>461.8</ele>
        <time>1989-12-31T03:04:54Z</time>
      </trkpt>
      <trkpt lat="45.27847" lon="4.67872">
        <ele>462.6</ele>
        <time>1989-12-31T03:04:58Z</time>
      </trkpt>
      <trkpt lat="45.27821" lon="4.67769">
        <ele>465.6</ele>
        <time>1989-12-31T03:05:14Z</time>
      </trkpt>
      <trkpt lat="45.27819" lon="4.6775">
        <ele>466.6</ele>
        <time>1989-12-31T03:05:17Z</time>
      </trkpt>
      <trkpt lat="45.27823" lon="4.67737">
        <ele>467</ele>
        <time>1989-12-31T03:05:19Z</time>
      </trkpt>
      <trkpt lat="45.27848" lon="4.67699">
        <ele>470</ele>
        <time>1989-12-31T03:05:26Z</time>
      </trkpt>
      <trkpt lat="45.27879" lon="4.67651">
        <ele>472</ele>
        <time>1989-12-31T03:05:36Z</time>
      </trkpt>
      <trkpt lat="45.27882" lon="4.67645">
        <ele>472.4</ele>
        <time>1989-12-31T03:05:37Z</time>
      </trkpt>
      <trkpt lat="45.27886" lon="4.67642">
        <ele>472.8</ele>
        <time>1989-12-31T03:05:38Z</time>
      </trkpt>
      <trkpt lat="45.27901" lon="4.6763">
        <ele>473.6</ele>
        <time>1989-12-31T03:05:41Z</time>
      </trkpt>
      <trkpt lat="45.27902" lon="4.6763">
        <ele>473.6</ele>
        <time>1989-12-31T03:05:42Z</time>
      </trkpt>
      <trkpt lat="45.2792" lon="4.67615">
        <ele>475.2</ele>
        <time>1989-12-31T03:05:46Z</time>
      </trkpt>
      <trkpt lat="45.27925" lon="4.67611">
        <ele>475.6</ele>
        <time>1989-12-31T03:05:47Z</time>
      </trkpt>
      <trkpt lat="45.27938" lon="4.67601">
        <ele>476.6</ele>
        <time>1989-12-31T03:05:50Z</time>
      </trkpt>
      <trkpt lat="45.27943" lon="4.67597">
        <ele>477</ele>
        <time>1989-12-31T03:05:51Z</time>
      </trkpt>
      <trkpt lat="45.27968" lon="4.67581">
        <ele>479.6</ele>
        <time>1989-12-31T03:05:57Z</time>
      </trkpt>
      <trkpt lat="45.27973" lon="4.67579">
        <ele>480.2</ele>
        <time>1989-12-31T03:05:58Z</time>
      </trkpt>
      <trkpt lat="45.2798" lon="4.67577">
        <ele>481</ele>
        <time>1989-12-31T03:06:00Z</time>
      </trkpt>
      <trkpt lat="45.27991" lon="4.67574">
        <ele>482.2</ele>
        <time>1989-12-31T03:06:02Z</time>
      </trkpt>
      <trkpt lat="45.28002" lon="4.67569">
        <ele>483.2</ele>
        <time>1989-12-31T03:06:04Z</time>
      </trkpt>
      <trkpt lat="45.28024" lon="4.67559">
        <ele>485.6</ele>
        <time>1989-12-31T03:06:09Z</time>
      </trkpt>
      <trkpt lat="45.28096" lon="4.67539">
        <ele>493.6</ele>
        <time>1989-12-31T03:06:24Z</time>
      </trkpt>
      <trkpt lat="45.28114" lon="4.67531">
        <ele>497.4</ele>
        <time>1989-12-31T03:06:28Z</time>
      </trkpt>
      <trkpt lat="45.28117" lon="4.67528">
        <ele>498</ele>
        <time>1989-12-31T03:06:29Z</time>
      </trkpt>
      <trkpt lat="45.28127" lon="4.67518">
        <ele>499.8</ele>
        <time>1989-12-31T03:06:32Z</time>
      </trkpt>
      <trkpt lat="45.28131" lon="4.67512">
        <ele>500.4</ele>
        <time>1989-12-31T03:06:33Z</time>
      </trkpt>
      <trkpt lat="45.28134" lon="4.67486">
        <ele>501.4</ele>
        <time>1989-12-31T03:06:37Z</time>
      </trkpt>
      <trkpt lat="45.28138" lon="4.67473">
        <ele>502.8</ele>
        <time>1989-12-31T03:06:39Z</time>
      </trkpt>
      <trkpt lat="45.28141" lon="4.67453">
        <ele>504.8</ele>
        <time>1989-12-31T03:06:42Z</time>
      </trkpt>
      <trkpt lat="45.2814" lon="4.67436">
        <ele>505.2</ele>
        <time>1989-12-31T03:06:44Z</time>
      </trkpt>
      <trkpt lat="45.28138" lon="4.67408">
        <ele>505.2</ele>
        <time>1989-12-31T03:06:48Z</time>
      </trkpt>
      <trkpt lat="45.28133" lon="4.67381">
        <ele>505.2</ele>
        <time>1989-12-31T03:06:52Z</time>
      </trkpt>
      <trkpt lat="45.28124" lon="4.67366">
        <ele>504</ele>
        <time>1989-12-31T03:06:55Z</time>
      </trkpt>
      <trkpt lat="45.28113" lon="4.6735">
        <ele>502.8</ele>
        <time>1989-12-31T03:06:59Z</time>
      </trkpt>
      <trkpt lat="45.28107" lon="4.6734">
        <ele>502.2</ele>
        <time>1989-12-31T03:07:00Z</time>
      </trkpt>
      <trkpt lat="45.28095" lon="4.67325">
        <ele>500.8</ele>
        <time>1989-12-31T03:07:04Z</time>
      </trkpt>
      <trkpt lat="45.28077" lon="4.67303">
        <ele>498.4</ele>
        <time>1989-12-31T03:07:09Z</time>
      </trkpt>
      <trkpt lat="45.28072" lon="4.6729">
        <ele>498</ele>
        <time>1989-12-31T03:07:11Z</time>
      </trkpt>
      <trkpt lat="45.28069" lon="4.67282">
        <ele>497.4</ele>
        <time>1989-12-31T03:07:12Z</time>
      </trkpt>
      <trkpt lat="45.28066" lon="4.67274">
        <ele>497</ele>
        <time>1989-12-31T03:07:14Z</time>
      </trkpt>
      <trkpt lat="45.28059" lon="4.67252">
        <ele>496.4</ele>
        <time>1989-12-31T03:07:17Z</time>
      </trkpt>
      <trkpt lat="45.28046" lon="4.67239">
        <ele>496</ele>
        <time>1989-12-31T03:07:20Z</time>
      </trkpt>
      <trkpt lat="45.28039" lon="4.67237">
        <ele>495.8</ele>
        <time>1989-12-31T03:07:22Z</time>
      </trkpt>
      <trkpt lat="45.28026" lon="4.67237">
        <ele>495</ele>
        <time>1989-12-31T03:07:25Z</time>
      </trkpt>
      <trkpt lat="45.28011" lon="4.67245">
        <ele>493.8</ele>
        <time>1989-12-31T03:07:28Z</time>
      </trkpt>
      <trkpt lat="45.27998" lon="4.67255">
        <ele>492.4</ele>
        <time>1989-12-31T03:07:31Z</time>
      </trkpt>
      <trkpt lat="45.27982" lon="4.67262">
        <ele>491.6</ele>
        <time>1989-12-31T03:07:35Z</time>
      </trkpt>
      <trkpt lat="45.27969" lon="4.67262">
        <ele>491.4</ele>
        <time>1989-12-31T03:07:37Z</time>
      </trkpt>
      <trkpt lat="45.27956" lon="4.67258">
        <ele>490.6</ele>
        <time>1989-12-31T03:07:40Z</time>
      </trkpt>
      <trkpt lat="45.27927" lon="4.67236">
        <ele>490</ele>
        <time>1989-12-31T03:07:47Z</time>
      </trkpt>
      <trkpt lat="45.27888" lon="4.67219">
        <ele>487.2</ele>
        <time>1989-12-31T03:07:55Z</time>
      </trkpt>
      <trkpt lat="45.27883" lon="4.67217">
        <ele>486.8</ele>
        <time>1989-12-31T03:07:56Z</time>
      </trkpt>
      <trkpt lat="45.27856" lon="4.67204">
        <ele>485.6</ele>
        <time>1989-12-31T03:08:02Z</time>
      </trkpt>
      <trkpt lat="45.27832" lon="4.67193">
        <ele>484</ele>
        <time>1989-12-31T03:08:07Z</time>
      </trkpt>
      <trkpt lat="45.27829" lon="4.67192">
        <ele>484</ele>
        <time>1989-12-31T03:08:08Z</time>
      </trkpt>
      <trkpt lat="45.27821" lon="4.67189">
        <ele>483.6</ele>
        <time>1989-12-31T03:08:10Z</time>
      </trkpt>
      <trkpt lat="45.27812" lon="4.67185">
        <ele>483.2</ele>
        <time>1989-12-31T03:08:12Z</time>
      </trkpt>
      <trkpt lat="45.27802" lon="4.67177">
        <ele>483</ele>
        <time>1989-12-31T03:08:14Z</time>
      </trkpt>
      <trkpt lat="45.27795" lon="4.67171">
        <ele>482.6</ele>
        <time>1989-12-31T03:08:16Z</time>
      </trkpt>
      <trkpt lat="45.27776" lon="4.6714">
        <ele>483.6</ele>
        <time>1989-12-31T03:08:22Z</time>
      </trkpt>
      <trkpt lat="45.2776" lon="4.67115">
        <ele>483.8</ele>
        <time>1989-12-31T03:08:27Z</time>
      </trkpt>
      <trkpt lat="45.27739" lon="4.67092">
        <ele>483.2</ele>
        <time>1989-12-31T03:08:32Z</time>
      </trkpt>
      <trkpt lat="45.27706" lon="4.67059">
        <ele>483</ele>
        <time>1989-12-31T03:08:41Z</time>
      </trkpt>
      <trkpt lat="45.27702" lon="4.67056">
        <ele>482.8</ele>
        <time>1989-12-31T03:08:42Z</time>
      </trkpt>
      <trkpt lat="45.27674" lon="4.6703">
        <ele>481.6</ele>
        <time>1989-12-31T03:08:49Z</time>
      </trkpt>
      <trkpt lat="45.27652" lon="4.6701">
        <ele>481.4</ele>
        <time>1989-12-31T03:08:54Z</time>
      </trkpt>
      <trkpt lat="45.27627" lon="4.66994">
        <ele>479.8</ele>
        <time>1989-12-31T03:09:00Z</time>
      </trkpt>
      <trkpt lat="45.27623" lon="4.66992">
        <ele>479.6</ele>
        <time>1989-12-31T03:09:01Z</time>
      </trkpt>
      <trkpt lat="45.27594" lon="4.66979">
        <ele>477.6</ele>
        <time>1989-12-31T03:09:07Z</time>
      </trkpt>
      <trkpt lat="45.27571" lon="4.66965">
        <ele>476.2</ele>
        <time>1989-12-31T03:09:12Z</time>
      </trkpt>
      <trkpt lat="45.27543" lon="4.66942">
        <ele>474.8</ele>
        <time>1989-12-31T03:09:19Z</time>
      </trkpt>
      <trkpt lat="45.27529" lon="4.66931">
        <ele>474.2</ele>
        <time>1989-12-31T03:09:22Z</time>
      </trkpt>
      <trkpt lat="45.27518" lon="4.66922">
        <ele>473.6</ele>
        <time>1989-12-31T03:09:25Z</time>
      </trkpt>
      <trkpt lat="45.27499" lon="4.66905">
        <ele>472.8</ele>
        <time>1989-12-31T03:09:29Z</time>
      </trkpt>
      <trkpt lat="45.27483" lon="4.66892">
        <ele>472</ele>
        <time>1989-12-31T03:09:33Z</time>
      </trkpt>
      <trkpt lat="45.27481" lon="4.6689">
        <ele>472</ele>
        <time>1989-12-31T03:09:34Z</time>
      </trkpt>
      <trkpt lat="45.27475" lon="4.66885">
        <ele>471.8</ele>
        <time>1989-12-31T03:09:35Z</time>
      </trkpt>
      <trkpt lat="45.27457" lon="4.66869">
        <ele>471.2</ele>
        <time>1989-12-31T03:09:40Z</time>
      </trkpt>
      <trkpt lat="45.27448" lon="4.66862">
        <ele>470.4</ele>
        <time>1989-12-31T03:09:42Z</time>
      </trkpt>
      <trkpt lat="45.27362" lon="4.66789">
        <ele>466.4</ele>
        <time>1989-12-31T03:10:03Z</time>
      </trkpt>
      <trkpt lat="45.27316" lon="4.66747">
        <ele>462.8</ele>
        <time>1989-12-31T03:10:14Z</time>
      </trkpt>
      <trkpt lat="45.27285" lon="4.66703">
        <ele>461.6</ele>
        <time>1989-12-31T03:10:23Z</time>
      </trkpt>
      <trkpt lat="45.27281" lon="4.66696">
        <ele>461.6</ele>
        <time>1989-12-31T03:10:24Z</time>
      </trkpt>
      <trkpt lat="45.2724" lon="4.66626">
        <ele>459.4</ele>
        <time>1989-12-31T03:10:38Z</time>
      </trkpt>
      <trkpt lat="45.27226" lon="4.66602">
        <ele>458.8</ele>
        <time>1989-12-31T03:10:42Z</time>
      </trkpt>
      <trkpt lat="45.27215" lon="4.66592">
        <ele>457.8</ele>
        <time>1989-12-31T03:10:45Z</time>
      </trkpt>
      <trkpt lat="45.27177" lon="4.66574">
        <ele>454.8</ele>
        <time>1989-12-31T03:10:53Z</time>
      </trkpt>
      <trkpt lat="45.27167" lon="4.66575">
        <ele>454</ele>
        <time>1989-12-31T03:10:55Z</time>
      </trkpt>
      <trkpt lat="45.27163" lon="4.6657">
        <ele>454</ele>
        <time>1989-12-31T03:10:56Z</time>
      </trkpt>
      <trkpt lat="45.27153" lon="4.66561">
        <ele>453.6</ele>
        <time>1989-12-31T03:10:59Z</time>
      </trkpt>
      <trkpt lat="45.27142" lon="4.66543">
        <ele>452.8</ele>
        <time>1989-12-31T03:11:02Z</time>
      </trkpt>
      <trkpt lat="45.27132" lon="4.66522">
        <ele>453</ele>
        <time>1989-12-31T03:11:06Z</time>
      </trkpt>
      <trkpt lat="45.27134" lon="4.66509">
        <ele>453.4</ele>
        <time>1989-12-31T03:11:08Z</time>
      </trkpt>
      <trkpt lat="45.27136" lon="4.66495">
        <ele>454</ele>
        <time>1989-12-31T03:11:10Z</time>
      </trkpt>
      <trkpt lat="45.27137" lon="4.66484">
        <ele>454.4</ele>
        <time>1989-12-31T03:11:12Z</time>
      </trkpt>
      <trkpt lat="45.27138" lon="4.66461">
        <ele>455.8</ele>
        <time>1989-12-31T03:11:15Z</time>
      </trkpt>
      <trkpt lat="45.27138" lon="4.66436">
        <ele>457.2</ele>
        <time>1989-12-31T03:11:19Z</time>
      </trkpt>
      <trkpt lat="45.27137" lon="4.6642">
        <ele>457.6</ele>
        <time>1989-12-31T03:11:21Z</time>
      </trkpt>
      <trkpt lat="45.27139" lon="4.66403">
        <ele>458</ele>
        <time>1989-12-31T03:11:23Z</time>
      </trkpt>
      <trkpt lat="45.27143" lon="4.66387">
        <ele>458.6</ele>
        <time>1989-12-31T03:11:26Z</time>
      </trkpt>
      <trkpt lat="45.27147" lon="4.66374">
        <ele>458.4</ele>
        <time>1989-12-31T03:11:28Z</time>
      </trkpt>
      <trkpt lat="45.27157" lon="4.66348">
        <ele>459.4</ele>
        <time>1989-12-31T03:11:32Z</time>
      </trkpt>
      <trkpt lat="45.27166" lon="4.6633">
        <ele>460.4</ele>
        <time>1989-12-31T03:11:36Z</time>
      </trkpt>
      <trkpt lat="45.27178" lon="4.66312">
        <ele>460.2</ele>
        <time>1989-12-31T03:11:39Z</time>
      </trkpt>
      <trkpt lat="45.27253" lon="4.66214">
        <ele>467.2</ele>
        <time>1989-12-31T03:12:00Z</time>
      </trkpt>
      <trkpt lat="45.27294" lon="4.66149">
        <ele>470</ele>
        <time>1989-12-31T03:12:13Z</time>
      </trkpt>
      <trkpt lat="45.27321" lon="4.66127">
        <ele>470.6</ele>
        <time>1989-12-31T03:12:20Z</time>
      </trkpt>
      <trkpt lat="45.27338" lon="4.66117">
        <ele>471.4</ele>
        <time>1989-12-31T03:12:23Z</time>
      </trkpt>
      <trkpt lat="45.27364" lon="4.6609">
        <ele>473</ele>
        <time>1989-12-31T03:12:30Z</time>
      </trkpt>
      <trkpt lat="45.27396" lon="4.66049">
        <ele>475.4</ele>
        <time>1989-12-31T03:12:39Z</time>
      </trkpt>
      <trkpt lat="45.27404" lon="4.66038">
        <ele>475.4</ele>
        <time>1989-12-31T03:12:41Z</time>
      </trkpt>
      <trkpt lat="45.27416" lon="4.66032">
        <ele>476.2</ele>
        <time>1989-12-31T03:12:44Z</time>
      </trkpt>
      <trkpt lat="45.27421" lon="4.6603">
        <ele>476.6</ele>
        <time>1989-12-31T03:12:45Z</time>
      </trkpt>
      <trkpt lat="45.27451" lon="4.6601">
        <ele>478.4</ele>
        <time>1989-12-31T03:12:52Z</time>
      </trkpt>
      <trkpt lat="45.27466" lon="4.65991">
        <ele>479.2</ele>
        <time>1989-12-31T03:12:56Z</time>
      </trkpt>
      <trkpt lat="45.27485" lon="4.6596">
        <ele>481</ele>
        <time>1989-12-31T03:13:02Z</time>
      </trkpt>
      <trkpt lat="45.27517" lon="4.65925">
        <ele>483.4</ele>
        <time>1989-12-31T03:13:10Z</time>
      </trkpt>
      <trkpt lat="45.27547" lon="4.65917">
        <ele>484.8</ele>
        <time>1989-12-31T03:13:17Z</time>
      </trkpt>
      <trkpt lat="45.2757" lon="4.65912">
        <ele>485.6</ele>
        <time>1989-12-31T03:13:22Z</time>
      </trkpt>
      <trkpt lat="45.27583" lon="4.65902">
        <ele>485.4</ele>
        <time>1989-12-31T03:13:25Z</time>
      </trkpt>
      <trkpt lat="45.27609" lon="4.65875">
        <ele>487.2</ele>
        <time>1989-12-31T03:13:31Z</time>
      </trkpt>
      <trkpt lat="45.27622" lon="4.65852">
        <ele>486.4</ele>
        <time>1989-12-31T03:13:36Z</time>
      </trkpt>
      <trkpt lat="45.27635" lon="4.65824">
        <ele>487.4</ele>
        <time>1989-12-31T03:13:41Z</time>
      </trkpt>
      <trkpt lat="45.27643" lon="4.65793">
        <ele>488.4</ele>
        <time>1989-12-31T03:13:45Z</time>
      </trkpt>
      <trkpt lat="45.2765" lon="4.65773">
        <ele>488.8</ele>
        <time>1989-12-31T03:13:49Z</time>
      </trkpt>
      <trkpt lat="45.27656" lon="4.65764">
        <ele>489.2</ele>
        <time>1989-12-31T03:13:51Z</time>
      </trkpt>
      <trkpt lat="45.27664" lon="4.65757">
        <ele>490</ele>
        <time>1989-12-31T03:13:52Z</time>
      </trkpt>
      <trkpt lat="45.2768" lon="4.6575">
        <ele>491</ele>
        <time>1989-12-31T03:13:56Z</time>
      </trkpt>
      <trkpt lat="45.27756" lon="4.65737">
        <ele>495.2</ele>
        <time>1989-12-31T03:14:12Z</time>
      </trkpt>
      <trkpt lat="45.27782" lon="4.65747">
        <ele>496.4</ele>
        <time>1989-12-31T03:14:17Z</time>
      </trkpt>
      <trkpt lat="45.27801" lon="4.65758">
        <ele>497.4</ele>
        <time>1989-12-31T03:14:22Z</time>
      </trkpt>
      <trkpt lat="45.27829" lon="4.65766">
        <ele>499.2</ele>
        <time>1989-12-31T03:14:28Z</time>
      </trkpt>
      <trkpt lat="45.27848" lon="4.65761">
        <ele>499.6</ele>
        <time>1989-12-31T03:14:32Z</time>
      </trkpt>
      <trkpt lat="45.27862" lon="4.65761">
        <ele>500.4</ele>
        <time>1989-12-31T03:14:35Z</time>
      </trkpt>
      <trkpt lat="45.27897" lon="4.65782">
        <ele>502</ele>
        <time>1989-12-31T03:14:42Z</time>
      </trkpt>
      <trkpt lat="45.27919" lon="4.65802">
        <ele>503.2</ele>
        <time>1989-12-31T03:14:48Z</time>
      </trkpt>
      <trkpt lat="45.27949" lon="4.65823">
        <ele>503.2</ele>
        <time>1989-12-31T03:14:55Z</time>
      </trkpt>
      <trkpt lat="45.27982" lon="4.6584">
        <ele>503.6</ele>
        <time>1989-12-31T03:15:02Z</time>
      </trkpt>
      <trkpt lat="45.27999" lon="4.65851">
        <ele>504.4</ele>
        <time>1989-12-31T03:15:06Z</time>
      </trkpt>
      <trkpt lat="45.28048" lon="4.65859">
        <ele>506</ele>
        <time>1989-12-31T03:15:16Z</time>
      </trkpt>
      <trkpt lat="45.28071" lon="4.65867">
        <ele>507</ele>
        <time>1989-12-31T03:15:21Z</time>
      </trkpt>
      <trkpt lat="45.28093" lon="4.65878">
        <ele>508.4</ele>
        <time>1989-12-31T03:15:26Z</time>
      </trkpt>
      <trkpt lat="45.2816" lon="4.6589">
        <ele>508.6</ele>
        <time>1989-12-31T03:15:40Z</time>
      </trkpt>
      <trkpt lat="45.28202" lon="4.65909">
        <ele>508</ele>
        <time>1989-12-31T03:15:49Z</time>
      </trkpt>
      <trkpt lat="45.28243" lon="4.65954">
        <ele>508.8</ele>
        <time>1989-12-31T03:16:00Z</time>
      </trkpt>
      <trkpt lat="45.28385" lon="4.66039">
        <ele>512.8</ele>
        <time>1989-12-31T03:16:32Z</time>
      </trkpt>
      <trkpt lat="45.28406" lon="4.66045">
        <ele>513.8</ele>
        <time>1989-12-31T03:16:36Z</time>
      </trkpt>
      <trkpt lat="45.28429" lon="4.66038">
        <ele>513.6</ele>
        <time>1989-12-31T03:16:41Z</time>
      </trkpt>
      <trkpt lat="45.28445" lon="4.66031">
        <ele>513.8</ele>
        <time>1989-12-31T03:16:45Z</time>
      </trkpt>
      <trkpt lat="45.28458" lon="4.66028">
        <ele>514</ele>
        <time>1989-12-31T03:16:47Z</time>
      </trkpt>
      <trkpt lat="45.28469" lon="4.66029">
        <ele>515</ele>
        <time>1989-12-31T03:16:50Z</time>
      </trkpt>
      <trkpt lat="45.28488" lon="4.66043">
        <ele>515</ele>
        <time>1989-12-31T03:16:54Z</time>
      </trkpt>
      <trkpt lat="45.28501" lon="4.66069">
        <ele>515.8</ele>
        <time>1989-12-31T03:16:59Z</time>
      </trkpt>
      <trkpt lat="45.2851" lon="4.66094">
        <ele>515</ele>
        <time>1989-12-31T03:17:03Z</time>
      </trkpt>
      <trkpt lat="45.28518" lon="4.66134">
        <ele>515.6</ele>
        <time>1989-12-31T03:17:09Z</time>
      </trkpt>
      <trkpt lat="45.28524" lon="4.66157">
        <ele>515.8</ele>
        <time>1989-12-31T03:17:12Z</time>
      </trkpt>
      <trkpt lat="45.28533" lon="4.6617">
        <ele>516.6</ele>
        <time>1989-12-31T03:17:15Z</time>
      </trkpt>
      <trkpt lat="45.28545" lon="4.66175">
        <ele>517.6</ele>
        <time>1989-12-31T03:17:18Z</time>
      </trkpt>
      <trkpt lat="45.28558" lon="4.66171">
        <ele>518.2</ele>
        <time>1989-12-31T03:17:20Z</time>
      </trkpt>
      <trkpt lat="45.28571" lon="4.66157">
        <ele>519.2</ele>
        <time>1989-12-31T03:17:24Z</time>
      </trkpt>
      <trkpt lat="45.28627" lon="4.66125">
        <ele>522</ele>
        <time>1989-12-31T03:17:36Z</time>
      </trkpt>
      <trkpt lat="45.28687" lon="4.66117">
        <ele>525.4</ele>
        <time>1989-12-31T03:17:49Z</time>
      </trkpt>
      <trkpt lat="45.28758" lon="4.66106">
        <ele>530</ele>
        <time>1989-12-31T03:18:04Z</time>
      </trkpt>
      <trkpt lat="45.28778" lon="4.66092">
        <ele>531.4</ele>
        <time>1989-12-31T03:18:08Z</time>
      </trkpt>
      <trkpt lat="45.28806" lon="4.66079">
        <ele>532.8</ele>
        <time>1989-12-31T03:18:14Z</time>
      </trkpt>
      <trkpt lat="45.28823" lon="4.66077">
        <ele>533.6</ele>
        <time>1989-12-31T03:18:18Z</time>
      </trkpt>
      <trkpt lat="45.28849" lon="4.661">
        <ele>535.8</ele>
        <time>1989-12-31T03:18:24Z</time>
      </trkpt>
      <trkpt lat="45.28867" lon="4.66148">
        <ele>538</ele>
        <time>1989-12-31T03:18:32Z</time>
      </trkpt>
      <trkpt lat="45.28909" lon="4.66235">
        <ele>540</ele>
        <time>1989-12-31T03:18:48Z</time>
      </trkpt>
      <trkpt lat="45.28929" lon="4.66289">
        <ele>541.6</ele>
        <time>1989-12-31T03:18:57Z</time>
      </trkpt>
      <trkpt lat="45.28969" lon="4.6633">
        <ele>543.8</ele>
        <time>1989-12-31T03:19:07Z</time>
      </trkpt>
      <trkpt lat="45.29014" lon="4.66394">
        <ele>546.8</ele>
        <time>1989-12-31T03:19:20Z</time>
      </trkpt>
      <trkpt lat="45.2906" lon="4.66466">
        <ele>547.8</ele>
        <time>1989-12-31T03:19:34Z</time>
      </trkpt>
      <trkpt lat="45.29075" lon="4.66481">
        <ele>548.6</ele>
        <time>1989-12-31T03:19:38Z</time>
      </trkpt>
      <trkpt lat="45.29095" lon="4.66499">
        <ele>549.2</ele>
        <time>1989-12-31T03:19:43Z</time>
      </trkpt>
      <trkpt lat="45.29127" lon="4.66536">
        <ele>549.4</ele>
        <time>1989-12-31T03:19:52Z</time>
      </trkpt>
      <trkpt lat="45.29142" lon="4.66558">
        <ele>549.8</ele>
        <time>1989-12-31T03:19:56Z</time>
      </trkpt>
      <trkpt lat="45.29157" lon="4.66587">
        <ele>551</ele>
        <time>1989-12-31T03:20:01Z</time>
      </trkpt>
      <trkpt lat="45.29168" lon="4.66597">
        <ele>550.6</ele>
        <time>1989-12-31T03:20:04Z</time>
      </trkpt>
      <trkpt lat="45.29174" lon="4.666">
        <ele>551.2</ele>
        <time>1989-12-31T03:20:05Z</time>
      </trkpt>
      <trkpt lat="45.29181" lon="4.666">
        <ele>551.2</ele>
        <time>1989-12-31T03:20:07Z</time>
      </trkpt>
      <trkpt lat="45.29188" lon="4.66594">
        <ele>550.6</ele>
        <time>1989-12-31T03:20:08Z</time>
      </trkpt>
      <trkpt lat="45.29193" lon="4.66583">
        <ele>550</ele>
        <time>1989-12-31T03:20:10Z</time>
      </trkpt>
      <trkpt lat="45.29197" lon="4.66571">
        <ele>550.2</ele>
        <time>1989-12-31T03:20:12Z</time>
      </trkpt>
      <trkpt lat="45.29197" lon="4.66564">
        <ele>550</ele>
        <time>1989-12-31T03:20:13Z</time>
      </trkpt>
      <trkpt lat="45.29202" lon="4.66537">
        <ele>550.8</ele>
        <time>1989-12-31T03:20:17Z</time>
      </trkpt>
      <trkpt lat="45.29208" lon="4.66528">
        <ele>552</ele>
        <time>1989-12-31T03:20:19Z</time>
      </trkpt>
      <trkpt lat="45.2922" lon="4.66519">
        <ele>553.6</ele>
        <time>1989-12-31T03:20:22Z</time>
      </trkpt>
      <trkpt lat="45.29229" lon="4.66523">
        <ele>554.4</ele>
        <time>1989-12-31T03:20:24Z</time>
      </trkpt>
      <trkpt lat="45.29231" lon="4.66528">
        <ele>555</ele>
        <time>1989-12-31T03:20:25Z</time>
      </trkpt>
      <trkpt lat="45.29255" lon="4.66527">
        <ele>554.8</ele>
        <time>1989-12-31T03:20:30Z</time>
      </trkpt>
      <trkpt lat="45.29273" lon="4.66529">
        <ele>554.4</ele>
        <time>1989-12-31T03:20:34Z</time>
      </trkpt>
      <trkpt lat="45.29287" lon="4.66531">
        <ele>554.2</ele>
        <time>1989-12-31T03:20:36Z</time>
      </trkpt>
      <trkpt lat="45.29302" lon="4.66538">
        <ele>554.4</ele>
        <time>1989-12-31T03:20:40Z</time>
      </trkpt>
      <trkpt lat="45.29356" lon="4.6658">
        <ele>556.8</ele>
        <time>1989-12-31T03:20:53Z</time>
      </trkpt>
      <trkpt lat="45.29368" lon="4.66596">
        <ele>557.8</ele>
        <time>1989-12-31T03:20:56Z</time>
      </trkpt>
      <trkpt lat="45.29463" lon="4.6674">
        <ele>566</ele>
        <time>1989-12-31T03:21:25Z</time>
      </trkpt>
      <trkpt lat="45.29484" lon="4.66754">
        <ele>566.8</ele>
        <time>1989-12-31T03:21:30Z</time>
      </trkpt>
      <trkpt lat="45.2949" lon="4.66756">
        <ele>567.2</ele>
        <time>1989-12-31T03:21:31Z</time>
      </trkpt>
      <trkpt lat="45.29549" lon="4.66774">
        <ele>568</ele>
        <time>1989-12-31T03:21:43Z</time>
      </trkpt>
      <trkpt lat="45.29637" lon="4.66816">
        <ele>568.4</ele>
        <time>1989-12-31T03:22:03Z</time>
      </trkpt>
      <trkpt lat="45.29697" lon="4.6683">
        <ele>567.8</ele>
        <time>1989-12-31T03:22:15Z</time>
      </trkpt>
      <trkpt lat="45.2976" lon="4.66847">
        <ele>565.2</ele>
        <time>1989-12-31T03:22:29Z</time>
      </trkpt>
      <trkpt lat="45.2978" lon="4.66861">
        <ele>565.6</ele>
        <time>1989-12-31T03:22:33Z</time>
      </trkpt>
      <trkpt lat="45.29806" lon="4.66888">
        <ele>565.8</ele>
        <time>1989-12-31T03:22:40Z</time>
      </trkpt>
      <trkpt lat="45.29836" lon="4.66935">
        <ele>566.8</ele>
        <time>1989-12-31T03:22:49Z</time>
      </trkpt>
      <trkpt lat="45.29902" lon="4.6703">
        <ele>568.2</ele>
        <time>1989-12-31T03:23:09Z</time>
      </trkpt>
      <trkpt lat="45.29943" lon="4.67085">
        <ele>569.6</ele>
        <time>1989-12-31T03:23:20Z</time>
      </trkpt>
      <trkpt lat="45.29991" lon="4.67191">
        <ele>574.8</ele>
        <time>1989-12-31T03:23:39Z</time>
      </trkpt>
      <trkpt lat="45.30029" lon="4.67254">
        <ele>579.8</ele>
        <time>1989-12-31T03:23:51Z</time>
      </trkpt>
      <trkpt lat="45.30043" lon="4.67266">
        <ele>581</ele>
        <time>1989-12-31T03:23:54Z</time>
      </trkpt>
      <trkpt lat="45.30058" lon="4.67274">
        <ele>581.4</ele>
        <time>1989-12-31T03:23:58Z</time>
      </trkpt>
      <trkpt lat="45.3007" lon="4.67289">
        <ele>582.8</ele>
        <time>1989-12-31T03:24:01Z</time>
      </trkpt>
      <trkpt lat="45.30081" lon="4.673">
        <ele>583.4</ele>
        <time>1989-12-31T03:24:04Z</time>
      </trkpt>
      <trkpt lat="45.30088" lon="4.67309">
        <ele>584.2</ele>
        <time>1989-12-31T03:24:06Z</time>
      </trkpt>
      <trkpt lat="45.30113" lon="4.6735">
        <ele>587.6</ele>
        <time>1989-12-31T03:24:14Z</time>
      </trkpt>
      <trkpt lat="45.30142" lon="4.67393">
        <ele>589</ele>
        <time>1989-12-31T03:24:22Z</time>
      </trkpt>
      <trkpt lat="45.30174" lon="4.67459">
        <ele>589.6</ele>
        <time>1989-12-31T03:24:34Z</time>
      </trkpt>
      <trkpt lat="45.30202" lon="4.67534">
        <ele>590.2</ele>
        <time>1989-12-31T03:24:46Z</time>
      </trkpt>
      <trkpt lat="45.30212" lon="4.67553">
        <ele>590.8</ele>
        <time>1989-12-31T03:24:50Z</time>
      </trkpt>
      <trkpt lat="45.3022" lon="4.67565">
        <ele>591.4</ele>
        <time>1989-12-31T03:24:52Z</time>
      </trkpt>
      <trkpt lat="45.30237" lon="4.67574">
        <ele>592.8</ele>
        <time>1989-12-31T03:24:56Z</time>
      </trkpt>
      <trkpt lat="45.30266" lon="4.67582">
        <ele>596</ele>
        <time>1989-12-31T03:25:02Z</time>
      </trkpt>
      <trkpt lat="45.30307" lon="4.67597">
        <ele>599.4</ele>
        <time>1989-12-31T03:25:11Z</time>
      </trkpt>
      <trkpt lat="45.30325" lon="4.67611">
        <ele>600</ele>
        <time>1989-12-31T03:25:15Z</time>
      </trkpt>
      <trkpt lat="45.30335" lon="4.67627">
        <ele>601.2</ele>
        <time>1989-12-31T03:25:18Z</time>
      </trkpt>
      <trkpt lat="45.30346" lon="4.67653">
        <ele>603</ele>
        <time>1989-12-31T03:25:23Z</time>
      </trkpt>
      <trkpt lat="45.30355" lon="4.67685">
        <ele>604.4</ele>
        <time>1989-12-31T03:25:28Z</time>
      </trkpt>
      <trkpt lat="45.30363" lon="4.67735">
        <ele>607</ele>
        <time>1989-12-31T03:25:35Z</time>
      </trkpt>
      <trkpt lat="45.30371" lon="4.67755">
        <ele>607.2</ele>
        <time>1989-12-31T03:25:39Z</time>
      </trkpt>
      <trkpt lat="45.30378" lon="4.67771">
        <ele>608</ele>
        <time>1989-12-31T03:25:41Z</time>
      </trkpt>
      <trkpt lat="45.3038" lon="4.67774">
        <ele>608</ele>
        <time>1989-12-31T03:25:42Z</time>
      </trkpt>
      <trkpt lat="45.304" lon="4.67799">
        <ele>609.2</ele>
        <time>1989-12-31T03:25:47Z</time>
      </trkpt>
      <trkpt lat="45.30411" lon="4.67811">
        <ele>609.8</ele>
        <time>1989-12-31T03:25:50Z</time>
      </trkpt>
      <trkpt lat="45.3044" lon="4.67835">
        <ele>610.8</ele>
        <time>1989-12-31T03:25:57Z</time>
      </trkpt>
      <trkpt lat="45.30515" lon="4.67864">
        <ele>613.4</ele>
        <time>1989-12-31T03:26:13Z</time>
      </trkpt>
      <trkpt lat="45.30568" lon="4.67879">
        <ele>616.6</ele>
        <time>1989-12-31T03:26:25Z</time>
      </trkpt>
      <trkpt lat="45.30603" lon="4.67878">
        <ele>617.4</ele>
        <time>1989-12-31T03:26:32Z</time>
      </trkpt>
      <trkpt lat="45.30633" lon="4.67889">
        <ele>616.4</ele>
        <time>1989-12-31T03:26:38Z</time>
      </trkpt>
      <trkpt lat="45.30658" lon="4.67905">
        <ele>615.8</ele>
        <time>1989-12-31T03:26:44Z</time>
      </trkpt>
      <trkpt lat="45.30684" lon="4.67926">
        <ele>614.2</ele>
        <time>1989-12-31T03:26:50Z</time>
      </trkpt>
      <trkpt lat="45.30734" lon="4.67944">
        <ele>613.6</ele>
        <time>1989-12-31T03:27:01Z</time>
      </trkpt>
      <trkpt lat="45.30788" lon="4.67956">
        <ele>611.8</ele>
        <time>1989-12-31T03:27:12Z</time>
      </trkpt>
      <trkpt lat="45.30817" lon="4.67967">
        <ele>611.4</ele>
        <time>1989-12-31T03:27:19Z</time>
      </trkpt>
      <trkpt lat="45.30829" lon="4.6798">
        <ele>611</ele>
        <time>1989-12-31T03:27:22Z</time>
      </trkpt>
      <trkpt lat="45.30839" lon="4.67964">
        <ele>611.4</ele>
        <time>1989-12-31T03:27:25Z</time>
      </trkpt>
      <trkpt lat="45.30841" lon="4.6796">
        <ele>611.6</ele>
        <time>1989-12-31T03:27:26Z</time>
      </trkpt>
      <trkpt lat="45.30862" lon="4.67923">
        <ele>612</ele>
        <time>1989-12-31T03:27:32Z</time>
      </trkpt>
      <trkpt lat="45.30885" lon="4.67871">
        <ele>612</ele>
        <time>1989-12-31T03:27:41Z</time>
      </trkpt>
      <trkpt lat="45.3091" lon="4.67776">
        <ele>616</ele>
        <time>1989-12-31T03:27:56Z</time>
      </trkpt>
      <trkpt lat="45.30931" lon="4.67708">
        <ele>617.8</ele>
        <time>1989-12-31T03:28:07Z</time>
      </trkpt>
      <trkpt lat="45.30941" lon="4.6768">
        <ele>618</ele>
        <time>1989-12-31T03:28:12Z</time>
      </trkpt>
      <trkpt lat="45.30949" lon="4.67646">
        <ele>617.4</ele>
        <time>1989-12-31T03:28:17Z</time>
      </trkpt>
      <trkpt lat="45.30945" lon="4.67628">
        <ele>615.8</ele>
        <time>1989-12-31T03:28:20Z</time>
      </trkpt>
      <trkpt lat="45.30937" lon="4.67614">
        <ele>616</ele>
        <time>1989-12-31T03:28:22Z</time>
      </trkpt>
      <trkpt lat="45.30928" lon="4.67608">
        <ele>618.2</ele>
        <time>1989-12-31T03:28:24Z</time>
      </trkpt>
      <trkpt lat="45.30919" lon="4.67609">
        <ele>619.2</ele>
        <time>1989-12-31T03:28:26Z</time>
      </trkpt>
      <trkpt lat="45.30895" lon="4.6762">
        <ele>618</ele>
        <time>1989-12-31T03:28:32Z</time>
      </trkpt>
      <trkpt lat="45.3088" lon="4.67615">
        <ele>618.4</ele>
        <time>1989-12-31T03:28:35Z</time>
      </trkpt>
      <trkpt lat="45.30863" lon="4.67598">
        <ele>618.8</ele>
        <time>1989-12-31T03:28:39Z</time>
      </trkpt>
      <trkpt lat="45.30817" lon="4.67513">
        <ele>618.8</ele>
        <time>1989-12-31T03:28:55Z</time>
      </trkpt>
      <trkpt lat="45.30759" lon="4.67437">
        <ele>618.8</ele>
        <time>1989-12-31T03:29:11Z</time>
      </trkpt>
      <trkpt lat="45.30675" lon="4.67334">
        <ele>619.4</ele>
        <time>1989-12-31T03:29:34Z</time>
      </trkpt>
      <trkpt lat="45.3065" lon="4.67281">
        <ele>620.2</ele>
        <time>1989-12-31T03:29:43Z</time>
      </trkpt>
      <trkpt lat="45.30634" lon="4.67231">
        <ele>618.4</ele>
        <time>1989-12-31T03:29:51Z</time>
      </trkpt>
      <trkpt lat="45.30632" lon="4.67204">
        <ele>618</ele>
        <time>1989-12-31T03:29:55Z</time>
      </trkpt>
      <trkpt lat="45.30638" lon="4.67183">
        <ele>619</ele>
        <time>1989-12-31T03:29:59Z</time>
      </trkpt>
      <trkpt lat="45.30661" lon="4.6714">
        <ele>619.6</ele>
        <time>1989-12-31T03:30:06Z</time>
      </trkpt>
      <trkpt lat="45.30665" lon="4.67125">
        <ele>620</ele>
        <time>1989-12-31T03:30:09Z</time>
      </trkpt>
      <trkpt lat="45.30665" lon="4.67107">
        <ele>619.6</ele>
        <time>1989-12-31T03:30:11Z</time>
      </trkpt>
      <trkpt lat="45.30659" lon="4.6704">
        <ele>620.2</ele>
        <time>1989-12-31T03:30:21Z</time>
      </trkpt>
      <trkpt lat="45.30652" lon="4.67002">
        <ele>619.6</ele>
        <time>1989-12-31T03:30:27Z</time>
      </trkpt>
      <trkpt lat="45.3063" lon="4.6693">
        <ele>620.4</ele>
        <time>1989-12-31T03:30:39Z</time>
      </trkpt>
      <trkpt lat="45.30584" lon="4.66809">
        <ele>620</ele>
        <time>1989-12-31T03:30:59Z</time>
      </trkpt>
      <trkpt lat="45.30575" lon="4.66767">
        <ele>620</ele>
        <time>1989-12-31T03:31:05Z</time>
      </trkpt>
      <trkpt lat="45.30566" lon="4.66696">
        <ele>620.4</ele>
        <time>1989-12-31T03:31:16Z</time>
      </trkpt>
      <trkpt lat="45.30558" lon="4.66657">
        <ele>620.4</ele>
        <time>1989-12-31T03:31:21Z</time>
      </trkpt>
      <trkpt lat="45.30527" lon="4.66571">
        <ele>620.8</ele>
        <time>1989-12-31T03:31:36Z</time>
      </trkpt>
      <trkpt lat="45.30498" lon="4.66495">
        <ele>620</ele>
        <time>1989-12-31T03:31:48Z</time>
      </trkpt>
      <trkpt lat="45.30494" lon="4.66482">
        <ele>620.4</ele>
        <time>1989-12-31T03:31:50Z</time>
      </trkpt>
      <trkpt lat="45.30493" lon="4.66465">
        <ele>620.6</ele>
        <time>1989-12-31T03:31:53Z</time>
      </trkpt>
      <trkpt lat="45.30495" lon="4.66447">
        <ele>620.2</ele>
        <time>1989-12-31T03:31:55Z</time>
      </trkpt>
      <trkpt lat="45.30502" lon="4.66425">
        <ele>618.8</ele>
        <time>1989-12-31T03:31:59Z</time>
      </trkpt>
      <trkpt lat="45.30525" lon="4.66384">
        <ele>616.4</ele>
        <time>1989-12-31T03:32:07Z</time>
      </trkpt>
      <trkpt lat="45.30554" lon="4.66339">
        <ele>614.6</ele>
        <time>1989-12-31T03:32:16Z</time>
      </trkpt>
      <trkpt lat="45.30579" lon="4.66324">
        <ele>613</ele>
        <time>1989-12-31T03:32:21Z</time>
      </trkpt>
      <trkpt lat="45.30605" lon="4.66322">
        <ele>612.2</ele>
        <time>1989-12-31T03:32:27Z</time>
      </trkpt>
      <trkpt lat="45.30624" lon="4.66323">
        <ele>610.8</ele>
        <time>1989-12-31T03:32:30Z</time>
      </trkpt>
      <trkpt lat="45.30671" lon="4.66343">
        <ele>609.6</ele>
        <time>1989-12-31T03:32:41Z</time>
      </trkpt>
      <trkpt lat="45.30686" lon="4.66344">
        <ele>608.8</ele>
        <time>1989-12-31T03:32:44Z</time>
      </trkpt>
      <trkpt lat="45.30692" lon="4.66341">
        <ele>608</ele>
        <time>1989-12-31T03:32:45Z</time>
      </trkpt>
      <trkpt lat="45.30705" lon="4.66318">
        <ele>606.4</ele>
        <time>1989-12-31T03:32:49Z</time>
      </trkpt>
      <trkpt lat="45.30705" lon="4.663">
        <ele>606</ele>
        <time>1989-12-31T03:32:52Z</time>
      </trkpt>
      <trkpt lat="45.30701" lon="4.66288">
        <ele>606.2</ele>
        <time>1989-12-31T03:32:54Z</time>
      </trkpt>
      <trkpt lat="45.30694" lon="4.66276">
        <ele>606.2</ele>
        <time>1989-12-31T03:32:56Z</time>
      </trkpt>
      <trkpt lat="45.30692" lon="4.66275">
        <ele>606</ele>
        <time>1989-12-31T03:32:57Z</time>
      </trkpt>
      <trkpt lat="45.30665" lon="4.66248">
        <ele>605.2</ele>
        <time>1989-12-31T03:33:04Z</time>
      </trkpt>
      <trkpt lat="45.30624" lon="4.66212">
        <ele>604.2</ele>
        <time>1989-12-31T03:33:14Z</time>
      </trkpt>
      <trkpt lat="45.30557" lon="4.66146">
        <ele>602.2</ele>
        <time>1989-12-31T03:33:30Z</time>
      </trkpt>
      <trkpt lat="45.30541" lon="4.66121">
        <ele>602</ele>
        <time>1989-12-31T03:33:35Z</time>
      </trkpt>
      <trkpt lat="45.30532" lon="4.66095">
        <ele>601.6</ele>
        <time>1989-12-31T03:33:40Z</time>
      </trkpt>
      <trkpt lat="45.30527" lon="4.66067">
        <ele>600.8</ele>
        <time>1989-12-31T03:33:44Z</time>
      </trkpt>
      <trkpt lat="45.30528" lon="4.66036">
        <ele>600.4</ele>
        <time>1989-12-31T03:33:48Z</time>
      </trkpt>
      <trkpt lat="45.30529" lon="4.66022">
        <ele>599.8</ele>
        <time>1989-12-31T03:33:50Z</time>
      </trkpt>
      <trkpt lat="45.30537" lon="4.65978">
        <ele>598.8</ele>
        <time>1989-12-31T03:33:57Z</time>
      </trkpt>
      <trkpt lat="45.30549" lon="4.65951">
        <ele>598.2</ele>
        <time>1989-12-31T03:34:02Z</time>
      </trkpt>
      <trkpt lat="45.30592" lon="4.65902">
        <ele>594.4</ele>
        <time>1989-12-31T03:34:13Z</time>
      </trkpt>
      <trkpt lat="45.30603" lon="4.65876">
        <ele>594.2</ele>
        <time>1989-12-31T03:34:18Z</time>
      </trkpt>
      <trkpt lat="45.30605" lon="4.6586">
        <ele>594.6</ele>
        <time>1989-12-31T03:34:20Z</time>
      </trkpt>
      <trkpt lat="45.30603" lon="4.65843">
        <ele>596</ele>
        <time>1989-12-31T03:34:23Z</time>
      </trkpt>
      <trkpt lat="45.3059" lon="4.65803">
        <ele>595</ele>
        <time>1989-12-31T03:34:29Z</time>
      </trkpt>
      <trkpt lat="45.30582" lon="4.6575">
        <ele>592.8</ele>
        <time>1989-12-31T03:34:37Z</time>
      </trkpt>
      <trkpt lat="45.3058" lon="4.65702">
        <ele>592.6</ele>
        <time>1989-12-31T03:34:44Z</time>
      </trkpt>
      <trkpt lat="45.30587" lon="4.65655">
        <ele>591.8</ele>
        <time>1989-12-31T03:34:51Z</time>
      </trkpt>
      <trkpt lat="45.30591" lon="4.65606">
        <ele>590.6</ele>
        <time>1989-12-31T03:34:58Z</time>
      </trkpt>
      <trkpt lat="45.30599" lon="4.65567">
        <ele>589.6</ele>
        <time>1989-12-31T03:35:04Z</time>
      </trkpt>
      <trkpt lat="45.30617" lon="4.6553">
        <ele>590.4</ele>
        <time>1989-12-31T03:35:11Z</time>
      </trkpt>
      <trkpt lat="45.30722" lon="4.65431">
        <ele>587.6</ele>
        <time>1989-12-31T03:35:37Z</time>
      </trkpt>
      <trkpt lat="45.30791" lon="4.65365">
        <ele>585.2</ele>
        <time>1989-12-31T03:35:54Z</time>
      </trkpt>
      <trkpt lat="45.30816" lon="4.65344">
        <ele>583.2</ele>
        <time>1989-12-31T03:36:00Z</time>
      </trkpt>
      <trkpt lat="45.30821" lon="4.6533">
        <ele>581.6</ele>
        <time>1989-12-31T03:36:02Z</time>
      </trkpt>
      <trkpt lat="45.30823" lon="4.65326">
        <ele>581.8</ele>
        <time>1989-12-31T03:36:03Z</time>
      </trkpt>
      <trkpt lat="45.30829" lon="4.6531">
        <ele>582.6</ele>
        <time>1989-12-31T03:36:06Z</time>
      </trkpt>
      <trkpt lat="45.30844" lon="4.6527">
        <ele>583.2</ele>
        <time>1989-12-31T03:36:12Z</time>
      </trkpt>
      <trkpt lat="45.30856" lon="4.65247">
        <ele>583.8</ele>
        <time>1989-12-31T03:36:16Z</time>
      </trkpt>
      <trkpt lat="45.30887" lon="4.65212">
        <ele>584.6</ele>
        <time>1989-12-31T03:36:25Z</time>
      </trkpt>
      <trkpt lat="45.30918" lon="4.65181">
        <ele>584.6</ele>
        <time>1989-12-31T03:36:33Z</time>
      </trkpt>
      <trkpt lat="45.31188" lon="4.64933">
        <ele>587.8</ele>
        <time>1989-12-31T03:37:39Z</time>
      </trkpt>
      <trkpt lat="45.31253" lon="4.64873">
        <ele>588</ele>
        <time>1989-12-31T03:37:55Z</time>
      </trkpt>
      <trkpt lat="45.31334" lon="4.64793">
        <ele>589.6</ele>
        <time>1989-12-31T03:38:16Z</time>
      </trkpt>
      <trkpt lat="45.31398" lon="4.64718">
        <ele>592.8</ele>
        <time>1989-12-31T03:38:33Z</time>
      </trkpt>
      <trkpt lat="45.31473" lon="4.64609">
        <ele>594.2</ele>
        <time>1989-12-31T03:38:55Z</time>
      </trkpt>
      <trkpt lat="45.31492" lon="4.64582">
        <ele>595.4</ele>
        <time>1989-12-31T03:39:01Z</time>
      </trkpt>
      <trkpt lat="45.31502" lon="4.64567">
        <ele>595.6</ele>
        <time>1989-12-31T03:39:04Z</time>
      </trkpt>
      <trkpt lat="45.31561" lon="4.64482">
        <ele>596.6</ele>
        <time>1989-12-31T03:39:21Z</time>
      </trkpt>
      <trkpt lat="45.31587" lon="4.6445">
        <ele>596.2</ele>
        <time>1989-12-31T03:39:28Z</time>
      </trkpt>
      <trkpt lat="45.31651" lon="4.64415">
        <ele>594</ele>
        <time>1989-12-31T03:39:43Z</time>
      </trkpt>
      <trkpt lat="45.31714" lon="4.64383">
        <ele>591.6</ele>
        <time>1989-12-31T03:39:57Z</time>
      </trkpt>
      <trkpt lat="45.3175" lon="4.64363">
        <ele>590.2</ele>
        <time>1989-12-31T03:40:05Z</time>
      </trkpt>
      <trkpt lat="45.31787" lon="4.64339">
        <ele>588.4</ele>
        <time>1989-12-31T03:40:13Z</time>
      </trkpt>
      <trkpt lat="45.31798" lon="4.64324">
        <ele>587.6</ele>
        <time>1989-12-31T03:40:16Z</time>
      </trkpt>
      <trkpt lat="45.31805" lon="4.6431">
        <ele>587.2</ele>
        <time>1989-12-31T03:40:19Z</time>
      </trkpt>
      <trkpt lat="45.31808" lon="4.64294">
        <ele>586.8</ele>
        <time>1989-12-31T03:40:21Z</time>
      </trkpt>
      <trkpt lat="45.31806" lon="4.64273">
        <ele>586</ele>
        <time>1989-12-31T03:40:24Z</time>
      </trkpt>
      <trkpt lat="45.31798" lon="4.64247">
        <ele>585.6</ele>
        <time>1989-12-31T03:40:28Z</time>
      </trkpt>
      <trkpt lat="45.31762" lon="4.64178">
        <ele>582.6</ele>
        <time>1989-12-31T03:40:41Z</time>
      </trkpt>
      <trkpt lat="45.3175" lon="4.64145">
        <ele>581</ele>
        <time>1989-12-31T03:40:46Z</time>
      </trkpt>
      <trkpt lat="45.31735" lon="4.64035">
        <ele>578.4</ele>
        <time>1989-12-31T03:41:03Z</time>
      </trkpt>
      <trkpt lat="45.31725" lon="4.63909">
        <ele>575.6</ele>
        <time>1989-12-31T03:41:21Z</time>
      </trkpt>
      <trkpt lat="45.3172" lon="4.63815">
        <ele>572.6</ele>
        <time>1989-12-31T03:41:35Z</time>
      </trkpt>
      <trkpt lat="45.31722" lon="4.63703">
        <ele>570</ele>
        <time>1989-12-31T03:41:51Z</time>
      </trkpt>
      <trkpt lat="45.3173" lon="4.63652">
        <ele>569.2</ele>
        <time>1989-12-31T03:41:59Z</time>
      </trkpt>
      <trkpt lat="45.31785" lon="4.63514">
        <ele>565.2</ele>
        <time>1989-12-31T03:42:22Z</time>
      </trkpt>
      <trkpt lat="45.31829" lon="4.63386">
        <ele>560.6</ele>
        <time>1989-12-31T03:42:43Z</time>
      </trkpt>
      <trkpt lat="45.31842" lon="4.63345">
        <ele>559.4</ele>
        <time>1989-12-31T03:42:49Z</time>
      </trkpt>
      <trkpt lat="45.31841" lon="4.63328">
        <ele>559</ele>
        <time>1989-12-31T03:42:52Z</time>
      </trkpt>
      <trkpt lat="45.31833" lon="4.63311">
        <ele>558.2</ele>
        <time>1989-12-31T03:42:55Z</time>
      </trkpt>
      <trkpt lat="45.31842" lon="4.63295">
        <ele>557.4</ele>
        <time>1989-12-31T03:42:58Z</time>
      </trkpt>
      <trkpt lat="45.31845" lon="4.63287">
        <ele>557</ele>
        <time>1989-12-31T03:42:59Z</time>
      </trkpt>
      <trkpt lat="45.31848" lon="4.63277">
        <ele>556.6</ele>
        <time>1989-12-31T03:43:01Z</time>
      </trkpt>
      <trkpt lat="45.31855" lon="4.63241">
        <ele>557.6</ele>
        <time>1989-12-31T03:43:06Z</time>
      </trkpt>
      <trkpt lat="45.31861" lon="4.63189">
        <ele>558.2</ele>
        <time>1989-12-31T03:43:14Z</time>
      </trkpt>
      <trkpt lat="45.31866" lon="4.6314">
        <ele>558.8</ele>
        <time>1989-12-31T03:43:21Z</time>
      </trkpt>
      <trkpt lat="45.31871" lon="4.63091">
        <ele>560</ele>
        <time>1989-12-31T03:43:28Z</time>
      </trkpt>
      <trkpt lat="45.31886" lon="4.62987">
        <ele>563.6</ele>
        <time>1989-12-31T03:43:44Z</time>
      </trkpt>
      <trkpt lat="45.31888" lon="4.62967">
        <ele>564.2</ele>
        <time>1989-12-31T03:43:47Z</time>
      </trkpt>
      <trkpt lat="45.31894" lon="4.62927">
        <ele>564.8</ele>
        <time>1989-12-31T03:43:53Z</time>
      </trkpt>
      <trkpt lat="45.31896" lon="4.62885">
        <ele>565.4</ele>
        <time>1989-12-31T03:43:59Z</time>
      </trkpt>
      <trkpt lat="45.3189" lon="4.628">
        <ele>567</ele>
        <time>1989-12-31T03:44:11Z</time>
      </trkpt>
      <trkpt lat="45.31912" lon="4.62798">
        <ele>565.2</ele>
        <time>1989-12-31T03:44:16Z</time>
      </trkpt>
      <trkpt lat="45.31919" lon="4.62792">
        <ele>564.2</ele>
        <time>1989-12-31T03:44:18Z</time>
      </trkpt>
      <trkpt lat="45.31912" lon="4.62798">
        <ele>565.2</ele>
        <time>1989-12-31T03:44:19Z</time>
      </trkpt>
      <trkpt lat="45.3189" lon="4.628">
        <ele>567</ele>
        <time>1989-12-31T03:44:24Z</time>
      </trkpt>
      <trkpt lat="45.31889" lon="4.62791">
        <ele>567</ele>
        <time>1989-12-31T03:44:25Z</time>
      </trkpt>
      <trkpt lat="45.31887" lon="4.62757">
        <ele>567</ele>
        <time>1989-12-31T03:44:30Z</time>
      </trkpt>
      <trkpt lat="45.3189" lon="4.6271">
        <ele>567</ele>
        <time>1989-12-31T03:44:37Z</time>
      </trkpt>
      <trkpt lat="45.31905" lon="4.62636">
        <ele>567.2</ele>
        <time>1989-12-31T03:44:48Z</time>
      </trkpt>
      <trkpt lat="45.31916" lon="4.62587">
        <ele>570.8</ele>
        <time>1989-12-31T03:44:56Z</time>
      </trkpt>
      <trkpt lat="45.31926" lon="4.62558">
        <ele>572</ele>
        <time>1989-12-31T03:45:01Z</time>
      </trkpt>
      <trkpt lat="45.31961" lon="4.62518">
        <ele>573.6</ele>
        <time>1989-12-31T03:45:10Z</time>
      </trkpt>
      <trkpt lat="45.31955" lon="4.62514">
        <ele>574</ele>
        <time>1989-12-31T03:45:11Z</time>
      </trkpt>
      <trkpt lat="45.31948" lon="4.62506">
        <ele>574.6</ele>
        <time>1989-12-31T03:45:13Z</time>
      </trkpt>
      <trkpt lat="45.31943" lon="4.62497">
        <ele>575.2</ele>
        <time>1989-12-31T03:45:15Z</time>
      </trkpt>
      <trkpt lat="45.31941" lon="4.62485">
        <ele>575.4</ele>
        <time>1989-12-31T03:45:17Z</time>
      </trkpt>
      <trkpt lat="45.31942" lon="4.62471">
        <ele>576</ele>
        <time>1989-12-31T03:45:19Z</time>
      </trkpt>
      <trkpt lat="45.31949" lon="4.6244">
        <ele>577</ele>
        <time>1989-12-31T03:45:24Z</time>
      </trkpt>
      <trkpt lat="45.31962" lon="4.62393">
        <ele>579</ele>
        <time>1989-12-31T03:45:31Z</time>
      </trkpt>
      <trkpt lat="45.31984" lon="4.62326">
        <ele>580.6</ele>
        <time>1989-12-31T03:45:42Z</time>
      </trkpt>
      <trkpt lat="45.32027" lon="4.62188">
        <ele>581</ele>
        <time>1989-12-31T03:46:04Z</time>
      </trkpt>
      <trkpt lat="45.3205" lon="4.62112">
        <ele>582.2</ele>
        <time>1989-12-31T03:46:16Z</time>
      </trkpt>
      <trkpt lat="45.3208" lon="4.62019">
        <ele>583.6</ele>
        <time>1989-12-31T03:46:31Z</time>
      </trkpt>
      <trkpt lat="45.32086" lon="4.61997">
        <ele>584.2</ele>
        <time>1989-12-31T03:46:34Z</time>
      </trkpt>
      <trkpt lat="45.3209" lon="4.61975">
        <ele>583.8</ele>
        <time>1989-12-31T03:46:38Z</time>
      </trkpt>
      <trkpt lat="45.321" lon="4.61906">
        <ele>584.2</ele>
        <time>1989-12-31T03:46:48Z</time>
      </trkpt>
      <trkpt lat="45.32113" lon="4.61815">
        <ele>584.6</ele>
        <time>1989-12-31T03:47:01Z</time>
      </trkpt>
      <trkpt lat="45.32116" lon="4.61799">
        <ele>584.6</ele>
        <time>1989-12-31T03:47:04Z</time>
      </trkpt>
      <trkpt lat="45.32119" lon="4.61786">
        <ele>583.8</ele>
        <time>1989-12-31T03:47:06Z</time>
      </trkpt>
      <trkpt lat="45.32153" lon="4.61719">
        <ele>584.8</ele>
        <time>1989-12-31T03:47:18Z</time>
      </trkpt>
      <trkpt lat="45.32186" lon="4.61658">
        <ele>585</ele>
        <time>1989-12-31T03:47:29Z</time>
      </trkpt>
      <trkpt lat="45.32214" lon="4.61614">
        <ele>585.2</ele>
        <time>1989-12-31T03:47:38Z</time>
      </trkpt>
      <trkpt lat="45.32218" lon="4.61602">
        <ele>584.8</ele>
        <time>1989-12-31T03:47:40Z</time>
      </trkpt>
      <trkpt lat="45.32218" lon="4.6159">
        <ele>584</ele>
        <time>1989-12-31T03:47:41Z</time>
      </trkpt>
      <trkpt lat="45.32211" lon="4.61568">
        <ele>583</ele>
        <time>1989-12-31T03:47:45Z</time>
      </trkpt>
      <trkpt lat="45.32201" lon="4.61534">
        <ele>584.4</ele>
        <time>1989-12-31T03:47:50Z</time>
      </trkpt>
      <trkpt lat="45.32188" lon="4.61487">
        <ele>587.4</ele>
        <time>1989-12-31T03:47:58Z</time>
      </trkpt>
      <trkpt lat="45.32181" lon="4.61465">
        <ele>589.6</ele>
        <time>1989-12-31T03:48:01Z</time>
      </trkpt>
      <trkpt lat="45.32206" lon="4.61459">
        <ele>588.6</ele>
        <time>1989-12-31T03:48:06Z</time>
      </trkpt>
      <trkpt lat="45.3221" lon="4.61457">
        <ele>588.6</ele>
        <time>1989-12-31T03:48:07Z</time>
      </trkpt>
      <trkpt lat="45.32221" lon="4.61446">
        <ele>589</ele>
        <time>1989-12-31T03:48:10Z</time>
      </trkpt>
      <trkpt lat="45.32244" lon="4.61425">
        <ele>590</ele>
        <time>1989-12-31T03:48:16Z</time>
      </trkpt>
      <trkpt lat="45.32261" lon="4.61405">
        <ele>591</ele>
        <time>1989-12-31T03:48:20Z</time>
      </trkpt>
      <trkpt lat="45.32264" lon="4.61403">
        <ele>591</ele>
        <time>1989-12-31T03:48:21Z</time>
      </trkpt>
      <trkpt lat="45.32263" lon="4.61397">
        <ele>591.2</ele>
        <time>1989-12-31T03:48:22Z</time>
      </trkpt>
      <trkpt lat="45.32276" lon="4.61367">
        <ele>594.6</ele>
        <time>1989-12-31T03:48:27Z</time>
      </trkpt>
      <trkpt lat="45.32295" lon="4.61322">
        <ele>599.4</ele>
        <time>1989-12-31T03:48:35Z</time>
      </trkpt>
      <trkpt lat="45.3229" lon="4.61305">
        <ele>601.8</ele>
        <time>1989-12-31T03:48:37Z</time>
      </trkpt>
      <trkpt lat="45.32292" lon="4.61265">
        <ele>604</ele>
        <time>1989-12-31T03:48:43Z</time>
      </trkpt>
      <trkpt lat="45.32297" lon="4.61249">
        <ele>604.4</ele>
        <time>1989-12-31T03:48:46Z</time>
      </trkpt>
      <trkpt lat="45.32313" lon="4.61228">
        <ele>605</ele>
        <time>1989-12-31T03:48:50Z</time>
      </trkpt>
      <trkpt lat="45.32324" lon="4.61148">
        <ele>609</ele>
        <time>1989-12-31T03:49:02Z</time>
      </trkpt>
      <trkpt lat="45.32323" lon="4.61138">
        <ele>609.4</ele>
        <time>1989-12-31T03:49:04Z</time>
      </trkpt>
      <trkpt lat="45.32322" lon="4.61124">
        <ele>610.6</ele>
        <time>1989-12-31T03:49:06Z</time>
      </trkpt>
      <trkpt lat="45.32322" lon="4.61117">
        <ele>611</ele>
        <time>1989-12-31T03:49:07Z</time>
      </trkpt>
      <trkpt lat="45.32329" lon="4.61037">
        <ele>617.4</ele>
        <time>1989-12-31T03:49:18Z</time>
      </trkpt>
      <trkpt lat="45.32316" lon="4.61021">
        <ele>618.6</ele>
        <time>1989-12-31T03:49:22Z</time>
      </trkpt>
      <trkpt lat="45.32306" lon="4.60997">
        <ele>620.2</ele>
        <time>1989-12-31T03:49:26Z</time>
      </trkpt>
      <trkpt lat="45.32303" lon="4.60974">
        <ele>622</ele>
        <time>1989-12-31T03:49:30Z</time>
      </trkpt>
      <trkpt lat="45.3231" lon="4.60946">
        <ele>623.8</ele>
        <time>1989-12-31T03:49:34Z</time>
      </trkpt>
      <trkpt lat="45.32321" lon="4.60919">
        <ele>625.8</ele>
        <time>1989-12-31T03:49:39Z</time>
      </trkpt>
      <trkpt lat="45.32361" lon="4.60849">
        <ele>630.4</ele>
        <time>1989-12-31T03:49:52Z</time>
      </trkpt>
      <trkpt lat="45.32392" lon="4.60814">
        <ele>633.6</ele>
        <time>1989-12-31T03:50:00Z</time>
      </trkpt>
      <trkpt lat="45.32434" lon="4.60788">
        <ele>636.8</ele>
        <time>1989-12-31T03:50:09Z</time>
      </trkpt>
      <trkpt lat="45.3247" lon="4.6077">
        <ele>639.8</ele>
        <time>1989-12-31T03:50:17Z</time>
      </trkpt>
      <trkpt lat="45.32508" lon="4.6076">
        <ele>642.6</ele>
        <time>1989-12-31T03:50:25Z</time>
      </trkpt>
      <trkpt lat="45.32559" lon="4.60767">
        <ele>646.6</ele>
        <time>1989-12-31T03:50:36Z</time>
      </trkpt>
      <trkpt lat="45.32579" lon="4.60765">
        <ele>647.4</ele>
        <time>1989-12-31T03:50:40Z</time>
      </trkpt>
      <trkpt lat="45.32612" lon="4.60737">
        <ele>650.6</ele>
        <time>1989-12-31T03:50:48Z</time>
      </trkpt>
      <trkpt lat="45.32621" lon="4.60723">
        <ele>650.6</ele>
        <time>1989-12-31T03:50:51Z</time>
      </trkpt>
      <trkpt lat="45.32629" lon="4.607">
        <ele>652.2</ele>
        <time>1989-12-31T03:50:55Z</time>
      </trkpt>
      <trkpt lat="45.32632" lon="4.6068">
        <ele>654</ele>
        <time>1989-12-31T03:50:58Z</time>
      </trkpt>
      <trkpt lat="45.32634" lon="4.60623">
        <ele>657.4</ele>
        <time>1989-12-31T03:51:06Z</time>
      </trkpt>
      <trkpt lat="45.32638" lon="4.60595">
        <ele>658.2</ele>
        <time>1989-12-31T03:51:10Z</time>
      </trkpt>
      <trkpt lat="45.32642" lon="4.60584">
        <ele>658.6</ele>
        <time>1989-12-31T03:51:12Z</time>
      </trkpt>
      <trkpt lat="45.32647" lon="4.60574">
        <ele>659</ele>
        <time>1989-12-31T03:51:14Z</time>
      </trkpt>
      <trkpt lat="45.32655" lon="4.60567">
        <ele>659.6</ele>
        <time>1989-12-31T03:51:16Z</time>
      </trkpt>
      <trkpt lat="45.32668" lon="4.60558">
        <ele>661.4</ele>
        <time>1989-12-31T03:51:19Z</time>
      </trkpt>
      <trkpt lat="45.32811" lon="4.60491">
        <ele>673.6</ele>
        <time>1989-12-31T03:51:50Z</time>
      </trkpt>
      <trkpt lat="45.32828" lon="4.60486">
        <ele>674.6</ele>
        <time>1989-12-31T03:51:53Z</time>
      </trkpt>
      <trkpt lat="45.32839" lon="4.60485">
        <ele>675.2</ele>
        <time>1989-12-31T03:51:56Z</time>
      </trkpt>
      <trkpt lat="45.32857" lon="4.60488">
        <ele>675.8</ele>
        <time>1989-12-31T03:52:00Z</time>
      </trkpt>
      <trkpt lat="45.32913" lon="4.6051">
        <ele>680.4</ele>
        <time>1989-12-31T03:52:12Z</time>
      </trkpt>
      <trkpt lat="45.32928" lon="4.60512">
        <ele>681.2</ele>
        <time>1989-12-31T03:52:15Z</time>
      </trkpt>
      <trkpt lat="45.32937" lon="4.60509">
        <ele>682.4</ele>
        <time>1989-12-31T03:52:17Z</time>
      </trkpt>
      <trkpt lat="45.32944" lon="4.60505">
        <ele>683.4</ele>
        <time>1989-12-31T03:52:18Z</time>
      </trkpt>
      <trkpt lat="45.32951" lon="4.60497">
        <ele>682.8</ele>
        <time>1989-12-31T03:52:20Z</time>
      </trkpt>
      <trkpt lat="45.32984" lon="4.60437">
        <ele>688.6</ele>
        <time>1989-12-31T03:52:31Z</time>
      </trkpt>
      <trkpt lat="45.33003" lon="4.60407">
        <ele>691.2</ele>
        <time>1989-12-31T03:52:37Z</time>
      </trkpt>
      <trkpt lat="45.33017" lon="4.60391">
        <ele>693</ele>
        <time>1989-12-31T03:52:41Z</time>
      </trkpt>
      <trkpt lat="45.33033" lon="4.60373">
        <ele>692.8</ele>
        <time>1989-12-31T03:52:45Z</time>
      </trkpt>
      <trkpt lat="45.33047" lon="4.60361">
        <ele>694.4</ele>
        <time>1989-12-31T03:52:48Z</time>
      </trkpt>
      <trkpt lat="45.33067" lon="4.60349">
        <ele>694.8</ele>
        <time>1989-12-31T03:52:53Z</time>
      </trkpt>
      <trkpt lat="45.33114" lon="4.60333">
        <ele>698.8</ele>
        <time>1989-12-31T03:53:03Z</time>
      </trkpt>
      <trkpt lat="45.33139" lon="4.60322">
        <ele>700.4</ele>
        <time>1989-12-31T03:53:09Z</time>
      </trkpt>
      <trkpt lat="45.33163" lon="4.60302">
        <ele>702</ele>
        <time>1989-12-31T03:53:14Z</time>
      </trkpt>
      <trkpt lat="45.33171" lon="4.6029">
        <ele>702.6</ele>
        <time>1989-12-31T03:53:17Z</time>
      </trkpt>
      <trkpt lat="45.33178" lon="4.60275">
        <ele>703.2</ele>
        <time>1989-12-31T03:53:19Z</time>
      </trkpt>
      <trkpt lat="45.33184" lon="4.60258">
        <ele>704.4</ele>
        <time>1989-12-31T03:53:22Z</time>
      </trkpt>
      <trkpt lat="45.33194" lon="4.60221">
        <ele>707.4</ele>
        <time>1989-12-31T03:53:28Z</time>
      </trkpt>
      <trkpt lat="45.33205" lon="4.60166">
        <ele>709.2</ele>
        <time>1989-12-31T03:53:36Z</time>
      </trkpt>
      <trkpt lat="45.33214" lon="4.60095">
        <ele>713.8</ele>
        <time>1989-12-31T03:53:47Z</time>
      </trkpt>
      <trkpt lat="45.33216" lon="4.60066">
        <ele>715.2</ele>
        <time>1989-12-31T03:53:51Z</time>
      </trkpt>
      <trkpt lat="45.33217" lon="4.60028">
        <ele>717</ele>
        <time>1989-12-31T03:53:56Z</time>
      </trkpt>
      <trkpt lat="45.33213" lon="4.59955">
        <ele>721</ele>
        <time>1989-12-31T03:54:07Z</time>
      </trkpt>
      <trkpt lat="45.33213" lon="4.59922">
        <ele>721.8</ele>
        <time>1989-12-31T03:54:12Z</time>
      </trkpt>
      <trkpt lat="45.33222" lon="4.59836">
        <ele>726</ele>
        <time>1989-12-31T03:54:25Z</time>
      </trkpt>
      <trkpt lat="45.33224" lon="4.59797">
        <ele>728.6</ele>
        <time>1989-12-31T03:54:30Z</time>
      </trkpt>
      <trkpt lat="45.33215" lon="4.59694">
        <ele>735.2</ele>
        <time>1989-12-31T03:54:45Z</time>
      </trkpt>
      <trkpt lat="45.33215" lon="4.5969">
        <ele>735.2</ele>
        <time>1989-12-31T03:54:46Z</time>
      </trkpt>
      <trkpt lat="45.33216" lon="4.5968">
        <ele>735</ele>
        <time>1989-12-31T03:54:48Z</time>
      </trkpt>
      <trkpt lat="45.3322" lon="4.59664">
        <ele>734.6</ele>
        <time>1989-12-31T03:54:50Z</time>
      </trkpt>
      <trkpt lat="45.33224" lon="4.59657">
        <ele>734.6</ele>
        <time>1989-12-31T03:54:51Z</time>
      </trkpt>
      <trkpt lat="45.33232" lon="4.59651">
        <ele>735.2</ele>
        <time>1989-12-31T03:54:53Z</time>
      </trkpt>
      <trkpt lat="45.33244" lon="4.59648">
        <ele>735.8</ele>
        <time>1989-12-31T03:54:56Z</time>
      </trkpt>
      <trkpt lat="45.33251" lon="4.59649">
        <ele>736.2</ele>
        <time>1989-12-31T03:54:57Z</time>
      </trkpt>
      <trkpt lat="45.33261" lon="4.59655">
        <ele>738</ele>
        <time>1989-12-31T03:54:59Z</time>
      </trkpt>
      <trkpt lat="45.33274" lon="4.59668">
        <ele>738.6</ele>
        <time>1989-12-31T03:55:03Z</time>
      </trkpt>
      <trkpt lat="45.33304" lon="4.59711">
        <ele>741.6</ele>
        <time>1989-12-31T03:55:12Z</time>
      </trkpt>
      <trkpt lat="45.33321" lon="4.59746">
        <ele>742.8</ele>
        <time>1989-12-31T03:55:18Z</time>
      </trkpt>
      <trkpt lat="45.33331" lon="4.59772">
        <ele>744.6</ele>
        <time>1989-12-31T03:55:22Z</time>
      </trkpt>
      <trkpt lat="45.33343" lon="4.59815">
        <ele>748</ele>
        <time>1989-12-31T03:55:29Z</time>
      </trkpt>
      <trkpt lat="45.33353" lon="4.59854">
        <ele>749</ele>
        <time>1989-12-31T03:55:35Z</time>
      </trkpt>
      <trkpt lat="45.33371" lon="4.59908">
        <ele>750.8</ele>
        <time>1989-12-31T03:55:44Z</time>
      </trkpt>
      <trkpt lat="45.33382" lon="4.59932">
        <ele>752.8</ele>
        <time>1989-12-31T03:55:48Z</time>
      </trkpt>
      <trkpt lat="45.33414" lon="4.59997">
        <ele>755.8</ele>
        <time>1989-12-31T03:55:59Z</time>
      </trkpt>
      <trkpt lat="45.33427" lon="4.60031">
        <ele>757.2</ele>
        <time>1989-12-31T03:56:05Z</time>
      </trkpt>
      <trkpt lat="45.33442" lon="4.60081">
        <ele>760.4</ele>
        <time>1989-12-31T03:56:13Z</time>
      </trkpt>
      <trkpt lat="45.33445" lon="4.60097">
        <ele>761.2</ele>
        <time>1989-12-31T03:56:15Z</time>
      </trkpt>
      <trkpt lat="45.33448" lon="4.60142">
        <ele>763.2</ele>
        <time>1989-12-31T03:56:22Z</time>
      </trkpt>
      <trkpt lat="45.33454" lon="4.60177">
        <ele>765.4</ele>
        <time>1989-12-31T03:56:27Z</time>
      </trkpt>
      <trkpt lat="45.33466" lon="4.60213">
        <ele>766.6</ele>
        <time>1989-12-31T03:56:33Z</time>
      </trkpt>
      <trkpt lat="45.33473" lon="4.60229">
        <ele>767</ele>
        <time>1989-12-31T03:56:36Z</time>
      </trkpt>
      <trkpt lat="45.33482" lon="4.60244">
        <ele>768</ele>
        <time>1989-12-31T03:56:39Z</time>
      </trkpt>
      <trkpt lat="45.33493" lon="4.60253">
        <ele>768.6</ele>
        <time>1989-12-31T03:56:41Z</time>
      </trkpt>
      <trkpt lat="45.33506" lon="4.60259">
        <ele>769.6</ele>
        <time>1989-12-31T03:56:44Z</time>
      </trkpt>
      <trkpt lat="45.33518" lon="4.60258">
        <ele>770.4</ele>
        <time>1989-12-31T03:56:47Z</time>
      </trkpt>
      <trkpt lat="45.33525" lon="4.60254">
        <ele>771.4</ele>
        <time>1989-12-31T03:56:48Z</time>
      </trkpt>
      <trkpt lat="45.33537" lon="4.60244">
        <ele>772.6</ele>
        <time>1989-12-31T03:56:51Z</time>
      </trkpt>
      <trkpt lat="45.33552" lon="4.60222">
        <ele>774.2</ele>
        <time>1989-12-31T03:56:55Z</time>
      </trkpt>
      <trkpt lat="45.3363" lon="4.60098">
        <ele>782.6</ele>
        <time>1989-12-31T03:57:20Z</time>
      </trkpt>
      <trkpt lat="45.33639" lon="4.60089">
        <ele>783.4</ele>
        <time>1989-12-31T03:57:22Z</time>
      </trkpt>
      <trkpt lat="45.33649" lon="4.60084">
        <ele>784.4</ele>
        <time>1989-12-31T03:57:24Z</time>
      </trkpt>
      <trkpt lat="45.33666" lon="4.60084">
        <ele>785</ele>
        <time>1989-12-31T03:57:28Z</time>
      </trkpt>
      <trkpt lat="45.33684" lon="4.60094">
        <ele>785.8</ele>
        <time>1989-12-31T03:57:32Z</time>
      </trkpt>
      <trkpt lat="45.33694" lon="4.60102">
        <ele>786.4</ele>
        <time>1989-12-31T03:57:34Z</time>
      </trkpt>
      <trkpt lat="45.33706" lon="4.60117">
        <ele>788.6</ele>
        <time>1989-12-31T03:57:38Z</time>
      </trkpt>
      <trkpt lat="45.33722" lon="4.60149">
        <ele>789.6</ele>
        <time>1989-12-31T03:57:43Z</time>
      </trkpt>
      <trkpt lat="45.33732" lon="4.60183">
        <ele>791.4</ele>
        <time>1989-12-31T03:57:49Z</time>
      </trkpt>
      <trkpt lat="45.33752" lon="4.60241">
        <ele>794.2</ele>
        <time>1989-12-31T03:57:58Z</time>
      </trkpt>
      <trkpt lat="45.33764" lon="4.60262">
        <ele>794.8</ele>
        <time>1989-12-31T03:58:02Z</time>
      </trkpt>
      <trkpt lat="45.33774" lon="4.60271">
        <ele>795.6</ele>
        <time>1989-12-31T03:58:04Z</time>
      </trkpt>
      <trkpt lat="45.33786" lon="4.60276">
        <ele>796.4</ele>
        <time>1989-12-31T03:58:07Z</time>
      </trkpt>
      <trkpt lat="45.33794" lon="4.60276">
        <ele>796.6</ele>
        <time>1989-12-31T03:58:09Z</time>
      </trkpt>
      <trkpt lat="45.33801" lon="4.60273">
        <ele>797</ele>
        <time>1989-12-31T03:58:10Z</time>
      </trkpt>
      <trkpt lat="45.33811" lon="4.6026">
        <ele>798</ele>
        <time>1989-12-31T03:58:13Z</time>
      </trkpt>
      <trkpt lat="45.33816" lon="4.60244">
        <ele>799</ele>
        <time>1989-12-31T03:58:16Z</time>
      </trkpt>
      <trkpt lat="45.33816" lon="4.60226">
        <ele>800</ele>
        <time>1989-12-31T03:58:18Z</time>
      </trkpt>
      <trkpt lat="45.33806" lon="4.60107">
        <ele>807.4</ele>
        <time>1989-12-31T03:58:36Z</time>
      </trkpt>
      <trkpt lat="45.338" lon="4.60053">
        <ele>809.6</ele>
        <time>1989-12-31T03:58:44Z</time>
      </trkpt>
      <trkpt lat="45.33794" lon="4.59993">
        <ele>813.4</ele>
        <time>1989-12-31T03:58:53Z</time>
      </trkpt>
      <trkpt lat="45.33794" lon="4.59983">
        <ele>813.8</ele>
        <time>1989-12-31T03:58:54Z</time>
      </trkpt>
      <trkpt lat="45.33792" lon="4.59956">
        <ele>813.6</ele>
        <time>1989-12-31T03:58:58Z</time>
      </trkpt>
      <trkpt lat="45.33789" lon="4.59916">
        <ele>814</ele>
        <time>1989-12-31T03:59:04Z</time>
      </trkpt>
    </trkseg>
  </trk>
</gpx>